Time,TemperatureF,DewpointF,PressureIn,WindDirection,WindDirectionDegrees,WindSpeedMPH,WindSpeedGustMPH,Humidity,HourlyPrecipIn,Conditions,Clouds,dailyrainin,SolarRadiationWatts/m^2,SoftwareType,DateUTC
2013-03-09 00:00:00,35.1,28.6,29.34,ESE,113,1.0,7.0,77,0.00,,CLR,0.00,0.00,VWS V14.01,2013-03-09 06:00:00,
2013-03-09 00:01:00,35.3,28.8,29.33,ESE,121,5.0,11.0,77,0.00,,FEW100,0.00,0.00,VWS V14.01,2013-03-09 06:01:00,
2013-03-09 00:02:00,35.4,28.9,29.33,SE,135,2.0,5.0,77,0.00,,FEW100,0.00,0.00,VWS V14.01,2013-03-09 06:02:00,
2013-03-09 00:03:00,35.0,28.5,29.34,SE,138,7.0,7.0,77,0.00,,CLR,0.00,0.00,VWS V14.01,2013-03-09 06:03:00,
2013-03-09 00:04:00,35.3,28.8,29.33,SE,142,0.0,6.0,77,0.00,,FEW100,0.00,0.00,VWS V14.01,2013-03-09 06:04:00,
2013-03-09 00:05:00,35.0,28.5,29.34,SSE,159,1.0,4.0,77,0.00,,CLR,0.00,0.00,VWS V14.01,2013-03-09 06:05:00,
2013-03-09 00:06:00,35.4,28.9,29.33,ESE,110,6.0,8.0,77,0.00,,FEW100,0.00,0.00,VWS V14.01,2013-03-09 06:06:00,
2013-03-09 00:07:00,35.4,28.9,29.33,SSW,192,2.0,7.0,77,0.00,,FEW100,0.00,0.00,VWS V14.01,2013-03-09 06:07:00,
2013-03-09 00:08:00,35.0,28.5,29.33,SE,124,0.0,5.0,77,0.00,,CLR,0.00,0.00,VWS V14.01,2013-03-09 06:08:00,
2013-03-09 00:09:00,35.4,28.9,29.33,SE,126,5.0,5.0,77,0.00,,FEW100,0.00,0.00,VWS V14.01,2013-03-09 06:09:00,
2013-03-09 00:10:00,35.0,28.5,29.33,ESE,118,6.0,7.0,77,0.00,,CLR,0.00,0.00,VWS V14.01,2013-03-09 06:10:00,
2013-03-09 00:11:00,35.5,29.0,29.33,SE,136,4.0,6.0,77,0.00,,FEW100,0.00,0.00,VWS V14.01,2013-03-09 06:11:00,
2013-03-09 00:12:00,35.1,28.6,29.33,SE,137,6.0,6.0,77,0.00,,CLR,0.00,0.00,VWS V14.01,2013-03-09 06:12:00,
2013-03-09 00:13:00,35.5,29.0,29.33,ESE,115,8.0,9.0,77,0.00,,FEW100,0.00,0.00,VWS V14.01,2013-03-09 06:13:00,
2013-03-09 00:14:00,35.1,28.6,29.33,ESE,109,6.0,11.0,77,0.00,,CLR,0.00,0.00,VWS V14.01,2013-03-09 06:14:00,
2013-03-09 00:15:00,35.1,28.6,29.33,ESE,107,5.0,8.0,77,0.00,,CLR,0.00,0.00,VWS V14.01,2013-03-09 06:15:00,
2013-03-09 00:16:00,35.5,29.0,29.33,ESE,113,5.0,6.0,77,0.00,,FEW100,0.00,0.00,VWS V14.01,2013-03-09 06:16:00,
2013-03-09 00:17:00,35.1,28.6,29.33,ESE,117,0.0,5.0,77,0.00,,CLR,0.00,0.00,VWS V14.01,2013-03-09 06:17:00,
2013-03-09 00:18:00,35.6,29.1,29.33,ESE,104,4.0,7.0,77,0.00,,FEW100,0.00,0.00,VWS V14.01,2013-03-09 06:18:00,
2013-03-09 00:19:00,35.6,29.1,29.33,ESE,121,2.0,5.0,77,0.00,,FEW100,0.00,0.00,VWS V14.01,2013-03-09 06:19:00,
2013-03-09 00:20:00,35.2,28.7,29.32,SE,130,1.0,2.0,77,0.00,,CLR,0.00,0.00,VWS V14.01,2013-03-09 06:20:00,
2013-03-09 00:21:00,35.5,29.0,29.33,ESE,120,0.0,1.0,77,0.00,,FEW100,0.00,0.00,VWS V14.01,2013-03-09 06:21:00,
2013-03-09 00:22:00,35.2,28.7,29.32,SE,143,4.0,7.0,77,0.00,,CLR,0.00,0.00,VWS V14.01,2013-03-09 06:22:00,
2013-03-09 00:23:00,35.6,29.1,29.33,SW,215,2.0,4.0,77,0.00,,FEW100,0.00,0.00,VWS V14.01,2013-03-09 06:23:00,
2013-03-09 00:24:00,35.2,28.7,29.32,ESE,118,1.0,5.0,77,0.00,,CLR,0.00,0.00,VWS V14.01,2013-03-09 06:24:00,
2013-03-09 00:25:00,35.5,29.0,29.33,ESE,116,4.0,6.0,77,0.00,,FEW100,0.00,0.00,VWS V14.01,2013-03-09 06:25:00,
2013-03-09 00:26:00,35.6,29.4,29.33,ESE,118,1.0,4.0,78,0.00,,FEW100,0.00,0.00,VWS V14.01,2013-03-09 06:26:00,
2013-03-09 00:27:00,35.2,28.7,29.33,SE,132,2.0,7.0,77,0.00,,CLR,0.00,0.00,VWS V14.01,2013-03-09 06:27:00,
2013-03-09 00:28:00,35.2,28.7,29.33,ESE,105,5.0,8.0,77,0.00,,CLR,0.00,0.00,VWS V14.01,2013-03-09 06:28:00,
2013-03-09 00:29:00,35.5,29.3,29.33,SSE,168,1.0,6.0,78,0.00,,FEW100,0.00,0.00,VWS V14.01,2013-03-09 06:29:00,
2013-03-09 00:30:00,35.3,28.8,29.33,SSE,148,4.0,9.0,77,0.00,,CLR,0.00,0.00,VWS V14.01,2013-03-09 06:30:00,
2013-03-09 00:31:00,35.5,29.3,29.33,SSE,167,0.0,4.0,78,0.00,,FEW100,0.00,0.00,VWS V14.01,2013-03-09 06:31:00,
2013-03-09 00:32:00,35.5,29.3,29.33,ESE,120,1.0,4.0,78,0.00,,FEW100,0.00,0.00,VWS V14.01,2013-03-09 06:32:00,
2013-03-09 00:33:00,35.4,28.6,29.33,ESE,102,2.0,4.0,76,0.00,,CLR,0.00,0.00,VWS V14.01,2013-03-09 06:33:00,
2013-03-09 00:34:00,35.4,28.6,29.33,ENE,71,2.0,9.0,76,0.00,,CLR,0.00,0.00,VWS V14.01,2013-03-09 06:34:00,
2013-03-09 00:35:00,35.4,28.6,29.33,ESE,120,6.0,9.0,76,0.00,,CLR,0.00,0.00,VWS V14.01,2013-03-09 06:35:00,
2013-03-09 00:36:00,35.5,29.3,29.33,SE,125,0.0,1.0,78,0.00,,FEW100,0.00,0.00,VWS V14.01,2013-03-09 06:36:00,
2013-03-09 00:37:00,35.5,29.3,29.33,SE,125,2.0,2.0,78,0.00,,FEW100,0.00,0.00,VWS V14.01,2013-03-09 06:37:00,
2013-03-09 00:38:00,35.5,28.7,29.33,South,182,3.0,7.0,76,0.00,,CLR,0.00,0.00,VWS V14.01,2013-03-09 06:38:00,
2013-03-09 00:39:00,35.5,29.3,29.33,ESE,117,1.0,2.0,78,0.00,,FEW100,0.00,0.00,VWS V14.01,2013-03-09 06:39:00,
2013-03-09 00:40:00,35.5,28.7,29.33,SE,132,0.0,2.0,76,0.00,,CLR,0.00,0.00,VWS V14.01,2013-03-09 06:40:00,
2013-03-09 00:41:00,35.5,28.7,29.33,ESE,107,4.0,7.0,76,0.00,,CLR,0.00,0.00,VWS V14.01,2013-03-09 06:41:00,
2013-03-09 00:42:00,35.5,28.7,29.33,SE,130,1.0,5.0,76,0.00,,CLR,0.00,0.00,VWS V14.01,2013-03-09 06:42:00,
2013-03-09 00:43:00,35.4,29.5,29.33,SE,128,5.0,7.0,79,0.00,,FEW100,0.00,0.00,VWS V14.01,2013-03-09 06:43:00,
2013-03-09 00:44:00,35.5,28.7,29.33,SE,126,0.0,1.0,76,0.00,,CLR,0.00,0.00,VWS V14.01,2013-03-09 06:44:00,
2013-03-09 00:45:00,35.5,28.7,29.33,ESE,107,2.0,6.0,76,0.00,,CLR,0.00,0.00,VWS V14.01,2013-03-09 06:45:00,
2013-03-09 00:46:00,35.5,28.7,29.33,SE,139,4.0,6.0,76,0.00,,CLR,0.00,0.00,VWS V14.01,2013-03-09 06:46:00,
2013-03-09 00:47:00,35.3,29.5,29.33,ESE,111,4.0,4.0,79,0.00,,FEW100,0.00,0.00,VWS V14.01,2013-03-09 06:47:00,
2013-03-09 00:48:00,35.3,29.5,29.33,ESE,119,1.0,4.0,79,0.00,,FEW100,0.00,0.00,VWS V14.01,2013-03-09 06:48:00,
2013-03-09 00:49:00,35.3,29.5,29.33,ESE,119,2.0,2.0,79,0.00,,FEW100,0.00,0.00,VWS V14.01,2013-03-09 06:49:00,
2013-03-09 00:50:00,35.3,29.5,29.33,ESE,119,0.0,2.0,79,0.00,,FEW100,0.00,0.00,VWS V14.01,2013-03-09 06:50:00,
2013-03-09 00:51:00,35.4,28.9,29.33,ESE,119,5.0,6.0,77,0.00,,CLR,0.00,0.00,VWS V14.01,2013-03-09 06:51:00,
2013-03-09 00:53:00,35.4,28.9,29.33,ESE,115,5.0,7.0,77,0.00,,CLR,0.00,0.00,VWS V14.01,2013-03-09 06:53:00,
2013-03-09 00:54:00,35.2,29.4,29.33,ESE,121,2.0,5.0,79,0.00,,FEW100,0.00,0.00,VWS V14.01,2013-03-09 06:54:00,
2013-03-09 00:55:00,35.2,29.4,29.32,SE,133,0.0,4.0,79,0.00,,FEW100,0.00,0.00,VWS V14.01,2013-03-09 06:55:00,
2013-03-09 00:56:00,35.2,29.4,29.32,ESE,107,0.0,6.0,79,0.00,,FEW100,0.00,0.00,VWS V14.01,2013-03-09 06:56:00,
2013-03-09 00:57:00,35.3,28.8,29.33,ESE,117,2.0,7.0,77,0.00,,CLR,0.00,0.00,VWS V14.01,2013-03-09 06:57:00,
2013-03-09 00:58:00,35.3,28.8,29.33,ESE,117,0.0,2.0,77,0.00,,CLR,0.00,0.00,VWS V14.01,2013-03-09 06:58:00,
2013-03-09 00:59:00,35.3,28.8,29.33,SSE,160,4.0,4.0,77,0.00,,CLR,0.00,0.00,VWS V14.01,2013-03-09 06:59:00,
2013-03-09 01:00:00,35.1,29.2,29.32,ENE,68,3.0,5.0,79,0.00,,FEW100,0.00,0.00,VWS V14.01,2013-03-09 07:00:00,
2013-03-09 01:01:00,35.1,29.2,29.32,SE,134,2.0,5.0,79,0.00,,FEW100,0.00,0.00,VWS V14.01,2013-03-09 07:01:00,
2013-03-09 01:02:00,35.4,28.9,29.33,SE,135,2.0,5.0,77,0.00,,CLR,0.00,0.00,VWS V14.01,2013-03-09 07:02:00,
2013-03-09 01:03:00,35.0,29.2,29.32,SSW,196,0.0,5.0,79,0.00,,FEW100,0.00,0.00,VWS V14.01,2013-03-09 07:03:00,
2013-03-09 01:04:00,35.3,28.8,29.33,SE,142,0.0,6.0,77,0.00,,CLR,0.00,0.00,VWS V14.01,2013-03-09 07:04:00,
2013-03-09 01:05:00,35.0,29.2,29.31,SE,133,4.0,4.0,79,0.00,,FEW100,0.00,0.00,VWS V14.01,2013-03-09 07:05:00,
2013-03-09 01:06:00,35.0,29.5,29.31,ESE,106,4.0,9.0,80,0.00,,FEW100,0.00,0.00,VWS V14.01,2013-03-09 07:06:00,
2013-03-09 01:07:00,35.4,28.9,29.33,SSW,192,2.0,7.0,77,0.00,,CLR,0.00,0.00,VWS V14.01,2013-03-09 07:07:00,
2013-03-09 01:08:00,35.4,28.9,29.33,SE,124,1.0,3.0,77,0.00,,CLR,0.00,0.00,VWS V14.01,2013-03-09 07:08:00,
2013-03-09 01:09:00,35.0,29.5,29.29,ESE,114,4.0,9.0,80,0.00,,FEW100,0.00,0.00,VWS V14.01,2013-03-09 07:09:00,
2013-03-09 01:10:00,35.5,29.0,29.33,SSE,153,0.0,5.0,77,0.00,,CLR,0.00,0.00,VWS V14.01,2013-03-09 07:10:00,
2013-03-09 01:11:00,34.9,29.4,29.30,ESE,112,0.0,9.0,80,0.00,,FEW100,0.00,0.00,VWS V14.01,2013-03-09 07:11:00,
2013-03-09 01:12:00,34.9,29.4,29.30,SW,227,3.0,6.0,80,0.00,,FEW100,0.00,0.00,VWS V14.01,2013-03-09 07:12:00,
2013-03-09 01:13:00,35.5,29.0,29.33,ESE,115,8.0,9.0,77,0.00,,CLR,0.00,0.00,VWS V14.01,2013-03-09 07:13:00,
2013-03-09 01:14:00,35.5,29.0,29.33,ESE,120,1.0,8.0,77,0.00,,CLR,0.00,0.00,VWS V14.01,2013-03-09 07:14:00,
2013-03-09 01:15:00,35.5,29.0,29.33,ESE,123,4.0,6.0,77,0.00,,CLR,0.00,0.00,VWS V14.01,2013-03-09 07:15:00,
2013-03-09 01:16:00,35.0,29.5,29.31,ESE,121,1.0,6.0,80,0.00,,FEW100,0.00,0.00,VWS V14.01,2013-03-09 07:16:00,
2013-03-09 01:17:00,35.0,29.5,29.31,SSE,157,4.0,4.0,80,0.00,,FEW100,0.00,0.00,VWS V14.01,2013-03-09 07:17:00,
2013-03-09 01:18:00,35.6,29.1,29.33,ESE,104,4.0,7.0,77,0.00,,CLR,0.00,0.00,VWS V14.01,2013-03-09 07:18:00,
2013-03-09 01:19:00,35.0,29.5,29.31,SE,134,0.0,2.0,80,0.00,,FEW100,0.00,0.00,VWS V14.01,2013-03-09 07:19:00,
2013-03-09 01:20:00,35.1,29.6,29.31,SE,146,5.0,5.0,80,0.00,,FEW100,0.00,0.00,VWS V14.01,2013-03-09 07:20:00,
2013-03-09 01:21:00,35.5,29.0,29.33,ESE,120,0.0,1.0,77,0.00,,CLR,0.00,0.00,VWS V14.01,2013-03-09 07:21:00,
2013-03-09 01:22:00,35.6,29.1,29.33,ESE,118,2.0,2.0,77,0.00,,CLR,0.00,0.00,VWS V14.01,2013-03-09 07:22:00,
2013-03-09 01:23:00,35.6,29.1,29.33,SW,215,2.0,4.0,77,0.00,,CLR,0.00,0.00,VWS V14.01,2013-03-09 07:23:00,
2013-03-09 01:24:00,35.1,29.6,29.31,SE,128,5.0,7.0,80,0.00,,FEW100,0.00,0.00,VWS V14.01,2013-03-09 07:24:00,
2013-03-09 01:25:00,35.1,29.6,29.31,ESE,121,4.0,6.0,80,0.00,,FEW100,0.00,0.00,VWS V14.01,2013-03-09 07:25:00,
2013-03-09 01:26:00,35.2,29.7,29.30,East,79,5.0,8.0,80,0.00,,FEW100,0.00,0.00,VWS V14.01,2013-03-09 07:26:00,
2013-03-09 01:27:00,35.2,29.4,29.30,ESE,109,1.0,9.0,79,0.00,,FEW100,0.00,0.00,VWS V14.01,2013-03-09 07:27:00,
2013-03-09 01:28:00,35.5,29.3,29.33,ESE,109,6.0,8.0,78,0.00,,CLR,0.00,0.00,VWS V14.01,2013-03-09 07:28:00,
2013-03-09 01:29:00,35.5,29.3,29.33,SSE,168,1.0,6.0,78,0.00,,CLR,0.00,0.00,VWS V14.01,2013-03-09 07:29:00,
2013-03-09 01:30:00,35.2,29.4,29.30,ESE,102,0.0,4.0,79,0.00,,FEW100,0.00,0.00,VWS V14.01,2013-03-09 07:30:00,
2013-03-09 01:31:00,35.2,29.4,29.30,ESE,103,2.0,8.0,79,0.00,,FEW100,0.00,0.00,VWS V14.01,2013-03-09 07:31:00,
2013-03-09 01:32:00,35.2,29.4,29.30,ESE,115,0.0,7.0,79,0.00,,FEW100,0.00,0.00,VWS V14.01,2013-03-09 07:32:00,
2013-03-09 01:33:00,35.5,29.3,29.33,ESE,119,1.0,2.0,78,0.00,,CLR,0.00,0.00,VWS V14.01,2013-03-09 07:33:00,
2013-03-09 01:34:00,35.5,29.3,29.33,SSE,150,5.0,5.0,78,0.00,,CLR,0.00,0.00,VWS V14.01,2013-03-09 07:34:00,
2013-03-09 01:35:00,35.5,29.3,29.33,SE,125,0.0,5.0,78,0.00,,CLR,0.00,0.00,VWS V14.01,2013-03-09 07:35:00,
2013-03-09 01:36:00,35.2,29.4,29.30,SE,137,1.0,2.0,79,0.00,,FEW100,0.00,0.00,VWS V14.01,2013-03-09 07:36:00,
2013-03-09 01:37:00,35.2,29.4,29.30,ESE,112,2.0,5.0,79,0.00,,FEW100,0.00,0.00,VWS V14.01,2013-03-09 07:37:00,
2013-03-09 01:38:00,35.5,29.3,29.33,ESE,123,0.0,4.0,78,0.00,,CLR,0.00,0.00,VWS V14.01,2013-03-09 07:38:00,
2013-03-09 01:39:00,35.2,29.4,29.30,SE,133,2.0,6.0,79,0.00,,FEW100,0.00,0.00,VWS V14.01,2013-03-09 07:39:00,
2013-03-09 01:40:00,35.2,29.4,29.30,ESE,111,2.0,5.0,79,0.00,,FEW100,0.00,0.00,VWS V14.01,2013-03-09 07:40:00,
2013-03-09 01:41:00,35.4,29.2,29.33,ESE,117,0.0,4.0,78,0.00,,CLR,0.00,0.00,VWS V14.01,2013-03-09 07:41:00,
2013-03-09 01:42:00,35.2,29.4,29.30,SE,132,6.0,6.0,79,0.00,,FEW100,0.00,0.00,VWS V14.01,2013-03-09 07:42:00,
2013-03-09 01:43:00,35.4,29.5,29.33,SE,128,5.0,7.0,79,0.00,,CLR,0.00,0.00,VWS V14.01,2013-03-09 07:43:00,
2013-03-09 01:44:00,35.2,29.4,29.30,SE,138,0.0,4.0,79,0.00,,FEW100,0.00,0.00,VWS V14.01,2013-03-09 07:44:00,
2013-03-09 01:45:00,35.3,29.5,29.33,SE,132,0.0,6.0,79,0.00,,CLR,0.00,0.00,VWS V14.01,2013-03-09 07:45:00,
2013-03-09 01:46:00,35.3,29.5,29.33,South,172,1.0,4.0,79,0.00,,CLR,0.00,0.00,VWS V14.01,2013-03-09 07:46:00,
2013-03-09 01:47:00,35.3,29.5,29.30,ESE,122,1.0,4.0,79,0.00,,FEW100,0.00,0.00,VWS V14.01,2013-03-09 07:47:00,
2013-03-09 01:48:00,35.3,29.5,29.33,ESE,119,1.0,4.0,79,0.00,,CLR,0.00,0.00,VWS V14.01,2013-03-09 07:48:00,
2013-03-09 01:49:00,35.3,29.5,29.29,East,96,5.0,7.0,79,0.00,,FEW100,0.00,0.00,VWS V14.01,2013-03-09 07:49:00,
2013-03-09 01:50:00,35.3,29.5,29.33,ESE,119,0.0,2.0,79,0.00,,CLR,0.00,0.00,VWS V14.01,2013-03-09 07:50:00,
2013-03-09 01:51:00,35.3,29.5,29.28,ESE,118,4.0,6.0,79,0.00,,FEW100,0.00,0.00,VWS V14.01,2013-03-09 07:51:00,
2013-03-09 01:52:00,35.2,29.4,29.33,ESE,107,5.0,6.0,79,0.00,,CLR,0.00,0.00,VWS V14.01,2013-03-09 07:52:00,
2013-03-09 01:53:00,35.2,29.4,29.33,ESE,107,0.0,5.0,79,0.00,,CLR,0.00,0.00,VWS V14.01,2013-03-09 07:53:00,
2013-03-09 01:54:00,35.3,29.5,29.28,East,90,8.0,8.0,79,0.00,,FEW100,0.00,0.00,VWS V14.01,2013-03-09 07:54:00,
2013-03-09 01:55:00,35.2,29.4,29.32,SE,133,0.0,4.0,79,0.00,,CLR,0.00,0.00,VWS V14.01,2013-03-09 07:55:00,
2013-03-09 01:56:00,35.4,29.5,29.29,SE,128,2.0,5.0,79,0.00,,FEW100,0.00,0.00,VWS V14.01,2013-03-09 07:56:00,
2013-03-09 01:57:00,35.4,29.5,29.29,ESE,103,1.0,5.0,79,0.00,,FEW100,0.00,0.00,VWS V14.01,2013-03-09 07:57:00,
2013-03-09 01:58:00,35.4,29.5,29.29,SSE,167,1.0,2.0,79,0.00,,FEW100,0.00,0.00,VWS V14.01,2013-03-09 07:58:00,
2013-03-09 01:59:00,35.1,29.3,29.32,ESE,121,2.0,5.0,79,0.00,,CLR,0.00,0.00,VWS V14.01,2013-03-09 07:59:00,
2013-03-09 02:00:00,35.4,29.5,29.29,SE,129,4.0,5.0,79,0.00,,FEW100,0.00,0.00,VWS V14.01,2013-03-09 08:00:00,
2013-03-09 02:01:00,35.1,29.3,29.32,SE,134,2.0,5.0,79,0.00,,BKN110,0.00,0.00,VWS V14.01,2013-03-09 08:01:00,
2013-03-09 02:02:00,35.5,29.6,29.29,SE,133,1.0,8.0,79,0.00,,FEW100,0.00,0.00,VWS V14.01,2013-03-09 08:02:00,
2013-03-09 02:03:00,35.0,29.2,29.32,SSW,196,0.0,5.0,79,0.00,,BKN110,0.00,0.00,VWS V14.01,2013-03-09 08:03:00,
2013-03-09 02:04:00,35.5,29.3,29.30,ESE,119,1.0,5.0,78,0.00,,FEW100,0.00,0.00,VWS V14.01,2013-03-09 08:04:00,
2013-03-09 02:05:00,35.5,29.3,29.30,East,101,5.0,5.0,78,0.00,,FEW100,0.00,0.00,VWS V14.01,2013-03-09 08:05:00,
2013-03-09 02:06:00,35.0,29.5,29.31,ESE,106,4.0,9.0,80,0.00,,BKN110,0.00,0.00,VWS V14.01,2013-03-09 08:06:00,
2013-03-09 02:07:00,35.0,29.5,29.30,East,98,2.0,5.0,80,0.00,,BKN110,0.00,0.00,VWS V14.01,2013-03-09 08:07:00,
2013-03-09 02:08:00,35.6,29.4,29.30,SE,125,5.0,6.0,78,0.00,,FEW100,0.00,0.00,VWS V14.01,2013-03-09 08:08:00,
2013-03-09 02:09:00,35.5,29.3,29.29,SE,124,4.0,8.0,78,0.00,,FEW100,0.00,0.00,VWS V14.01,2013-03-09 08:09:00,
2013-03-09 02:10:00,35.6,29.4,29.29,ESE,119,2.0,5.0,78,0.00,,FEW100,0.00,0.00,VWS V14.01,2013-03-09 08:10:00,
2013-03-09 02:11:00,35.6,29.4,29.29,ESE,120,2.0,2.0,78,0.00,,FEW100,0.00,0.00,VWS V14.01,2013-03-09 08:11:00,
2013-03-09 02:12:00,34.9,29.4,29.30,SW,227,3.0,6.0,80,0.00,,BKN110,0.00,0.00,VWS V14.01,2013-03-09 08:12:00,
2013-03-09 02:13:00,34.9,29.4,29.31,SW,234,0.0,4.0,80,0.00,,BKN110,0.00,0.00,VWS V14.01,2013-03-09 08:13:00,
2013-03-09 02:14:00,35.6,29.4,29.29,ESE,119,1.0,6.0,78,0.00,,FEW100,0.00,0.00,VWS V14.01,2013-03-09 08:14:00,
2013-03-09 02:15:00,35.0,29.5,29.31,ESE,102,0.0,2.0,80,0.00,,BKN110,0.00,0.00,VWS V14.01,2013-03-09 08:15:00,
2013-03-09 02:16:00,35.6,29.4,29.29,SSW,196,2.0,4.0,78,0.00,,FEW100,0.00,0.00,VWS V14.01,2013-03-09 08:16:00,
2013-03-09 02:17:00,35.0,29.5,29.31,SSE,157,4.0,4.0,80,0.00,,BKN110,0.00,0.00,VWS V14.01,2013-03-09 08:17:00,
2013-03-09 02:18:00,35.0,29.5,29.31,East,96,2.0,7.0,80,0.00,,BKN110,0.00,0.00,VWS V14.01,2013-03-09 08:18:00,
2013-03-09 02:19:00,35.6,29.4,29.28,SSW,198,4.0,9.0,78,0.00,,FEW100,0.00,0.00,VWS V14.01,2013-03-09 08:19:00,
2013-03-09 02:20:00,35.1,29.6,29.31,SE,146,5.0,5.0,80,0.00,,BKN110,0.00,0.00,VWS V14.01,2013-03-09 08:20:00,
2013-03-09 02:21:00,35.1,29.6,29.31,ESE,123,2.0,5.0,80,0.00,,BKN110,0.00,0.00,VWS V14.01,2013-03-09 08:21:00,
2013-03-09 02:22:00,35.6,29.4,29.28,SE,130,5.0,8.0,78,0.00,,FEW100,0.00,0.00,VWS V14.01,2013-03-09 08:22:00,
2013-03-09 02:23:00,35.6,29.4,29.28,SE,138,2.0,6.0,78,0.00,,FEW100,0.00,0.00,VWS V14.01,2013-03-09 08:23:00,
2013-03-09 02:24:00,35.1,29.6,29.31,SE,128,5.0,7.0,80,0.00,,BKN110,0.00,0.00,VWS V14.01,2013-03-09 08:24:00,
2013-03-09 02:25:00,35.6,29.4,29.28,ESE,114,2.0,6.0,78,0.00,,FEW100,0.00,0.00,VWS V14.01,2013-03-09 08:25:00,
2013-03-09 02:26:00,35.2,29.7,29.30,East,79,5.0,8.0,80,0.00,,BKN110,0.00,0.00,VWS V14.01,2013-03-09 08:26:00,
2013-03-09 02:27:00,35.2,29.4,29.30,ESE,109,1.0,9.0,79,0.00,,BKN110,0.00,0.00,VWS V14.01,2013-03-09 08:27:00,
2013-03-09 02:28:00,35.5,29.3,29.28,ESE,103,5.0,9.0,78,0.00,,FEW100,0.00,0.00,VWS V14.01,2013-03-09 08:28:00,
2013-03-09 02:29:00,35.2,29.4,29.30,ESE,115,0.0,5.0,79,0.00,,BKN110,0.00,0.00,VWS V14.01,2013-03-09 08:29:00,
2013-03-09 02:30:00,35.5,29.3,29.28,ESE,117,6.0,6.0,78,0.00,,FEW100,0.00,0.00,VWS V14.01,2013-03-09 08:30:00,
2013-03-09 02:31:00,35.5,29.3,29.28,ESE,121,1.0,6.0,78,0.00,,FEW100,0.00,0.00,VWS V14.01,2013-03-09 08:31:00,
2013-03-09 02:32:00,35.2,29.4,29.30,ESE,115,0.0,7.0,79,0.00,,BKN110,0.00,0.00,VWS V14.01,2013-03-09 08:32:00,
2013-03-09 02:33:00,35.2,29.4,29.31,South,186,2.0,6.0,79,0.00,,BKN110,0.00,0.00,VWS V14.01,2013-03-09 08:33:00,
2013-03-09 02:34:00,35.2,29.4,29.30,SE,129,2.0,8.0,79,0.00,,BKN110,0.00,0.00,VWS V14.01,2013-03-09 08:34:00,
2013-03-09 02:35:00,35.5,29.3,29.28,ESE,105,4.0,5.0,78,0.00,,FEW100,0.00,0.00,VWS V14.01,2013-03-09 08:35:00,
2013-03-09 02:36:00,35.5,29.3,29.27,SE,144,1.0,4.0,78,0.00,,FEW100,0.00,0.00,VWS V14.01,2013-03-09 08:36:00,
2013-03-09 02:37:00,35.2,29.4,29.30,ESE,112,2.0,5.0,79,0.00,,BKN110,0.00,0.00,VWS V14.01,2013-03-09 08:37:00,
2013-03-09 02:38:00,35.2,29.4,29.30,ESE,111,0.0,2.0,79,0.00,,BKN110,0.00,0.00,VWS V14.01,2013-03-09 08:38:00,
2013-03-09 02:39:00,35.2,29.4,29.30,SE,133,2.0,6.0,79,0.00,,BKN110,0.00,0.00,VWS V14.01,2013-03-09 08:39:00,
2013-03-09 02:40:00,35.2,29.4,29.30,ESE,111,2.0,5.0,79,0.00,,BKN110,0.00,0.00,VWS V14.01,2013-03-09 08:40:00,
2013-03-09 02:41:00,35.5,29.3,29.28,SE,136,4.0,12.0,78,0.00,,FEW100,0.00,0.00,VWS V14.01,2013-03-09 08:41:00,
2013-03-09 02:42:00,35.2,29.4,29.30,SE,132,6.0,6.0,79,0.00,,BKN110,0.00,0.00,VWS V14.01,2013-03-09 08:42:00,
2013-03-09 02:43:00,35.5,29.3,29.28,SSW,209,4.0,4.0,78,0.00,,FEW100,0.00,0.00,VWS V14.01,2013-03-09 08:43:00,
2013-03-09 02:44:00,35.2,29.4,29.30,SE,138,0.0,4.0,79,0.00,,BKN110,0.00,0.00,VWS V14.01,2013-03-09 08:44:00,
2013-03-09 02:45:00,35.5,29.3,29.28,SE,134,1.0,1.0,78,0.00,,FEW100,0.00,0.00,VWS V14.01,2013-03-09 08:45:00,
2013-03-09 02:46:00,35.4,29.2,29.28,SE,129,4.0,9.0,78,0.00,,FEW100,0.00,0.00,VWS V14.01,2013-03-09 08:46:00,
2013-03-09 02:47:00,35.3,29.5,29.30,ESE,122,1.0,4.0,79,0.00,,BKN110,0.00,0.00,VWS V14.01,2013-03-09 08:47:00,
2013-03-09 02:48:00,35.4,29.2,29.28,South,172,1.0,5.0,78,0.00,,FEW100,0.00,0.00,VWS V14.01,2013-03-09 08:48:00,
2013-03-09 02:49:00,35.3,29.5,29.29,East,96,5.0,7.0,79,0.00,,BKN110,0.00,0.00,VWS V14.01,2013-03-09 08:49:00,
2013-03-09 02:50:00,35.3,29.5,29.28,ESE,111,0.0,5.0,79,0.00,,BKN110,0.00,0.00,VWS V14.01,2013-03-09 08:50:00,
2013-03-09 02:51:00,35.3,29.5,29.28,ESE,118,4.0,6.0,79,0.00,,BKN110,0.00,0.00,VWS V14.01,2013-03-09 08:51:00,
2013-03-09 02:52:00,35.4,29.2,29.28,SE,144,0.0,5.0,78,0.00,,FEW100,0.00,0.00,VWS V14.01,2013-03-09 08:52:00,
2013-03-09 02:53:00,35.4,29.2,29.29,ESE,102,2.0,5.0,78,0.00,,FEW100,0.00,0.00,VWS V14.01,2013-03-09 08:53:00,
2013-03-09 02:54:00,35.4,29.2,29.29,SSE,148,1.0,5.0,78,0.00,,FEW100,0.00,0.00,VWS V14.01,2013-03-09 08:54:00,
2013-03-09 02:55:00,35.3,29.1,29.29,ESE,113,0.0,2.0,78,0.00,,FEW100,0.00,0.00,VWS V14.01,2013-03-09 08:55:00,
2013-03-09 02:56:00,35.4,29.5,29.29,SE,128,2.0,5.0,79,0.00,,BKN110,0.00,0.00,VWS V14.01,2013-03-09 08:56:00,
2013-03-09 02:57:00,35.4,29.5,29.29,ESE,103,1.0,5.0,79,0.00,,BKN110,0.00,0.00,VWS V14.01,2013-03-09 08:57:00,
2013-03-09 02:58:00,35.3,29.1,29.29,SE,137,1.0,7.0,78,0.00,,FEW100,0.00,0.00,VWS V14.01,2013-03-09 08:58:00,
2013-03-09 02:59:00,35.3,29.1,29.28,ESE,106,2.0,5.0,78,0.00,,FEW100,0.00,0.00,VWS V14.01,2013-03-09 08:59:00,
2013-03-09 03:00:00,35.3,29.1,29.28,SE,130,1.0,6.0,78,0.00,,FEW100,0.00,0.00,VWS V14.01,2013-03-09 09:00:00,
2013-03-09 03:01:00,35.4,29.5,29.29,ESE,116,4.0,5.0,79,0.00,,FEW075,0.00,0.00,VWS V14.01,2013-03-09 09:01:00,
2013-03-09 03:02:00,35.3,29.1,29.29,SSE,148,4.0,6.0,78,0.00,,FEW100,0.00,0.00,VWS V14.01,2013-03-09 09:02:00,
2013-03-09 03:03:00,35.5,29.3,29.30,ESE,109,4.0,4.0,78,0.00,,FEW075,0.00,0.00,VWS V14.01,2013-03-09 09:03:00,
2013-03-09 03:04:00,35.5,29.3,29.30,ESE,119,1.0,5.0,78,0.00,,FEW075,0.00,0.00,VWS V14.01,2013-03-09 09:04:00,
2013-03-09 03:05:00,35.3,29.1,29.28,SE,133,6.0,7.0,78,0.00,,FEW100,0.00,0.00,VWS V14.01,2013-03-09 09:05:00,
2013-03-09 03:06:00,35.3,29.1,29.28,SSW,210,2.0,9.0,78,0.00,,FEW100,0.00,0.00,VWS V14.01,2013-03-09 09:06:00,
2013-03-09 03:07:00,35.5,29.3,29.30,ESE,117,1.0,5.0,78,0.00,,FEW075,0.00,0.00,VWS V14.01,2013-03-09 09:07:00,
2013-03-09 03:08:00,35.6,29.4,29.30,SE,125,5.0,6.0,78,0.00,,FEW075,0.00,0.00,VWS V14.01,2013-03-09 09:08:00,
2013-03-09 03:09:00,35.3,29.5,29.28,ESE,109,5.0,7.0,79,0.00,,FEW100,0.00,0.00,VWS V14.01,2013-03-09 09:09:00,
2013-03-09 03:10:00,35.3,29.5,29.28,ESE,106,8.0,12.0,79,0.00,,FEW100,0.00,0.00,VWS V14.01,2013-03-09 09:10:00,
2013-03-09 03:11:00,35.6,29.4,29.29,ESE,120,2.0,2.0,78,0.00,,FEW075,0.00,0.00,VWS V14.01,2013-03-09 09:11:00,
2013-03-09 03:12:00,35.2,29.4,29.28,ESE,121,4.0,8.0,79,0.00,,FEW100,0.00,0.00,VWS V14.01,2013-03-09 09:12:00,
2013-03-09 03:13:00,35.2,29.4,29.28,ESE,118,1.0,5.0,79,0.00,,FEW100,0.00,0.00,VWS V14.01,2013-03-09 09:13:00,
2013-03-09 03:14:00,35.6,29.4,29.29,ESE,119,1.0,6.0,78,0.00,,FEW075,0.00,0.00,VWS V14.01,2013-03-09 09:14:00,
2013-03-09 03:15:00,35.2,29.4,29.27,SSW,198,1.0,5.0,79,0.00,,FEW100,0.00,0.00,VWS V14.01,2013-03-09 09:15:00,
2013-03-09 03:16:00,35.1,29.2,29.27,ESE,123,1.0,2.0,79,0.00,,FEW100,0.00,0.00,VWS V14.01,2013-03-09 09:16:00,
2013-03-09 03:17:00,35.6,29.4,29.29,ESE,121,4.0,9.0,78,0.00,,FEW075,0.00,0.00,VWS V14.01,2013-03-09 09:17:00,
2013-03-09 03:18:00,35.6,29.4,29.28,SE,140,9.0,9.0,78,0.00,,FEW075,0.00,0.00,VWS V14.01,2013-03-09 09:18:00,
2013-03-09 03:19:00,35.6,29.4,29.28,SSW,198,4.0,9.0,78,0.00,,FEW075,0.00,0.00,VWS V14.01,2013-03-09 09:19:00,
2013-03-09 03:20:00,35.1,29.2,29.27,SSE,151,2.0,5.0,79,0.00,,FEW100,0.00,0.00,VWS V14.01,2013-03-09 09:20:00,
2013-03-09 03:21:00,35.1,29.2,29.27,SSE,159,2.0,4.0,79,0.00,,FEW100,0.00,0.00,VWS V14.01,2013-03-09 09:21:00,
2013-03-09 03:22:00,35.1,29.2,29.27,SE,126,2.0,4.0,79,0.00,,FEW100,0.00,0.00,VWS V14.01,2013-03-09 09:22:00,
2013-03-09 03:23:00,35.6,29.4,29.28,SE,138,2.0,6.0,78,0.00,,FEW075,0.00,0.00,VWS V14.01,2013-03-09 09:23:00,
2013-03-09 03:24:00,35.6,29.4,29.28,SSE,161,5.0,5.0,78,0.00,,FEW075,0.00,0.00,VWS V14.01,2013-03-09 09:24:00,
2013-03-09 03:25:00,35.6,29.4,29.28,ESE,114,2.0,6.0,78,0.00,,FEW075,0.00,0.00,VWS V14.01,2013-03-09 09:25:00,
2013-03-09 03:26:00,35.1,29.2,29.28,SSE,152,0.0,6.0,79,0.00,,FEW100,0.00,0.00,VWS V14.01,2013-03-09 09:26:00,
2013-03-09 03:27:00,35.1,29.2,29.28,ESE,107,5.0,5.0,79,0.00,,FEW100,0.00,0.00,VWS V14.01,2013-03-09 09:27:00,
2013-03-09 03:28:00,35.1,29.2,29.28,ESE,108,1.0,7.0,79,0.00,,FEW100,0.00,0.00,VWS V14.01,2013-03-09 09:28:00,
2013-03-09 03:29:00,35.5,29.3,29.28,SE,134,1.0,5.0,78,0.00,,FEW075,0.00,0.00,VWS V14.01,2013-03-09 09:29:00,
2013-03-09 03:30:00,35.5,29.3,29.28,ESE,117,6.0,6.0,78,0.00,,FEW075,0.00,0.00,VWS V14.01,2013-03-09 09:30:00,
2013-03-09 03:31:00,35.5,29.3,29.28,ESE,121,1.0,6.0,78,0.00,,FEW075,0.00,0.00,VWS V14.01,2013-03-09 09:31:00,
2013-03-09 03:32:00,35.1,29.2,29.28,South,186,1.0,6.0,79,0.00,,FEW100,0.00,0.00,VWS V14.01,2013-03-09 09:32:00,
2013-03-09 03:33:00,35.2,29.4,29.28,ESE,117,5.0,9.0,79,0.00,,FEW100,0.00,0.00,VWS V14.01,2013-03-09 09:33:00,
2013-03-09 03:34:00,35.2,29.4,29.28,ESE,116,4.0,11.0,79,0.00,,FEW100,0.00,0.00,VWS V14.01,2013-03-09 09:34:00,
2013-03-09 03:35:00,35.5,29.3,29.28,ESE,105,4.0,5.0,78,0.00,,FEW075,0.00,0.00,VWS V14.01,2013-03-09 09:35:00,
2013-03-09 03:36:00,35.2,29.4,29.28,SSE,168,5.0,5.0,79,0.00,,FEW100,0.00,0.00,VWS V14.01,2013-03-09 09:36:00,
2013-03-09 03:37:00,35.2,29.4,29.28,ESE,123,5.0,5.0,79,0.00,,FEW100,0.00,0.00,VWS V14.01,2013-03-09 09:37:00,
2013-03-09 03:38:00,35.5,29.3,29.27,ESE,102,2.0,7.0,78,0.00,,FEW075,0.00,0.00,VWS V14.01,2013-03-09 09:38:00,
2013-03-09 03:39:00,35.5,29.3,29.27,SSW,207,8.0,8.0,78,0.00,,FEW075,0.00,0.00,VWS V14.01,2013-03-09 09:39:00,
2013-03-09 03:40:00,35.5,29.3,29.27,SE,125,5.0,9.0,78,0.00,,FEW075,0.00,0.00,VWS V14.01,2013-03-09 09:40:00,
2013-03-09 03:41:00,35.2,29.4,29.28,SSE,149,4.0,7.0,79,0.00,,FEW100,0.00,0.00,VWS V14.01,2013-03-09 09:41:00,
2013-03-09 03:42:00,35.2,29.4,29.28,SE,141,5.0,7.0,79,0.00,,FEW100,0.00,0.00,VWS V14.01,2013-03-09 09:42:00,
2013-03-09 03:43:00,35.2,29.4,29.29,East,101,4.0,5.0,79,0.00,,FEW100,0.00,0.00,VWS V14.01,2013-03-09 09:43:00,
2013-03-09 03:44:00,35.2,29.4,29.29,ESE,109,5.0,9.0,79,0.00,,FEW100,0.00,0.00,VWS V14.01,2013-03-09 09:44:00,
2013-03-09 03:45:00,35.5,29.3,29.28,SE,134,1.0,1.0,78,0.00,,FEW075,0.00,0.00,VWS V14.01,2013-03-09 09:45:00,
2013-03-09 03:46:00,35.4,29.2,29.28,SE,129,4.0,9.0,78,0.00,,FEW075,0.00,0.00,VWS V14.01,2013-03-09 09:46:00,
2013-03-09 03:47:00,35.4,29.2,29.28,SE,128,4.0,8.0,78,0.00,,FEW075,0.00,0.00,VWS V14.01,2013-03-09 09:47:00,
2013-03-09 03:48:00,35.2,29.4,29.28,SE,138,5.0,8.0,79,0.00,,FEW100,0.00,0.00,VWS V14.01,2013-03-09 09:48:00,
2013-03-09 03:49:00,35.2,29.4,29.28,SE,130,11.0,11.0,79,0.00,,FEW100,0.00,0.00,VWS V14.01,2013-03-09 09:49:00,
2013-03-09 03:50:00,35.2,29.4,29.28,East,101,0.0,11.0,79,0.00,,FEW100,0.00,0.00,VWS V14.01,2013-03-09 09:50:00,
2013-03-09 03:51:00,35.1,29.2,29.28,ESE,122,1.0,7.0,79,0.00,,FEW100,0.00,0.00,VWS V14.01,2013-03-09 09:51:00,
2013-03-09 03:52:00,35.4,29.2,29.28,SE,144,0.0,5.0,78,0.00,,FEW075,0.00,0.00,VWS V14.01,2013-03-09 09:52:00,
2013-03-09 03:53:00,35.1,29.2,29.28,SE,130,4.0,8.0,79,0.00,,FEW100,0.00,0.00,VWS V14.01,2013-03-09 09:53:00,
2013-03-09 03:54:00,35.4,29.2,29.29,SSE,148,1.0,5.0,78,0.00,,FEW075,0.00,0.00,VWS V14.01,2013-03-09 09:54:00,
2013-03-09 03:55:00,35.1,29.2,29.28,SE,128,0.0,6.0,79,0.00,,FEW100,0.00,0.00,VWS V14.01,2013-03-09 09:55:00,
2013-03-09 03:56:00,35.3,29.1,29.29,SE,130,1.0,4.0,78,0.00,,FEW075,0.00,0.00,VWS V14.01,2013-03-09 09:56:00,
2013-03-09 03:57:00,35.3,29.1,29.29,SE,137,7.0,7.0,78,0.00,,FEW075,0.00,0.00,VWS V14.01,2013-03-09 09:57:00,
2013-03-09 03:58:00,35.0,29.2,29.28,SSE,165,2.0,5.0,79,0.00,,FEW100,0.00,0.00,VWS V14.01,2013-03-09 09:58:00,
2013-03-09 03:59:00,35.3,29.1,29.28,ESE,106,2.0,5.0,78,0.00,,FEW075,0.00,0.00,VWS V14.01,2013-03-09 09:59:00,
2013-03-09 04:00:00,35.3,29.1,29.28,SE,130,1.0,6.0,78,0.00,,FEW075,0.00,0.00,VWS V14.01,2013-03-09 10:00:00,
2013-03-09 04:01:00,35.0,29.5,29.28,ESE,119,1.0,6.0,80,0.00,,FEW100,0.00,0.00,VWS V14.01,2013-03-09 10:01:00,
2013-03-09 04:02:00,35.0,29.5,29.28,SE,126,6.0,6.0,80,0.00,,FEW100,0.00,0.00,VWS V14.01,2013-03-09 10:02:00,
2013-03-09 04:03:00,35.0,29.5,29.28,ESE,117,0.0,8.0,80,0.00,,FEW100,0.00,0.00,VWS V14.01,2013-03-09 10:03:00,
2013-03-09 04:04:00,35.0,29.5,29.28,ESE,121,2.0,9.0,80,0.00,,FEW100,0.00,0.00,VWS V14.01,2013-03-09 10:04:00,
2013-03-09 04:05:00,35.3,29.1,29.28,SE,133,6.0,7.0,78,0.00,,SCT080,0.00,0.00,VWS V14.01,2013-03-09 10:05:00,
2013-03-09 04:06:00,35.3,29.1,29.28,SSW,210,2.0,9.0,78,0.00,,SCT080,0.00,0.00,VWS V14.01,2013-03-09 10:06:00,
2013-03-09 04:08:00,35.3,29.5,29.28,SSE,168,1.0,4.0,79,0.00,,SCT080,0.00,0.00,VWS V14.01,2013-03-09 10:08:00,
2013-03-09 04:09:00,35.0,29.5,29.28,SE,135,5.0,7.0,80,0.00,,FEW100,0.00,0.00,VWS V14.01,2013-03-09 10:09:00,
2013-03-09 04:10:00,35.0,29.5,29.27,South,175,2.0,6.0,80,0.00,,FEW100,0.00,0.00,VWS V14.01,2013-03-09 10:10:00,
2013-03-09 04:11:00,35.2,29.4,29.28,ESE,123,2.0,9.0,79,0.00,,SCT080,0.00,0.00,VWS V14.01,2013-03-09 10:11:00,
2013-03-09 04:12:00,35.2,29.4,29.28,ESE,121,4.0,8.0,79,0.00,,SCT080,0.00,0.00,VWS V14.01,2013-03-09 10:12:00,
2013-03-09 04:13:00,35.0,29.5,29.27,East,83,2.0,7.0,80,0.00,,FEW100,0.00,0.00,VWS V14.01,2013-03-09 10:13:00,
2013-03-09 04:14:00,35.1,29.6,29.27,SE,130,9.0,9.0,80,0.00,,FEW100,0.00,0.00,VWS V14.01,2013-03-09 10:14:00,
2013-03-09 04:15:00,35.2,29.4,29.27,SSW,198,1.0,5.0,79,0.00,,SCT080,0.00,0.00,VWS V14.01,2013-03-09 10:15:00,
2013-03-09 04:16:00,35.1,29.2,29.27,ESE,103,2.0,5.0,79,0.00,,FEW100,0.00,0.00,VWS V14.01,2013-03-09 10:16:00,
2013-03-09 04:17:00,35.1,29.3,29.27,ESE,111,5.0,9.0,79,0.00,,SCT080,0.00,0.00,VWS V14.01,2013-03-09 10:17:00,
2013-03-09 04:18:00,35.1,29.3,29.27,SE,125,2.0,6.0,79,0.00,,SCT080,0.00,0.00,VWS V14.01,2013-03-09 10:18:00,
2013-03-09 04:19:00,35.2,29.4,29.27,SE,134,1.0,8.0,79,0.00,,FEW100,0.00,0.00,VWS V14.01,2013-03-09 10:19:00,
2013-03-09 04:20:00,35.2,29.4,29.27,ESE,111,4.0,6.0,79,0.00,,FEW100,0.00,0.00,VWS V14.01,2013-03-09 10:20:00,
2013-03-09 04:21:00,35.2,29.4,29.27,South,191,3.0,7.0,79,0.00,,FEW100,0.00,0.00,VWS V14.01,2013-03-09 10:21:00,
2013-03-09 04:22:00,35.1,29.3,29.27,SE,126,2.0,4.0,79,0.00,,SCT080,0.00,0.00,VWS V14.01,2013-03-09 10:22:00,
2013-03-09 04:23:00,35.1,29.3,29.27,SE,126,1.0,7.0,79,0.00,,SCT080,0.00,0.00,VWS V14.01,2013-03-09 10:23:00,
2013-03-09 04:24:00,35.1,29.3,29.28,ESE,119,0.0,2.0,79,0.00,,SCT080,0.00,0.00,VWS V14.01,2013-03-09 10:24:00,
2013-03-09 04:25:00,35.3,29.5,29.27,ESE,119,2.0,9.0,79,0.00,,FEW100,0.00,0.00,VWS V14.01,2013-03-09 10:25:00,
2013-03-09 04:26:00,35.4,29.5,29.27,SE,132,6.0,8.0,79,0.00,,FEW100,0.00,0.00,VWS V14.01,2013-03-09 10:26:00,
2013-03-09 04:27:00,35.1,29.3,29.28,ESE,107,5.0,5.0,79,0.00,,SCT080,0.00,0.00,VWS V14.01,2013-03-09 10:27:00,
2013-03-09 04:28:00,35.4,29.2,29.27,ESE,111,4.0,5.0,78,0.00,,FEW100,0.00,0.00,VWS V14.01,2013-03-09 10:28:00,
2013-03-09 04:29:00,35.1,29.3,29.28,South,173,2.0,5.0,79,0.00,,SCT080,0.00,0.00,VWS V14.01,2013-03-09 10:29:00,
2013-03-09 04:30:00,35.5,29.3,29.28,East,93,2.0,8.0,78,0.00,,FEW100,0.00,0.00,VWS V14.01,2013-03-09 10:30:00,
2013-03-09 04:31:00,35.5,29.3,29.28,ESE,111,2.0,4.0,78,0.00,,FEW100,0.00,0.00,VWS V14.01,2013-03-09 10:31:00,
2013-03-09 04:32:00,35.5,29.3,29.27,ESE,116,4.0,5.0,78,0.00,,FEW100,0.00,0.00,VWS V14.01,2013-03-09 10:32:00,
2013-03-09 04:33:00,35.5,29.3,29.28,ESE,117,0.0,4.0,78,0.00,,FEW100,0.00,0.00,VWS V14.01,2013-03-09 10:33:00,
2013-03-09 04:34:00,35.2,29.4,29.28,ESE,116,4.0,11.0,79,0.00,,SCT080,0.00,0.00,VWS V14.01,2013-03-09 10:34:00,
2013-03-09 04:35:00,35.5,29.3,29.28,SE,145,1.0,5.0,78,0.00,,FEW100,0.00,0.00,VWS V14.01,2013-03-09 10:35:00,
2013-03-09 04:36:00,35.6,29.4,29.28,SE,133,5.0,5.0,78,0.00,,FEW100,0.00,0.00,VWS V14.01,2013-03-09 10:36:00,
2013-03-09 04:37:00,35.2,29.4,29.28,ESE,123,5.0,5.0,79,0.00,,SCT080,0.00,0.00,VWS V14.01,2013-03-09 10:37:00,
2013-03-09 04:38:00,35.6,29.4,29.28,SSW,197,0.0,4.0,78,0.00,,FEW100,0.00,0.00,VWS V14.01,2013-03-09 10:38:00,
2013-03-09 04:39:00,35.2,29.4,29.28,South,190,3.0,11.0,79,0.00,,SCT080,0.00,0.00,VWS V14.01,2013-03-09 10:39:00,
2013-03-09 04:40:00,35.2,29.4,29.28,ESE,105,2.0,6.0,79,0.00,,SCT080,0.00,0.00,VWS V14.01,2013-03-09 10:40:00,
2013-03-09 04:41:00,35.6,29.4,29.28,ESE,111,1.0,5.0,78,0.00,,FEW100,0.00,0.00,VWS V14.01,2013-03-09 10:41:00,
2013-03-09 04:42:00,35.6,29.4,29.28,SE,132,1.0,4.0,78,0.00,,FEW100,0.00,0.00,VWS V14.01,2013-03-09 10:42:00,
2013-03-09 04:43:00,35.2,29.4,29.29,East,101,4.0,5.0,79,0.00,,SCT080,0.00,0.00,VWS V14.01,2013-03-09 10:43:00,
2013-03-09 04:44:00,35.2,29.4,29.29,ESE,109,5.0,9.0,79,0.00,,SCT080,0.00,0.00,VWS V14.01,2013-03-09 10:44:00,
2013-03-09 04:45:00,35.2,29.4,29.29,ESE,118,4.0,8.0,79,0.00,,SCT080,0.00,0.00,VWS V14.01,2013-03-09 10:45:00,
2013-03-09 04:46:00,35.2,29.4,29.29,East,92,6.0,6.0,79,0.00,,SCT080,0.00,0.00,VWS V14.01,2013-03-09 10:46:00,
2013-03-09 04:47:00,35.7,29.5,29.28,SE,130,2.0,7.0,78,0.00,,FEW100,0.00,0.00,VWS V14.01,2013-03-09 10:47:00,
2013-03-09 04:48:00,35.7,29.5,29.28,ESE,123,2.0,8.0,78,0.00,,FEW100,0.00,0.00,VWS V14.01,2013-03-09 10:48:00,
2013-03-09 04:49:00,35.7,29.5,29.28,ESE,118,6.0,7.0,78,0.00,,FEW100,0.00,0.00,VWS V14.01,2013-03-09 10:49:00,
2013-03-09 04:50:00,35.7,29.5,29.28,ESE,118,4.0,6.0,78,0.00,,FEW100,0.00,0.00,VWS V14.01,2013-03-09 10:50:00,
2013-03-09 04:51:00,35.1,29.3,29.28,ESE,122,1.0,7.0,79,0.00,,SCT080,0.00,0.00,VWS V14.01,2013-03-09 10:51:00,
2013-03-09 04:52:00,35.1,29.3,29.28,ESE,117,5.0,5.0,79,0.00,,SCT080,0.00,0.00,VWS V14.01,2013-03-09 10:52:00,
2013-03-09 04:53:00,35.8,29.3,29.28,ESE,121,2.0,4.0,77,0.00,,FEW100,0.00,0.00,VWS V14.01,2013-03-09 10:53:00,
2013-03-09 04:54:00,35.1,29.3,29.28,ESE,123,4.0,5.0,79,0.00,,SCT080,0.00,0.00,VWS V14.01,2013-03-09 10:54:00,
2013-03-09 04:55:00,35.1,29.3,29.28,SE,128,0.0,6.0,79,0.00,,SCT080,0.00,0.00,VWS V14.01,2013-03-09 10:55:00,
2013-03-09 04:56:00,35.8,29.3,29.28,SE,136,1.0,6.0,77,0.00,,FEW100,0.00,0.00,VWS V14.01,2013-03-09 10:56:00,
2013-03-09 04:57:00,35.1,29.3,29.28,East,98,4.0,6.0,79,0.00,,SCT080,0.00,0.00,VWS V14.01,2013-03-09 10:57:00,
2013-03-09 04:58:00,35.8,29.3,29.28,SE,139,1.0,4.0,77,0.00,,FEW100,0.00,0.00,VWS V14.01,2013-03-09 10:58:00,
2013-03-09 04:59:00,35.8,29.3,29.28,SE,134,2.0,5.0,77,0.00,,FEW100,0.00,0.00,VWS V14.01,2013-03-09 10:59:00,
2013-03-09 05:00:00,35.0,29.5,29.28,ESE,122,4.0,7.0,80,0.00,,SCT080,0.00,0.00,VWS V14.01,2013-03-09 11:00:00,
2013-03-09 05:01:00,35.8,29.3,29.28,South,172,2.0,8.0,77,0.00,,FEW100,0.00,0.00,VWS V14.01,2013-03-09 11:01:00,
2013-03-09 05:02:00,35.8,29.3,29.28,SE,129,0.0,5.0,77,0.00,,FEW100,0.00,0.00,VWS V14.01,2013-03-09 11:02:00,
2013-03-09 05:03:00,35.0,29.5,29.28,ESE,117,0.0,8.0,80,0.00,,BKN,0.00,0.00,VWS V14.01,2013-03-09 11:03:00,
2013-03-09 05:04:00,35.8,29.3,29.28,SE,125,1.0,4.0,77,0.00,,FEW100,0.00,0.00,VWS V14.01,2013-03-09 11:04:00,
2013-03-09 05:05:00,35.8,29.3,29.28,SE,133,1.0,5.0,77,0.00,,FEW100,0.00,0.00,VWS V14.01,2013-03-09 11:05:00,
2013-03-09 05:06:00,35.8,29.3,29.28,ESE,119,0.0,2.0,77,0.00,,FEW100,0.00,0.00,VWS V14.01,2013-03-09 11:06:00,
2013-03-09 05:07:00,35.8,29.3,29.28,ESE,115,5.0,8.0,77,0.00,,FEW100,0.00,0.00,VWS V14.01,2013-03-09 11:07:00,
2013-03-09 05:08:00,35.0,29.5,29.27,ESE,119,5.0,9.0,80,0.00,,BKN,0.00,0.00,VWS V14.01,2013-03-09 11:08:00,
2013-03-09 05:09:00,35.0,29.5,29.28,SE,135,5.0,7.0,80,0.00,,BKN,0.00,0.00,VWS V14.01,2013-03-09 11:09:00,
2013-03-09 05:10:00,35.7,29.2,29.27,ESE,116,0.0,6.0,77,0.00,,FEW100,0.00,0.00,VWS V14.01,2013-03-09 11:10:00,
2013-03-09 05:11:00,35.0,29.5,29.28,SE,141,2.0,2.0,80,0.00,,BKN,0.00,0.00,VWS V14.01,2013-03-09 11:11:00,
2013-03-09 05:12:00,35.7,29.2,29.27,SE,128,6.0,9.0,77,0.00,,FEW100,0.00,0.00,VWS V14.01,2013-03-09 11:12:00,
2013-03-09 05:13:00,35.6,29.4,29.27,ESE,109,1.0,7.0,78,0.00,,FEW100,0.00,0.00,VWS V14.01,2013-03-09 11:13:00,
2013-03-09 05:14:00,35.6,29.4,29.27,South,172,10.0,10.0,78,0.00,,FEW100,0.00,0.00,VWS V14.01,2013-03-09 11:14:00,
2013-03-09 05:15:00,35.1,29.6,29.27,SE,136,5.0,9.0,80,0.00,,BKN,0.00,0.00,VWS V14.01,2013-03-09 11:15:00,
2013-03-09 05:16:00,35.1,29.3,29.27,ESE,103,2.0,5.0,79,0.00,,BKN,0.00,0.00,VWS V14.01,2013-03-09 11:16:00,
2013-03-09 05:17:00,35.5,29.3,29.27,SE,139,0.0,7.0,78,0.00,,FEW100,0.00,0.00,VWS V14.01,2013-03-09 11:17:00,
2013-03-09 05:18:00,35.2,29.4,29.27,SE,125,6.0,6.0,79,0.00,,BKN,0.00,0.00,VWS V14.01,2013-03-09 11:18:00,
2013-03-09 05:19:00,35.4,29.2,29.27,SSE,155,1.0,7.0,78,0.00,,FEW100,0.00,5.00,VWS V14.01,2013-03-09 11:19:00,
2013-03-09 05:21:00,35.4,29.2,29.27,ESE,117,5.0,7.0,78,0.00,,FEW100,0.00,5.00,VWS V14.01,2013-03-09 11:21:00,
2013-03-09 05:22:00,35.3,29.5,29.27,SE,136,2.0,5.0,79,0.00,,BKN,0.00,0.00,VWS V14.01,2013-03-09 11:22:00,
2013-03-09 05:23:00,35.3,29.5,29.27,East,101,4.0,7.0,79,0.00,,BKN,0.00,0.00,VWS V14.01,2013-03-09 11:23:00,
2013-03-09 05:24:00,35.3,29.5,29.27,East,99,4.0,5.0,79,0.00,,BKN,0.00,0.00,VWS V14.01,2013-03-09 11:24:00,
2013-03-09 05:26:00,35.3,29.5,29.27,ESE,104,0.0,8.0,79,0.00,,FEW100,0.00,5.00,VWS V14.01,2013-03-09 11:26:00,
2013-03-09 05:27:00,35.4,29.5,29.27,ESE,119,0.0,6.0,79,0.00,,BKN,0.00,0.00,VWS V14.01,2013-03-09 11:27:00,
2013-03-09 05:28:00,35.2,29.4,29.27,ESE,118,2.0,6.0,79,0.00,,FEW100,0.00,7.00,VWS V14.01,2013-03-09 11:28:00,
2013-03-09 05:29:00,35.2,29.4,29.27,East,83,2.0,5.0,79,0.00,,FEW100,0.00,7.00,VWS V14.01,2013-03-09 11:29:00,
2013-03-09 05:30:00,35.2,29.4,29.27,ESE,119,6.0,7.0,79,0.00,,FEW100,0.00,7.00,VWS V14.01,2013-03-09 11:30:00,
2013-03-09 05:31:00,35.5,29.3,29.28,ESE,111,2.0,4.0,78,0.00,,BKN,0.00,0.00,VWS V14.01,2013-03-09 11:31:00,
2013-03-09 05:32:00,35.5,29.3,29.27,ESE,116,4.0,5.0,78,0.00,,BKN,0.00,0.00,VWS V14.01,2013-03-09 11:32:00,
2013-03-09 05:33:00,35.1,29.2,29.26,West,275,2.0,8.0,79,0.00,,FEW100,0.00,7.00,VWS V14.01,2013-03-09 11:33:00,
2013-03-09 05:34:00,35.1,29.2,29.27,ESE,115,1.0,5.0,79,0.00,,FEW100,0.00,7.00,VWS V14.01,2013-03-09 11:34:00,
2013-03-09 05:35:00,35.1,29.2,29.27,ESE,115,0.0,2.0,79,0.00,,FEW100,0.00,9.00,VWS V14.01,2013-03-09 11:35:00,
2013-03-09 05:36:00,35.6,29.4,29.28,SE,133,5.0,5.0,78,0.00,,BKN,0.00,0.00,VWS V14.01,2013-03-09 11:36:00,
2013-03-09 05:37:00,35.5,29.3,29.28,East,97,0.0,6.0,78,0.00,,BKN,0.00,0.00,VWS V14.01,2013-03-09 11:37:00,
2013-03-09 05:38:00,35.1,29.2,29.27,ESE,119,2.0,6.0,79,0.00,,FEW100,0.00,9.00,VWS V14.01,2013-03-09 11:38:00,
2013-03-09 05:39:00,35.1,29.2,29.27,SE,143,2.0,6.0,79,0.00,,FEW100,0.00,11.00,VWS V14.01,2013-03-09 11:39:00,
2013-03-09 05:40:00,35.1,29.2,29.27,SE,124,0.0,4.0,79,0.00,,FEW100,0.00,11.00,VWS V14.01,2013-03-09 11:40:00,
2013-03-09 05:41:00,35.6,29.4,29.28,ESE,111,1.0,5.0,78,0.00,,BKN,0.00,0.00,VWS V14.01,2013-03-09 11:41:00,
2013-03-09 05:42:00,35.6,29.4,29.28,SE,132,1.0,4.0,78,0.00,,BKN,0.00,0.00,VWS V14.01,2013-03-09 11:42:00,
2013-03-09 05:43:00,35.2,29.4,29.27,SE,143,4.0,8.0,79,0.00,,FEW100,0.00,11.00,VWS V14.01,2013-03-09 11:43:00,
2013-03-09 05:44:00,35.2,29.4,29.28,East,98,4.0,9.0,79,0.00,,FEW100,0.00,11.00,VWS V14.01,2013-03-09 11:44:00,
2013-03-09 05:45:00,35.2,29.4,29.28,ESE,123,1.0,8.0,79,0.00,,FEW100,0.00,11.00,VWS V14.01,2013-03-09 11:45:00,
2013-03-09 05:46:00,35.3,29.5,29.28,SE,132,8.0,8.0,79,0.00,,FEW100,0.00,11.00,VWS V14.01,2013-03-09 11:46:00,
2013-03-09 05:47:00,35.7,29.5,29.28,SE,130,2.0,7.0,78,0.00,,BKN,0.00,0.00,VWS V14.01,2013-03-09 11:47:00,
2013-03-09 05:48:00,35.7,29.5,29.28,ESE,123,2.0,8.0,78,0.00,,BKN,0.00,0.00,VWS V14.01,2013-03-09 11:48:00,
2013-03-09 05:49:00,35.7,29.5,29.28,ESE,118,6.0,7.0,78,0.00,,BKN,0.00,0.00,VWS V14.01,2013-03-09 11:49:00,
2013-03-09 05:50:00,35.3,29.5,29.28,ESE,121,1.0,6.0,79,0.00,,FEW100,0.00,12.00,VWS V14.01,2013-03-09 11:50:00,
2013-03-09 05:51:00,35.4,29.5,29.28,SE,133,4.0,6.0,79,0.00,,FEW100,0.00,12.00,VWS V14.01,2013-03-09 11:51:00,
2013-03-09 05:52:00,35.4,29.5,29.28,ESE,117,2.0,6.0,79,0.00,,FEW100,0.00,14.00,VWS V14.01,2013-03-09 11:52:00,
2013-03-09 05:53:00,35.8,29.3,29.28,ESE,121,2.0,4.0,77,0.00,,BKN,0.00,0.00,VWS V14.01,2013-03-09 11:53:00,
2013-03-09 05:54:00,35.5,29.6,29.28,ESE,118,2.0,4.0,79,0.00,,FEW100,0.00,18.00,VWS V14.01,2013-03-09 11:54:00,
2013-03-09 05:55:00,35.8,29.3,29.28,ESE,123,0.0,4.0,77,0.00,,BKN,0.00,0.00,VWS V14.01,2013-03-09 11:55:00,
2013-03-09 05:56:00,35.8,29.3,29.28,SE,136,1.0,6.0,77,0.00,,BKN,0.00,0.00,VWS V14.01,2013-03-09 11:56:00,
2013-03-09 05:57:00,35.5,29.6,29.28,SE,144,2.0,6.0,79,0.00,,FEW100,0.00,21.00,VWS V14.01,2013-03-09 11:57:00,
2013-03-09 05:58:00,35.8,29.3,29.28,SE,139,1.0,4.0,77,0.00,,BKN,0.00,0.00,VWS V14.01,2013-03-09 11:58:00,
2013-03-09 05:59:00,35.6,29.4,29.28,South,174,1.0,8.0,78,0.00,,FEW100,0.00,21.00,VWS V14.01,2013-03-09 11:59:00,
2013-03-09 06:00:00,35.8,29.3,29.28,ESE,121,2.0,6.0,77,0.00,,BKN,0.00,0.00,VWS V14.01,2013-03-09 12:00:00,
2013-03-09 06:01:00,35.8,29.3,29.28,South,172,2.0,8.0,77,0.00,,BKN,0.00,0.00,VWS V14.01,2013-03-09 12:01:00,
2013-03-09 06:02:00,35.8,29.3,29.28,SE,129,0.0,5.0,77,0.00,,BKN,0.00,0.00,VWS V14.01,2013-03-09 12:02:00,
2013-03-09 06:03:00,35.6,29.7,29.28,ESE,106,0.0,5.0,79,0.00,,FEW100,0.00,25.00,VWS V14.01,2013-03-09 12:03:00,
2013-03-09 06:04:00,35.6,29.4,29.28,ESE,106,0.0,1.0,78,0.00,,FEW100,0.00,26.00,VWS V14.01,2013-03-09 12:04:00,
2013-03-09 06:05:00,35.7,29.5,29.28,SE,136,2.0,4.0,78,0.00,,FEW100,0.00,28.00,VWS V14.01,2013-03-09 12:05:00,
2013-03-09 06:06:00,35.8,29.3,29.28,ESE,119,0.0,2.0,77,0.00,,BKN,0.00,0.00,VWS V14.01,2013-03-09 12:06:00,
2013-03-09 06:07:00,35.8,29.3,29.28,ESE,115,5.0,8.0,77,0.00,,BKN,0.00,0.00,VWS V14.01,2013-03-09 12:07:00,
2013-03-09 06:08:00,35.7,29.2,29.28,SE,128,1.0,5.0,77,0.00,,BKN,0.00,0.00,VWS V14.01,2013-03-09 12:08:00,
2013-03-09 06:09:00,35.7,29.8,29.28,ESE,121,2.0,5.0,79,0.00,,FEW100,0.00,33.00,VWS V14.01,2013-03-09 12:09:00,
2013-03-09 06:10:00,35.7,29.8,29.28,East,101,0.0,6.0,79,0.00,,FEW100,0.00,33.00,VWS V14.01,2013-03-09 12:10:00,
2013-03-09 06:11:00,35.7,29.2,29.27,SSE,148,2.0,9.0,77,0.00,,BKN,0.00,0.00,VWS V14.01,2013-03-09 12:11:00,
2013-03-09 06:12:00,35.7,29.2,29.27,SE,128,6.0,9.0,77,0.00,,BKN,0.00,0.00,VWS V14.01,2013-03-09 12:12:00,
2013-03-09 06:13:00,35.7,29.8,29.28,ESE,123,2.0,6.0,79,0.00,,FEW100,0.00,37.00,VWS V14.01,2013-03-09 12:13:00,
2013-03-09 06:14:00,35.6,29.4,29.27,South,172,10.0,10.0,78,0.00,,BKN,0.00,0.00,VWS V14.01,2013-03-09 12:14:00,
2013-03-09 06:15:00,35.7,29.5,29.28,SE,128,0.0,6.0,78,0.00,,FEW100,0.00,39.00,VWS V14.01,2013-03-09 12:15:00,
2013-03-09 06:16:00,35.7,29.5,29.28,South,186,6.0,9.0,78,0.00,,FEW100,0.00,42.00,VWS V14.01,2013-03-09 12:16:00,
2013-03-09 06:17:00,35.5,29.3,29.27,SE,139,0.0,7.0,78,0.00,,BKN,0.00,0.00,VWS V14.01,2013-03-09 12:17:00,
2013-03-09 06:18:00,35.6,29.4,29.28,SE,132,4.0,6.0,78,0.00,,FEW100,0.00,42.00,VWS V14.01,2013-03-09 12:18:00,
2013-03-09 06:19:00,35.4,29.2,29.27,SSE,155,1.0,7.0,78,0.00,,BKN,0.00,5.00,VWS V14.01,2013-03-09 12:19:00,
2013-03-09 06:20:00,35.4,29.2,29.27,SE,137,4.0,5.0,78,0.00,,BKN,0.00,5.00,VWS V14.01,2013-03-09 12:20:00,
2013-03-09 06:21:00,35.6,29.7,29.27,ENE,76,2.0,2.0,79,0.00,,FEW100,0.00,42.00,VWS V14.01,2013-03-09 12:21:00,
2013-03-09 06:22:00,35.6,29.7,29.27,SE,126,7.0,7.0,79,0.00,,FEW100,0.00,42.00,VWS V14.01,2013-03-09 12:22:00,
2013-03-09 06:23:00,35.6,29.7,29.27,SE,133,4.0,9.0,79,0.00,,FEW100,0.00,44.00,VWS V14.01,2013-03-09 12:23:00,
2013-03-09 06:24:00,35.3,29.5,29.27,ESE,121,0.0,6.0,79,0.00,,BKN,0.00,5.00,VWS V14.01,2013-03-09 12:24:00,
2013-03-09 06:25:00,35.5,29.6,29.27,ESE,107,1.0,4.0,79,0.00,,FEW100,0.00,42.00,VWS V14.01,2013-03-09 12:25:00,
2013-03-09 06:26:00,35.3,29.5,29.27,ESE,104,0.0,8.0,79,0.00,,BKN,0.00,5.00,VWS V14.01,2013-03-09 12:26:00,
2013-03-09 06:27:00,35.5,29.6,29.27,South,180,3.0,6.0,79,0.00,,FEW100,0.00,42.00,VWS V14.01,2013-03-09 12:27:00,
2013-03-09 06:28:00,35.2,29.4,29.27,ESE,118,2.0,6.0,79,0.00,,BKN,0.00,7.00,VWS V14.01,2013-03-09 12:28:00,
2013-03-09 06:29:00,35.5,29.6,29.27,SE,128,2.0,6.0,79,0.00,,FEW100,0.00,39.00,VWS V14.01,2013-03-09 12:29:00,
2013-03-09 06:30:00,35.2,29.4,29.27,ESE,119,6.0,7.0,79,0.00,,BKN,0.00,7.00,VWS V14.01,2013-03-09 12:30:00,
2013-03-09 06:31:00,35.5,29.6,29.27,SE,125,4.0,5.0,79,0.00,,FEW100,0.00,39.00,VWS V14.01,2013-03-09 12:31:00,
2013-03-09 06:32:00,35.5,29.6,29.27,North,9,4.0,12.0,79,0.00,,FEW100,0.00,39.00,VWS V14.01,2013-03-09 12:32:00,
2013-03-09 06:33:00,35.1,29.3,29.26,West,275,2.0,8.0,79,0.00,,SCT110,0.00,7.00,VWS V14.01,2013-03-09 12:33:00,
2013-03-09 06:34:00,35.1,29.3,29.27,ESE,115,1.0,5.0,79,0.00,,SCT110,0.00,7.00,VWS V14.01,2013-03-09 12:34:00,
2013-03-09 06:35:00,35.1,29.3,29.27,ESE,115,0.0,2.0,79,0.00,,SCT110,0.00,9.00,VWS V14.01,2013-03-09 12:35:00,
2013-03-09 06:36:00,35.1,29.3,29.27,ESE,106,1.0,5.0,79,0.00,,SCT110,0.00,9.00,VWS V14.01,2013-03-09 12:36:00,
2013-03-09 06:37:00,35.6,29.7,29.27,SE,146,5.0,5.0,79,0.00,,FEW100,0.00,39.00,VWS V14.01,2013-03-09 12:37:00,
2013-03-09 06:38:00,35.6,29.7,29.27,SE,144,0.0,5.0,79,0.00,,FEW100,0.00,39.00,VWS V14.01,2013-03-09 12:38:00,
2013-03-09 06:39:00,35.6,29.7,29.28,SE,134,2.0,6.0,79,0.00,,FEW100,0.00,39.00,VWS V14.01,2013-03-09 12:39:00,
2013-03-09 06:40:00,35.1,29.3,29.27,SE,124,0.0,4.0,79,0.00,,SCT110,0.00,11.00,VWS V14.01,2013-03-09 12:40:00,
2013-03-09 06:41:00,35.1,29.3,29.27,ESE,104,4.0,4.0,79,0.00,,SCT110,0.00,11.00,VWS V14.01,2013-03-09 12:41:00,
2013-03-09 06:42:00,35.7,29.8,29.27,ESE,103,6.0,9.0,79,0.00,,FEW100,0.00,40.00,VWS V14.01,2013-03-09 12:42:00,
2013-03-09 06:43:00,35.7,29.8,29.27,ESE,118,2.0,7.0,79,0.00,,FEW100,0.00,40.00,VWS V14.01,2013-03-09 12:43:00,
2013-03-09 06:44:00,35.2,29.4,29.28,East,98,4.0,9.0,79,0.00,,SCT110,0.00,11.00,VWS V14.01,2013-03-09 12:44:00,
2013-03-09 06:45:00,35.7,29.8,29.27,East,93,4.0,6.0,79,0.00,,FEW100,0.00,40.00,VWS V14.01,2013-03-09 12:45:00,
2013-03-09 06:46:00,35.3,29.5,29.28,SE,132,8.0,8.0,79,0.00,,SCT110,0.00,11.00,VWS V14.01,2013-03-09 12:46:00,
2013-03-09 06:47:00,35.8,29.6,29.27,ESE,122,4.0,9.0,78,0.00,,FEW100,0.00,42.00,VWS V14.01,2013-03-09 12:47:00,
2013-03-09 06:48:00,35.3,29.5,29.28,ESE,119,0.0,1.0,79,0.00,,SCT110,0.00,11.00,VWS V14.01,2013-03-09 12:48:00,
2013-03-09 06:49:00,35.3,29.5,29.28,ESE,118,2.0,4.0,79,0.00,,SCT110,0.00,12.00,VWS V14.01,2013-03-09 12:49:00,
2013-03-09 06:50:00,35.3,29.5,29.28,ESE,121,1.0,6.0,79,0.00,,SCT110,0.00,12.00,VWS V14.01,2013-03-09 12:50:00,
2013-03-09 06:51:00,35.9,29.7,29.27,SE,125,4.0,5.0,78,0.00,,FEW100,0.00,46.00,VWS V14.01,2013-03-09 12:51:00,
2013-03-09 06:52:00,35.4,29.5,29.28,ESE,117,2.0,6.0,79,0.00,,SCT110,0.00,14.00,VWS V14.01,2013-03-09 12:52:00,
2013-03-09 06:53:00,35.9,29.7,29.27,SE,137,2.0,5.0,78,0.00,,FEW100,0.00,46.00,VWS V14.01,2013-03-09 12:53:00,
2013-03-09 06:54:00,35.5,29.6,29.28,ESE,118,2.0,4.0,79,0.00,,SCT110,0.00,18.00,VWS V14.01,2013-03-09 12:54:00,
2013-03-09 06:55:00,35.9,29.7,29.27,ESE,118,1.0,5.0,78,0.00,,FEW100,0.00,47.00,VWS V14.01,2013-03-09 12:55:00,
2013-03-09 06:56:00,35.5,29.6,29.28,SE,125,6.0,6.0,79,0.00,,SCT110,0.00,19.00,VWS V14.01,2013-03-09 12:56:00,
2013-03-09 06:57:00,35.5,29.6,29.28,SE,144,2.0,6.0,79,0.00,,SCT110,0.00,21.00,VWS V14.01,2013-03-09 12:57:00,
2013-03-09 06:58:00,35.5,29.3,29.28,ESE,121,1.0,5.0,78,0.00,,SCT110,0.00,21.00,VWS V14.01,2013-03-09 12:58:00,
2013-03-09 06:59:00,36.0,29.8,29.27,ENE,61,5.0,6.0,78,0.00,,FEW100,0.00,49.00,VWS V14.01,2013-03-09 12:59:00,
2013-03-09 07:00:00,36.0,29.8,29.27,East,101,13.0,13.0,78,0.00,,FEW100,0.00,49.00,VWS V14.01,2013-03-09 13:00:00,
2013-03-09 07:01:00,35.6,29.7,29.27,East,90,0.0,7.0,79,0.00,,SCT110,0.00,23.00,VWS V14.01,2013-03-09 13:01:00,
2013-03-09 07:02:00,35.6,29.7,29.28,ESE,122,1.0,2.0,79,0.00,,SCT110,0.00,25.00,VWS V14.01,2013-03-09 13:02:00,
2013-03-09 07:03:00,36.0,29.8,29.27,ESE,121,6.0,9.0,78,0.00,,FEW100,0.00,51.00,VWS V14.01,2013-03-09 13:03:00,
2013-03-09 07:04:00,36.0,29.8,29.27,SSE,152,9.0,10.0,78,0.00,,FEW100,0.00,51.00,VWS V14.01,2013-03-09 13:04:00,
2013-03-09 07:05:00,36.0,29.8,29.26,SE,130,4.0,9.0,78,0.00,,FEW100,0.00,51.00,VWS V14.01,2013-03-09 13:05:00,
2013-03-09 07:06:00,36.0,29.8,29.27,ESE,122,4.0,8.0,78,0.00,,FEW100,0.00,51.00,VWS V14.01,2013-03-09 13:06:00,
2013-03-09 07:07:00,35.7,29.5,29.28,ESE,113,0.0,7.0,78,0.00,,SCT110,0.00,30.00,VWS V14.01,2013-03-09 13:07:00,
2013-03-09 07:08:00,35.7,29.5,29.28,ESE,113,1.0,4.0,78,0.00,,SCT110,0.00,32.00,VWS V14.01,2013-03-09 13:08:00,
2013-03-09 07:09:00,36.0,29.8,29.27,ENE,71,2.0,11.0,78,0.00,,FEW100,0.00,49.00,VWS V14.01,2013-03-09 13:09:00,
2013-03-09 07:10:00,35.7,29.8,29.28,East,101,0.0,6.0,79,0.00,,SCT110,0.00,33.00,VWS V14.01,2013-03-09 13:10:00,
2013-03-09 07:11:00,36.0,29.8,29.27,SE,138,4.0,6.0,78,0.00,,FEW100,0.00,47.00,VWS V14.01,2013-03-09 13:11:00,
2013-03-09 07:12:00,35.7,29.8,29.28,ESE,123,4.0,4.0,79,0.00,,SCT110,0.00,35.00,VWS V14.01,2013-03-09 13:12:00,
2013-03-09 07:13:00,36.0,29.8,29.26,ESE,119,4.0,9.0,78,0.00,,FEW100,0.00,46.00,VWS V14.01,2013-03-09 13:13:00,
2013-03-09 07:14:00,35.6,29.4,29.28,ESE,115,6.0,6.0,78,0.00,,SCT110,0.00,39.00,VWS V14.01,2013-03-09 13:14:00,
2013-03-09 07:15:00,36.0,29.8,29.26,SE,139,4.0,8.0,78,0.00,,FEW100,0.00,44.00,VWS V14.01,2013-03-09 13:15:00,
2013-03-09 07:16:00,35.7,29.5,29.28,South,186,6.0,9.0,78,0.00,,SCT110,0.00,42.00,VWS V14.01,2013-03-09 13:16:00,
2013-03-09 07:17:00,35.6,29.4,29.28,East,86,6.0,6.0,78,0.00,,SCT110,0.00,42.00,VWS V14.01,2013-03-09 13:17:00,
2013-03-09 07:18:00,36.0,29.8,29.26,ESE,122,0.0,5.0,78,0.00,,FEW100,0.00,42.00,VWS V14.01,2013-03-09 13:18:00,
2013-03-09 07:19:00,36.0,29.8,29.26,South,169,7.0,9.0,78,0.00,,FEW100,0.00,40.00,VWS V14.01,2013-03-09 13:19:00,
2013-03-09 07:20:00,35.6,29.7,29.27,ESE,109,1.0,9.0,79,0.00,,SCT110,0.00,42.00,VWS V14.01,2013-03-09 13:20:00,
2013-03-09 07:21:00,35.6,29.7,29.27,ENE,76,2.0,2.0,79,0.00,,SCT110,0.00,42.00,VWS V14.01,2013-03-09 13:21:00,
2013-03-09 07:22:00,36.0,29.8,29.26,ESE,115,2.0,7.0,78,0.00,,FEW100,0.00,37.00,VWS V14.01,2013-03-09 13:22:00,
2013-03-09 07:23:00,36.0,29.8,29.26,SE,130,7.0,7.0,78,0.00,,FEW100,0.00,37.00,VWS V14.01,2013-03-09 13:23:00,
2013-03-09 07:24:00,36.0,29.8,29.26,ESE,110,6.0,11.0,78,0.00,,FEW100,0.00,37.00,VWS V14.01,2013-03-09 13:24:00,
2013-03-09 07:25:00,35.9,29.7,29.26,ESE,123,7.0,13.0,78,0.00,,FEW100,0.00,37.00,VWS V14.01,2013-03-09 13:25:00,
2013-03-09 07:26:00,35.6,29.7,29.27,East,96,6.0,8.0,79,0.00,,SCT110,0.00,42.00,VWS V14.01,2013-03-09 13:26:00,
2013-03-09 07:27:00,36.0,29.8,29.26,ESE,110,6.0,12.0,78,0.00,,FEW100,0.00,40.00,VWS V14.01,2013-03-09 13:27:00,
2013-03-09 07:28:00,35.5,29.6,29.27,SE,134,0.0,4.0,79,0.00,,SCT110,0.00,40.00,VWS V14.01,2013-03-09 13:28:00,
2013-03-09 07:29:00,36.0,29.8,29.26,ESE,122,1.0,6.0,78,0.00,,FEW100,0.00,44.00,VWS V14.01,2013-03-09 13:29:00,
2013-03-09 07:30:00,35.5,29.6,29.27,ESE,111,4.0,7.0,79,0.00,,SCT110,0.00,39.00,VWS V14.01,2013-03-09 13:30:00,
2013-03-09 07:31:00,36.0,29.8,29.26,SE,134,1.0,6.0,78,0.00,,FEW100,0.00,46.00,VWS V14.01,2013-03-09 13:31:00,
2013-03-09 07:32:00,35.5,29.6,29.27,North,9,4.0,12.0,79,0.00,,SCT120,0.00,39.00,VWS V14.01,2013-03-09 13:32:00,
2013-03-09 07:33:00,36.0,29.8,29.26,SSE,163,0.0,6.0,78,0.00,,FEW100,0.00,47.00,VWS V14.01,2013-03-09 13:33:00,
2013-03-09 07:34:00,35.6,29.7,29.27,ESE,118,4.0,4.0,79,0.00,,SCT120,0.00,40.00,VWS V14.01,2013-03-09 13:34:00,
2013-03-09 07:35:00,36.1,29.9,29.25,ESE,120,4.0,5.0,78,0.00,,FEW100,0.00,49.00,VWS V14.01,2013-03-09 13:35:00,
2013-03-09 07:36:00,35.6,29.7,29.27,ESE,106,1.0,4.0,79,0.00,,SCT120,0.00,39.00,VWS V14.01,2013-03-09 13:36:00,
2013-03-09 07:37:00,36.1,29.9,29.25,ESE,112,7.0,7.0,78,0.00,,FEW100,0.00,53.00,VWS V14.01,2013-03-09 13:37:00,
2013-03-09 07:38:00,36.1,29.9,29.25,SE,133,4.0,14.0,78,0.00,,FEW100,0.00,54.00,VWS V14.01,2013-03-09 13:38:00,
2013-03-09 07:39:00,35.6,29.7,29.28,SE,134,2.0,6.0,79,0.00,,SCT120,0.00,39.00,VWS V14.01,2013-03-09 13:39:00,
2013-03-09 07:40:00,36.1,29.9,29.25,SW,217,5.0,8.0,78,0.00,,FEW100,0.00,56.00,VWS V14.01,2013-03-09 13:40:00,
2013-03-09 07:41:00,36.2,30.0,29.25,SSE,160,4.0,7.0,78,0.00,,FEW100,0.00,58.00,VWS V14.01,2013-03-09 13:41:00,
2013-03-09 07:42:00,36.2,30.0,29.25,ESE,112,4.0,6.0,78,0.00,,FEW100,0.00,58.00,VWS V14.01,2013-03-09 13:42:00,
2013-03-09 07:43:00,35.7,29.8,29.27,ESE,118,2.0,7.0,79,0.00,,SCT120,0.00,40.00,VWS V14.01,2013-03-09 13:43:00,
2013-03-09 07:44:00,35.7,29.5,29.28,SE,144,4.0,6.0,78,0.00,,SCT120,0.00,40.00,VWS V14.01,2013-03-09 13:44:00,
2013-03-09 07:45:00,35.7,29.8,29.27,East,93,4.0,6.0,79,0.00,,SCT120,0.00,40.00,VWS V14.01,2013-03-09 13:45:00,
2013-03-09 07:46:00,36.2,30.0,29.25,SE,126,4.0,7.0,78,0.00,,FEW100,0.00,58.00,VWS V14.01,2013-03-09 13:46:00,
2013-03-09 07:47:00,36.2,30.0,29.25,SE,130,1.0,6.0,78,0.00,,FEW100,0.00,58.00,VWS V14.01,2013-03-09 13:47:00,
2013-03-09 07:48:00,36.3,30.1,29.25,East,85,0.0,6.0,78,0.00,,FEW100,0.00,58.00,VWS V14.01,2013-03-09 13:48:00,
2013-03-09 07:49:00,35.9,29.7,29.27,SE,126,2.0,6.0,78,0.00,,SCT120,0.00,44.00,VWS V14.01,2013-03-09 13:49:00,
2013-03-09 07:50:00,36.3,30.1,29.25,ESE,115,1.0,5.0,78,0.00,,FEW100,0.00,60.00,VWS V14.01,2013-03-09 13:50:00,
2013-03-09 07:51:00,35.9,29.7,29.27,SE,125,4.0,5.0,78,0.00,,SCT120,0.00,46.00,VWS V14.01,2013-03-09 13:51:00,
2013-03-09 07:52:00,35.9,29.7,29.27,South,188,5.0,8.0,78,0.00,,SCT120,0.00,46.00,VWS V14.01,2013-03-09 13:52:00,
2013-03-09 07:55:00,36.4,30.5,29.25,ESE,114,4.0,4.0,79,0.00,,FEW100,0.00,70.00,VWS V14.01,2013-03-09 13:55:00,
2013-03-09 07:56:00,36.4,30.5,29.25,ESE,103,7.0,7.0,79,0.00,,FEW100,0.00,79.00,VWS V14.01,2013-03-09 13:56:00,
2013-03-09 07:57:00,36.0,29.8,29.27,East,92,4.0,11.0,78,0.00,,SCT120,0.00,47.00,VWS V14.01,2013-03-09 13:57:00,
2013-03-09 07:58:00,36.0,29.8,29.27,ESE,123,2.0,6.0,78,0.00,,SCT120,0.00,47.00,VWS V14.01,2013-03-09 13:58:00,
2013-03-09 07:59:00,36.0,29.8,29.27,ENE,61,5.0,6.0,78,0.00,,SCT120,0.00,49.00,VWS V14.01,2013-03-09 13:59:00,
2013-03-09 08:01:00,36.4,30.5,29.24,SSE,153,4.0,6.0,79,0.00,,FEW100,0.00,91.00,VWS V14.01,2013-03-09 14:01:00,
2013-03-09 08:03:00,36.0,29.8,29.27,ESE,121,6.0,9.0,78,0.00,,BKN100,0.00,51.00,VWS V14.01,2013-03-09 14:03:00,
2013-03-09 08:04:00,36.0,29.8,29.27,SSE,152,9.0,10.0,78,0.00,,BKN100,0.00,51.00,VWS V14.01,2013-03-09 14:04:00,
2013-03-09 08:05:00,36.5,30.6,29.24,ESE,122,5.0,8.0,79,0.00,,FEW100,0.00,83.00,VWS V14.01,2013-03-09 14:05:00,
2013-03-09 08:06:00,36.0,29.8,29.27,ESE,122,4.0,8.0,78,0.00,,BKN100,0.00,51.00,VWS V14.01,2013-03-09 14:06:00,
2013-03-09 08:07:00,36.0,29.8,29.27,ESE,102,4.0,6.0,78,0.00,,BKN100,0.00,51.00,VWS V14.01,2013-03-09 14:07:00,
2013-03-09 08:10:00,36.5,30.6,29.24,East,98,4.0,8.0,79,0.00,,FEW100,0.00,62.00,VWS V14.01,2013-03-09 14:10:00,
2013-03-09 08:11:00,36.0,29.8,29.27,SE,138,4.0,6.0,78,0.00,,BKN100,0.00,47.00,VWS V14.01,2013-03-09 14:11:00,
2013-03-09 08:12:00,36.0,29.8,29.27,South,173,9.0,9.0,78,0.00,,BKN100,0.00,47.00,VWS V14.01,2013-03-09 14:12:00,
2013-03-09 08:13:00,36.0,29.8,29.26,ESE,119,4.0,9.0,78,0.00,,BKN100,0.00,46.00,VWS V14.01,2013-03-09 14:13:00,
2013-03-09 08:14:00,36.5,30.6,29.24,ESE,113,2.0,5.0,79,0.00,,FEW100,0.00,63.00,VWS V14.01,2013-03-09 14:14:00,
2013-03-09 08:15:00,36.5,30.6,29.23,ESE,111,2.0,4.0,79,0.00,,FEW100,0.00,65.00,VWS V14.01,2013-03-09 14:15:00,
2013-03-09 08:16:00,36.0,29.8,29.26,ESE,109,9.0,11.0,78,0.00,,BKN100,0.00,42.00,VWS V14.01,2013-03-09 14:16:00,
2013-03-09 08:17:00,36.5,30.6,29.23,ESE,115,1.0,8.0,79,0.00,,FEW100,0.00,72.00,VWS V14.01,2013-03-09 14:17:00,
2013-03-09 08:18:00,36.0,29.8,29.26,ESE,122,0.0,5.0,78,0.00,,BKN100,0.00,42.00,VWS V14.01,2013-03-09 14:18:00,
2013-03-09 08:19:00,36.0,29.8,29.26,South,169,7.0,9.0,78,0.00,,BKN100,0.00,40.00,VWS V14.01,2013-03-09 14:19:00,
2013-03-09 08:20:00,36.0,29.8,29.26,ESE,118,4.0,11.0,78,0.00,,BKN100,0.00,39.00,VWS V14.01,2013-03-09 14:20:00,
2013-03-09 08:21:00,36.0,29.8,29.26,SE,146,4.0,7.0,78,0.00,,BKN100,0.00,37.00,VWS V14.01,2013-03-09 14:21:00,
2013-03-09 08:22:00,36.5,30.9,29.23,SE,138,2.0,8.0,80,0.01,,FEW100,0.01,90.00,VWS V14.01,2013-03-09 14:22:00,
2013-03-09 08:23:00,36.5,30.9,29.23,SE,146,4.0,8.0,80,0.01,,FEW100,0.01,91.00,VWS V14.01,2013-03-09 14:23:00,
2013-03-09 08:24:00,36.5,30.9,29.23,ESE,119,2.0,5.0,80,0.01,,FEW100,0.01,93.00,VWS V14.01,2013-03-09 14:24:00,
2013-03-09 08:25:00,36.5,30.9,29.23,SE,124,1.0,4.0,80,0.01,,FEW100,0.01,104.00,VWS V14.01,2013-03-09 14:25:00,
2013-03-09 08:26:00,36.0,29.8,29.26,East,94,1.0,7.0,78,0.00,,BKN100,0.00,39.00,VWS V14.01,2013-03-09 14:26:00,
2013-03-09 08:27:00,36.0,29.8,29.26,ESE,110,6.0,12.0,78,0.00,,BKN100,0.00,40.00,VWS V14.01,2013-03-09 14:27:00,
2013-03-09 08:28:00,36.6,31.0,29.23,SE,136,0.0,5.0,80,0.01,,FEW100,0.01,132.00,VWS V14.01,2013-03-09 14:28:00,
2013-03-09 08:29:00,36.0,29.8,29.26,ESE,122,1.0,6.0,78,0.00,,BKN100,0.00,44.00,VWS V14.01,2013-03-09 14:29:00,
2013-03-09 08:30:00,36.6,31.0,29.23,ESE,111,5.0,8.0,80,0.01,,FEW100,0.01,149.00,VWS V14.01,2013-03-09 14:30:00,
2013-03-09 08:31:00,36.0,29.8,29.26,SE,134,1.0,6.0,78,0.00,,BKN100,0.00,46.00,VWS V14.01,2013-03-09 14:31:00,
2013-03-09 08:32:00,36.7,31.1,29.23,ESE,106,5.0,6.0,80,0.01,,FEW100,0.01,153.00,VWS V14.01,2013-03-09 14:32:00,
2013-03-09 08:33:00,36.0,29.8,29.26,SSE,163,0.0,6.0,78,0.00,,BKN100,0.00,47.00,VWS V14.01,2013-03-09 14:33:00,
2013-03-09 08:34:00,36.7,31.4,29.23,ESE,102,4.0,8.0,81,0.01,,FEW100,0.01,142.00,VWS V14.01,2013-03-09 14:34:00,
2013-03-09 08:35:00,36.1,29.9,29.25,ESE,120,4.0,5.0,78,0.00,,BKN100,0.00,49.00,VWS V14.01,2013-03-09 14:35:00,
2013-03-09 08:36:00,36.8,31.5,29.23,SSE,149,2.0,9.0,81,0.01,,FEW100,0.01,127.00,VWS V14.01,2013-03-09 14:36:00,
2013-03-09 08:37:00,36.8,31.5,29.23,SSE,165,4.0,5.0,81,0.01,,FEW100,0.01,113.00,VWS V14.01,2013-03-09 14:37:00,
2013-03-09 08:38:00,36.1,29.9,29.25,SE,133,4.0,14.0,78,0.00,,BKN100,0.00,54.00,VWS V14.01,2013-03-09 14:38:00,
2013-03-09 08:39:00,36.8,31.5,29.23,ESE,114,2.0,7.0,81,0.01,,FEW100,0.01,109.00,VWS V14.01,2013-03-09 14:39:00,
2013-03-09 08:40:00,36.1,29.9,29.25,SW,217,5.0,8.0,78,0.00,,BKN100,0.00,56.00,VWS V14.01,2013-03-09 14:40:00,
2013-03-09 08:41:00,36.9,31.6,29.24,SE,132,5.0,13.0,81,0.01,,FEW100,0.01,113.00,VWS V14.01,2013-03-09 14:41:00,
2013-03-09 08:42:00,36.2,30.0,29.25,ESE,112,4.0,6.0,78,0.00,,BKN100,0.00,58.00,VWS V14.01,2013-03-09 14:42:00,
2013-03-09 08:43:00,36.2,30.0,29.25,SE,131,4.0,5.0,78,0.00,,BKN100,0.00,60.00,VWS V14.01,2013-03-09 14:43:00,
2013-03-09 08:44:00,36.2,30.0,29.25,ESE,114,2.0,8.0,78,0.00,,BKN100,0.00,60.00,VWS V14.01,2013-03-09 14:44:00,
2013-03-09 08:45:00,37.0,31.7,29.23,ESE,111,4.0,5.0,81,0.01,,FEW100,0.01,120.00,VWS V14.01,2013-03-09 14:45:00,
2013-03-09 08:46:00,36.2,30.0,29.25,SE,126,4.0,7.0,78,0.00,,BKN100,0.00,58.00,VWS V14.01,2013-03-09 14:46:00,
2013-03-09 08:47:00,37.0,31.7,29.23,ESE,119,2.0,9.0,81,0.01,,FEW100,0.01,120.00,VWS V14.01,2013-03-09 14:47:00,
2013-03-09 08:48:00,36.3,30.1,29.25,East,85,0.0,6.0,78,0.00,,BKN100,0.00,58.00,VWS V14.01,2013-03-09 14:48:00,
2013-03-09 08:49:00,36.3,30.1,29.25,ESE,119,2.0,7.0,78,0.00,,BKN100,0.00,58.00,VWS V14.01,2013-03-09 14:49:00,
2013-03-09 08:50:00,37.0,31.7,29.23,SE,137,1.0,8.0,81,0.01,,FEW100,0.01,113.00,VWS V14.01,2013-03-09 14:50:00,
2013-03-09 08:51:00,36.3,30.1,29.25,SE,136,4.0,4.0,78,0.00,,BKN100,0.00,62.00,VWS V14.01,2013-03-09 14:51:00,
2013-03-09 08:52:00,37.1,31.8,29.23,East,101,8.0,12.0,81,0.01,,FEW100,0.01,105.00,VWS V14.01,2013-03-09 14:52:00,
2013-03-09 08:53:00,36.4,30.2,29.25,SE,130,5.0,8.0,78,0.00,,BKN100,0.00,63.00,VWS V14.01,2013-03-09 14:53:00,
2013-03-09 08:54:00,37.1,31.8,29.23,SE,126,5.0,5.0,81,0.01,,FEW100,0.01,102.00,VWS V14.01,2013-03-09 14:54:00,
2013-03-09 08:55:00,36.4,30.5,29.25,ESE,114,4.0,4.0,79,0.00,,BKN100,0.00,70.00,VWS V14.01,2013-03-09 14:55:00,
2013-03-09 08:56:00,36.4,30.5,29.25,ESE,103,7.0,7.0,79,0.00,,BKN100,0.00,79.00,VWS V14.01,2013-03-09 14:56:00,
2013-03-09 08:57:00,37.1,31.8,29.23,East,94,2.0,5.0,81,0.01,,FEW100,0.01,107.00,VWS V14.01,2013-03-09 14:57:00,
2013-03-09 08:58:00,37.1,31.8,29.22,SE,145,4.0,5.0,81,0.01,,FEW100,0.01,111.00,VWS V14.01,2013-03-09 14:58:00,
2013-03-09 09:00:00,36.4,30.5,29.24,SE,145,6.0,8.0,79,0.00,,BKN100,0.00,91.00,VWS V14.01,2013-03-09 15:00:00,
2013-03-09 09:01:00,36.4,30.5,29.24,SSE,153,4.0,6.0,79,0.00,,CLR,0.00,91.00,VWS V14.01,2013-03-09 15:01:00,
2013-03-09 09:02:00,36.4,30.5,29.24,ESE,118,2.0,7.0,79,0.00,,CLR,0.00,91.00,VWS V14.01,2013-03-09 15:02:00,
2013-03-09 09:03:00,37.2,31.9,29.22,SE,126,0.0,8.0,81,0.01,,FEW100,0.01,113.00,VWS V14.01,2013-03-09 15:03:00,
2013-03-09 09:05:00,37.3,32.0,29.22,NE,44,5.0,8.0,81,0.01,,FEW100,0.01,107.00,VWS V14.01,2013-03-09 15:05:00,
2013-03-09 09:06:00,36.5,30.6,29.24,SE,137,1.0,5.0,79,0.00,,CLR,0.00,79.00,VWS V14.01,2013-03-09 15:06:00,
2013-03-09 09:07:00,37.3,32.0,29.22,ESE,105,6.0,8.0,81,0.01,,FEW100,0.01,100.00,VWS V14.01,2013-03-09 15:07:00,
2013-03-09 09:08:00,36.5,30.6,29.24,ESE,121,2.0,7.0,79,0.00,,CLR,0.00,69.00,VWS V14.01,2013-03-09 15:08:00,
2013-03-09 09:09:00,36.5,30.6,29.24,ESE,115,4.0,11.0,79,0.00,,CLR,0.00,65.00,VWS V14.01,2013-03-09 15:09:00,
2013-03-09 09:10:00,37.3,32.0,29.22,South,184,1.0,11.0,81,0.01,,FEW100,0.01,107.00,VWS V14.01,2013-03-09 15:10:00,
2013-03-09 09:11:00,37.3,32.0,29.22,SE,126,1.0,7.0,81,0.01,,FEW100,0.01,113.00,VWS V14.01,2013-03-09 15:11:00,
2013-03-09 09:12:00,36.5,30.6,29.24,ESE,115,2.0,7.0,79,0.00,,CLR,0.00,60.00,VWS V14.01,2013-03-09 15:12:00,
2013-03-09 09:13:00,37.3,32.0,29.22,ESE,117,4.0,6.0,81,0.01,,FEW100,0.01,118.00,VWS V14.01,2013-03-09 15:13:00,
2013-03-09 09:14:00,36.5,30.6,29.24,ESE,113,2.0,5.0,79,0.00,,CLR,0.00,63.00,VWS V14.01,2013-03-09 15:14:00,
2013-03-09 09:15:00,36.5,30.6,29.23,ESE,111,2.0,4.0,79,0.00,,CLR,0.00,65.00,VWS V14.01,2013-03-09 15:15:00,
2013-03-09 09:16:00,37.4,32.1,29.22,ESE,111,0.0,3.0,81,0.01,,FEW100,0.01,118.00,VWS V14.01,2013-03-09 15:16:00,
2013-03-09 09:17:00,36.5,30.6,29.23,ESE,115,1.0,8.0,79,0.00,,CLR,0.00,72.00,VWS V14.01,2013-03-09 15:17:00,
2013-03-09 09:18:00,37.4,32.1,29.22,SSE,158,5.0,8.0,81,0.01,,FEW100,0.01,118.00,VWS V14.01,2013-03-09 15:18:00,
2013-03-09 09:19:00,37.5,32.2,29.22,ESE,119,1.0,6.0,81,0.01,,FEW100,0.01,123.00,VWS V14.01,2013-03-09 15:19:00,
2013-03-09 09:20:00,37.5,32.2,29.22,ESE,117,2.0,6.0,81,0.00,,FEW100,0.01,130.00,VWS V14.01,2013-03-09 15:20:00,
2013-03-09 09:21:00,36.5,30.9,29.23,SE,132,0.0,5.0,80,0.01,,CLR,0.01,90.00,VWS V14.01,2013-03-09 15:21:00,
2013-03-09 09:22:00,37.5,32.2,29.22,ESE,110,2.0,7.0,81,0.00,,FEW100,0.01,137.00,VWS V14.01,2013-03-09 15:22:00,
2013-03-09 09:23:00,36.5,30.9,29.23,SE,146,4.0,8.0,80,0.01,,CLR,0.01,91.00,VWS V14.01,2013-03-09 15:23:00,
2013-03-09 09:24:00,37.5,32.2,29.22,SSE,148,2.0,5.0,81,0.00,,FEW100,0.01,128.00,VWS V14.01,2013-03-09 15:24:00,
2013-03-09 09:25:00,36.5,30.9,29.23,SE,124,1.0,4.0,80,0.01,,CLR,0.01,104.00,VWS V14.01,2013-03-09 15:25:00,
2013-03-09 09:26:00,36.5,30.9,29.23,ESE,107,2.0,5.0,80,0.01,,CLR,0.01,113.00,VWS V14.01,2013-03-09 15:26:00,
2013-03-09 09:27:00,37.6,32.3,29.21,ESE,114,2.0,5.0,81,0.00,,FEW100,0.01,125.00,VWS V14.01,2013-03-09 15:27:00,
2013-03-09 09:28:00,37.7,32.4,29.21,ESE,118,2.0,5.0,81,0.00,,FEW100,0.01,123.00,VWS V14.01,2013-03-09 15:28:00,
2013-03-09 09:29:00,37.7,32.4,29.21,SE,125,2.0,4.0,81,0.00,,FEW100,0.01,118.00,VWS V14.01,2013-03-09 15:29:00,
2013-03-09 09:30:00,36.6,31.0,29.23,ESE,111,5.0,8.0,80,0.01,,CLR,0.01,149.00,VWS V14.01,2013-03-09 15:30:00,
2013-03-09 09:31:00,36.6,31.0,29.23,ESE,116,1.0,6.0,80,0.01,,CLR,0.01,155.00,VWS V14.01,2013-03-09 15:31:00,
2013-03-09 09:32:00,36.7,31.1,29.23,ESE,106,5.0,6.0,80,0.01,,CLR,0.01,153.00,VWS V14.01,2013-03-09 15:32:00,
2013-03-09 09:33:00,36.7,31.4,29.23,ESE,111,7.0,10.0,81,0.01,,CLR,0.01,148.00,VWS V14.01,2013-03-09 15:33:00,
2013-03-09 09:34:00,37.9,32.3,29.21,SE,133,4.0,10.0,80,0.00,,FEW100,0.01,102.00,VWS V14.01,2013-03-09 15:34:00,
2013-03-09 09:35:00,36.7,31.4,29.23,ESE,121,9.0,9.0,81,0.01,,CLR,0.01,135.00,VWS V14.01,2013-03-09 15:35:00,
2013-03-09 09:36:00,37.9,32.3,29.21,SE,126,1.0,4.0,80,0.00,,FEW100,0.01,95.00,VWS V14.01,2013-03-09 15:36:00,
2013-03-09 09:37:00,37.9,32.3,29.21,East,95,0.0,2.0,80,0.00,,FEW100,0.01,93.00,VWS V14.01,2013-03-09 15:37:00,
2013-03-09 09:38:00,36.8,31.5,29.23,ESE,114,6.0,6.0,81,0.01,,CLR,0.01,111.00,VWS V14.01,2013-03-09 15:38:00,
2013-03-09 09:39:00,36.8,31.5,29.23,ESE,114,2.0,7.0,81,0.01,,CLR,0.01,109.00,VWS V14.01,2013-03-09 15:39:00,
2013-03-09 09:40:00,36.9,31.6,29.23,ESE,102,13.0,13.0,81,0.01,,CLR,0.01,111.00,VWS V14.01,2013-03-09 15:40:00,
2013-03-09 09:41:00,38.0,32.4,29.21,ESE,119,4.0,8.0,80,0.00,,FEW100,0.01,88.00,VWS V14.01,2013-03-09 15:41:00,
2013-03-09 09:42:00,38.0,32.4,29.21,ESE,122,7.0,7.0,80,0.00,,FEW100,0.01,88.00,VWS V14.01,2013-03-09 15:42:00,
2013-03-09 09:43:00,38.0,32.4,29.21,ESE,107,2.0,13.0,80,0.00,,FEW100,0.01,86.00,VWS V14.01,2013-03-09 15:43:00,
2013-03-09 09:44:00,38.0,32.7,29.21,ESE,123,1.0,5.0,81,0.00,,FEW100,0.01,86.00,VWS V14.01,2013-03-09 15:44:00,
2013-03-09 09:45:00,37.0,31.7,29.23,ESE,111,4.0,5.0,81,0.01,,CLR,0.01,120.00,VWS V14.01,2013-03-09 15:45:00,
2013-03-09 09:46:00,37.0,31.7,29.23,ESE,121,2.0,4.0,81,0.01,,CLR,0.01,120.00,VWS V14.01,2013-03-09 15:46:00,
2013-03-09 09:47:00,37.0,31.7,29.23,ESE,119,2.0,9.0,81,0.01,,CLR,0.01,120.00,VWS V14.01,2013-03-09 15:47:00,
2013-03-09 09:48:00,38.0,32.7,29.21,ESE,115,2.0,8.0,81,0.00,,FEW100,0.01,83.00,VWS V14.01,2013-03-09 15:48:00,
2013-03-09 09:49:00,38.0,32.7,29.21,ESE,111,6.0,6.0,81,0.01,,FEW100,0.02,83.00,VWS V14.01,2013-03-09 15:49:00,
2013-03-09 09:50:00,38.0,32.7,29.20,ESE,119,2.0,6.0,81,0.01,,FEW100,0.02,84.00,VWS V14.01,2013-03-09 15:50:00,
2013-03-09 09:51:00,37.0,31.7,29.23,SE,128,2.0,4.0,81,0.01,,CLR,0.01,109.00,VWS V14.01,2013-03-09 15:51:00,
2013-03-09 09:52:00,38.0,32.7,29.20,SSE,148,4.0,7.0,81,0.01,,FEW100,0.02,86.00,VWS V14.01,2013-03-09 15:52:00,
2013-03-09 09:53:00,37.1,31.8,29.23,SE,145,5.0,8.0,81,0.01,,CLR,0.01,104.00,VWS V14.01,2013-03-09 15:53:00,
2013-03-09 09:54:00,38.0,32.7,29.20,East,82,5.0,8.0,81,0.01,,FEW100,0.02,91.00,VWS V14.01,2013-03-09 15:54:00,
2013-03-09 09:55:00,37.1,31.8,29.23,ESE,111,4.0,5.0,81,0.01,,CLR,0.01,104.00,VWS V14.01,2013-03-09 15:55:00,
2013-03-09 09:56:00,38.0,32.7,29.20,ESE,107,0.0,6.0,81,0.01,,FEW100,0.02,95.00,VWS V14.01,2013-03-09 15:56:00,
2013-03-09 09:57:00,37.1,31.8,29.23,East,94,2.0,5.0,81,0.01,,CLR,0.01,107.00,VWS V14.01,2013-03-09 15:57:00,
2013-03-09 09:58:00,37.1,31.8,29.22,SE,145,4.0,5.0,81,0.01,,CLR,0.01,111.00,VWS V14.01,2013-03-09 15:58:00,
2013-03-09 09:59:00,38.0,33.0,29.20,ESE,105,1.0,8.0,82,0.01,,FEW100,0.02,105.00,VWS V14.01,2013-03-09 15:59:00,
2013-03-09 10:00:00,37.9,32.9,29.20,ESE,116,5.0,5.0,82,0.01,,FEW100,0.02,109.00,VWS V14.01,2013-03-09 16:00:00,
2013-03-09 10:01:00,37.1,31.8,29.22,ESE,123,5.0,7.0,81,0.01,,CLR,0.01,120.00,VWS V14.01,2013-03-09 16:01:00,
2013-03-09 10:02:00,38.0,33.0,29.20,ESE,121,1.0,5.0,82,0.01,,FEW100,0.02,116.00,VWS V14.01,2013-03-09 16:02:00,
2013-03-09 10:03:00,37.2,31.9,29.22,SE,126,0.0,8.0,81,0.01,,CLR,0.01,113.00,VWS V14.01,2013-03-09 16:03:00,
2013-03-09 10:04:00,37.2,31.9,29.22,ESE,122,0.0,4.0,81,0.01,,CLR,0.01,113.00,VWS V14.01,2013-03-09 16:04:00,
2013-03-09 10:05:00,38.0,33.0,29.20,SE,142,6.0,6.0,82,0.01,,FEW100,0.02,127.00,VWS V14.01,2013-03-09 16:05:00,
2013-03-09 10:06:00,37.3,32.0,29.22,SE,128,4.0,8.0,81,0.01,,CLR,0.01,102.00,VWS V14.01,2013-03-09 16:06:00,
2013-03-09 10:08:00,38.1,33.1,29.20,SE,140,5.0,9.0,82,0.01,,FEW100,0.02,134.00,VWS V14.01,2013-03-09 16:08:00,
2013-03-09 10:09:00,37.3,32.0,29.22,ESE,115,1.0,5.0,81,0.01,,CLR,0.01,104.00,VWS V14.01,2013-03-09 16:09:00,
2013-03-09 10:11:00,37.3,32.0,29.22,SE,126,1.0,7.0,81,0.01,,CLR,0.01,113.00,VWS V14.01,2013-03-09 16:11:00,
2013-03-09 10:12:00,37.3,32.0,29.22,ESE,121,4.0,11.0,81,0.01,,CLR,0.01,118.00,VWS V14.01,2013-03-09 16:12:00,
2013-03-09 10:13:00,37.3,32.0,29.22,ESE,117,4.0,6.0,81,0.01,,CLR,0.01,118.00,VWS V14.01,2013-03-09 16:13:00,
2013-03-09 10:14:00,38.3,33.3,29.19,SSE,153,4.0,5.0,82,0.01,,FEW100,0.02,153.00,VWS V14.01,2013-03-09 16:14:00,
2013-03-09 10:15:00,38.3,33.3,29.19,SSE,165,2.0,8.0,82,0.01,,FEW100,0.02,158.00,VWS V14.01,2013-03-09 16:15:00,
2013-03-09 10:16:00,37.4,32.1,29.22,ESE,111,0.0,3.0,81,0.01,,CLR,0.01,118.00,VWS V14.01,2013-03-09 16:16:00,
2013-03-09 10:17:00,38.4,33.4,29.18,ESE,105,0.0,3.0,82,0.01,,FEW100,0.02,183.00,VWS V14.01,2013-03-09 16:17:00,
2013-03-09 10:18:00,38.4,33.4,29.18,SSW,193,2.0,2.0,82,0.01,,FEW100,0.02,190.00,VWS V14.01,2013-03-09 16:18:00,
2013-03-09 10:19:00,37.5,32.2,29.22,ESE,119,1.0,6.0,81,0.01,,CLR,0.01,123.00,VWS V14.01,2013-03-09 16:19:00,
2013-03-09 10:20:00,37.5,32.2,29.22,ESE,117,2.0,6.0,81,0.00,,CLR,0.01,130.00,VWS V14.01,2013-03-09 16:20:00,
2013-03-09 10:21:00,38.7,33.7,29.18,ESE,118,1.0,4.0,82,0.01,,FEW100,0.02,197.00,VWS V14.01,2013-03-09 16:21:00,
2013-03-09 10:22:00,38.7,33.7,29.18,SE,126,2.0,7.0,82,0.01,,FEW100,0.02,197.00,VWS V14.01,2013-03-09 16:22:00,
2013-03-09 10:23:00,37.5,32.2,29.22,ESE,106,2.0,12.0,81,0.00,,CLR,0.01,135.00,VWS V14.01,2013-03-09 16:23:00,
2013-03-09 10:24:00,38.9,33.9,29.18,SE,132,1.0,6.0,82,0.01,,FEW100,0.02,199.00,VWS V14.01,2013-03-09 16:24:00,
2013-03-09 10:25:00,37.6,32.3,29.21,SE,132,2.0,5.0,81,0.00,,CLR,0.01,127.00,VWS V14.01,2013-03-09 16:25:00,
2013-03-09 10:26:00,37.6,32.3,29.21,SE,134,4.0,8.0,81,0.00,,CLR,0.01,127.00,VWS V14.01,2013-03-09 16:26:00,
2013-03-09 10:27:00,39.0,33.7,29.17,ESE,117,1.0,11.0,81,0.01,,FEW100,0.02,204.00,VWS V14.01,2013-03-09 16:27:00,
2013-03-09 10:28:00,37.7,32.4,29.21,ESE,118,2.0,5.0,81,0.00,,CLR,0.01,123.00,VWS V14.01,2013-03-09 16:28:00,
2013-03-09 10:29:00,39.1,33.8,29.17,NE,45,4.0,8.0,81,0.01,,FEW100,0.02,221.00,VWS V14.01,2013-03-09 16:29:00,
2013-03-09 10:30:00,39.2,33.9,29.17,ESE,117,4.0,8.0,81,0.01,,FEW100,0.02,230.00,VWS V14.01,2013-03-09 16:30:00,
2013-03-09 10:31:00,37.8,32.5,29.21,East,88,4.0,6.0,81,0.00,,CLR,0.01,109.00,VWS V14.01,2013-03-09 16:31:00,
2013-03-09 10:32:00,39.3,34.0,29.17,ESE,120,2.0,9.0,81,0.01,,FEW100,0.02,248.00,VWS V14.01,2013-03-09 16:32:00,
2013-03-09 10:33:00,37.8,32.5,29.21,SE,140,2.0,4.0,81,0.00,,CLR,0.01,104.00,VWS V14.01,2013-03-09 16:33:00,
2013-03-09 10:34:00,39.4,34.1,29.17,SSE,149,8.0,11.0,81,0.02,,FEW100,0.03,257.00,VWS V14.01,2013-03-09 16:34:00,
2013-03-09 10:35:00,39.5,33.8,29.17,ESE,117,1.0,11.0,80,0.02,,FEW100,0.03,255.00,VWS V14.01,2013-03-09 16:35:00,
2013-03-09 10:36:00,39.5,33.8,29.17,ESE,113,5.0,6.0,80,0.02,,FEW100,0.03,250.00,VWS V14.01,2013-03-09 16:36:00,
2013-03-09 10:37:00,37.9,32.3,29.21,East,95,0.0,2.0,80,0.00,,CLR,0.01,93.00,VWS V14.01,2013-03-09 16:37:00,
2013-03-09 10:38:00,38.0,32.4,29.21,SSW,195,1.0,8.0,80,0.00,,CLR,0.01,90.00,VWS V14.01,2013-03-09 16:38:00,
2013-03-09 10:39:00,39.7,34.0,29.17,SSE,167,1.0,5.0,80,0.02,,FEW100,0.03,221.00,VWS V14.01,2013-03-09 16:39:00,
2013-03-09 10:40:00,38.0,32.4,29.21,SE,138,2.0,2.0,80,0.00,,CLR,0.01,88.00,VWS V14.01,2013-03-09 16:40:00,
2013-03-09 10:41:00,39.9,34.2,29.17,ESE,107,1.0,5.0,80,0.02,,FEW100,0.03,229.00,VWS V14.01,2013-03-09 16:41:00,
2013-03-09 10:42:00,38.0,32.4,29.21,ESE,122,7.0,7.0,80,0.00,,CLR,0.01,88.00,VWS V14.01,2013-03-09 16:42:00,
2013-03-09 10:43:00,40.0,34.3,29.17,ENE,78,5.0,7.0,80,0.02,,FEW100,0.03,264.00,VWS V14.01,2013-03-09 16:43:00,
2013-03-09 10:44:00,38.0,32.7,29.21,ESE,123,1.0,5.0,81,0.00,,CLR,0.01,86.00,VWS V14.01,2013-03-09 16:44:00,
2013-03-09 10:45:00,40.2,34.5,29.16,SE,139,1.0,8.0,80,0.02,,FEW100,0.03,325.00,VWS V14.01,2013-03-09 16:45:00,
2013-03-09 10:46:00,40.2,34.5,29.16,SE,126,1.0,5.0,80,0.02,,FEW100,0.03,325.00,VWS V14.01,2013-03-09 16:46:00,
2013-03-09 10:47:00,38.0,32.7,29.21,ESE,102,1.0,7.0,81,0.00,,CLR,0.01,83.00,VWS V14.01,2013-03-09 16:47:00,
2013-03-09 10:48:00,40.5,34.8,29.16,SE,124,4.0,5.0,80,0.02,,FEW100,0.03,410.00,VWS V14.01,2013-03-09 16:48:00,
2013-03-09 10:49:00,40.6,34.6,29.16,ESE,121,2.0,5.0,79,0.02,,FEW100,0.03,262.00,VWS V14.01,2013-03-09 16:49:00,
2013-03-09 10:50:00,38.0,32.7,29.20,ESE,119,2.0,6.0,81,0.01,,CLR,0.02,84.00,VWS V14.01,2013-03-09 16:50:00,
2013-03-09 10:51:00,38.0,32.7,29.20,SE,127,5.0,5.0,81,0.01,,CLR,0.02,84.00,VWS V14.01,2013-03-09 16:51:00,
2013-03-09 10:52:00,40.8,34.8,29.16,ESE,113,6.0,7.0,79,0.01,,FEW100,0.03,236.00,VWS V14.01,2013-03-09 16:52:00,
2013-03-09 10:53:00,40.9,34.9,29.16,SW,220,5.0,7.0,79,0.01,,FEW100,0.03,237.00,VWS V14.01,2013-03-09 16:53:00,
2013-03-09 10:54:00,40.9,34.6,29.16,ESE,112,2.0,9.0,78,0.01,,FEW100,0.03,244.00,VWS V14.01,2013-03-09 16:54:00,
2013-03-09 10:55:00,41.0,34.7,29.16,SE,132,2.0,5.0,78,0.01,,FEW100,0.03,279.00,VWS V14.01,2013-03-09 16:55:00,
2013-03-09 10:56:00,38.0,32.7,29.20,ESE,107,0.0,6.0,81,0.01,,CLR,0.02,95.00,VWS V14.01,2013-03-09 16:56:00,
2013-03-09 10:57:00,37.9,32.9,29.20,SE,132,5.0,8.0,82,0.01,,CLR,0.02,97.00,VWS V14.01,2013-03-09 16:57:00,
2013-03-09 10:58:00,41.1,34.8,29.16,ESE,122,5.0,12.0,78,0.01,,FEW100,0.03,279.00,VWS V14.01,2013-03-09 16:58:00,
2013-03-09 10:59:00,41.1,34.8,29.16,SW,219,1.0,6.0,78,0.01,,FEW100,0.03,288.00,VWS V14.01,2013-03-09 16:59:00,
2013-03-09 11:00:00,41.1,34.5,29.16,South,171,2.0,6.0,77,0.01,,FEW100,0.03,260.00,VWS V14.01,2013-03-09 17:00:00,
2013-03-09 11:01:00,41.2,34.5,29.16,SE,126,5.0,6.0,77,0.01,,FEW100,0.03,251.00,VWS V14.01,2013-03-09 17:01:00,
2013-03-09 11:02:00,38.0,33.0,29.20,ESE,121,1.0,5.0,82,0.01,,-RA,0.02,116.00,VWS V14.01,2013-03-09 17:02:00,
2013-03-09 11:03:00,38.0,33.0,29.20,East,98,1.0,5.0,82,0.01,,-RA,0.02,120.00,VWS V14.01,2013-03-09 17:03:00,
2013-03-09 11:04:00,41.3,35.0,29.15,SE,136,5.0,7.0,78,0.01,,FEW100,0.03,237.00,VWS V14.01,2013-03-09 17:04:00,
2013-03-09 11:05:00,38.0,33.0,29.20,SE,142,6.0,6.0,82,0.01,,-RA,0.02,127.00,VWS V14.01,2013-03-09 17:05:00,
2013-03-09 11:06:00,38.1,33.1,29.20,ESE,110,1.0,6.0,82,0.01,,-RA,0.02,128.00,VWS V14.01,2013-03-09 17:06:00,
2013-03-09 11:07:00,41.4,34.7,29.15,ESE,110,7.0,7.0,77,0.01,,FEW100,0.03,253.00,VWS V14.01,2013-03-09 17:07:00,
2013-03-09 11:08:00,41.5,34.8,29.15,ESE,120,6.0,11.0,77,0.01,,FEW100,0.03,258.00,VWS V14.01,2013-03-09 17:08:00,
2013-03-09 11:09:00,41.5,34.8,29.15,SE,142,1.0,8.0,77,0.01,,FEW100,0.03,271.00,VWS V14.01,2013-03-09 17:09:00,
2013-03-09 11:10:00,38.2,33.2,29.20,SE,127,0.0,7.0,82,0.01,,-RA,0.02,144.00,VWS V14.01,2013-03-09 17:10:00,
2013-03-09 11:11:00,38.2,33.2,29.19,ESE,121,2.0,4.0,82,0.01,,-RA,0.02,148.00,VWS V14.01,2013-03-09 17:11:00,
2013-03-09 11:12:00,38.2,33.2,29.19,SE,131,4.0,8.0,82,0.01,,-RA,0.02,149.00,VWS V14.01,2013-03-09 17:12:00,
2013-03-09 11:13:00,41.6,34.9,29.15,SE,132,8.0,8.0,77,0.01,,FEW100,0.03,327.00,VWS V14.01,2013-03-09 17:13:00,
2013-03-09 11:14:00,38.3,33.3,29.19,SSE,153,4.0,5.0,82,0.01,,-RA,0.02,153.00,VWS V14.01,2013-03-09 17:14:00,
2013-03-09 11:15:00,38.3,33.3,29.19,SSE,165,2.0,8.0,82,0.01,,-RA,0.02,158.00,VWS V14.01,2013-03-09 17:15:00,
2013-03-09 11:16:00,41.7,35.0,29.15,SE,134,9.0,9.0,77,0.01,,FEW100,0.03,316.00,VWS V14.01,2013-03-09 17:16:00,
2013-03-09 11:17:00,38.4,33.4,29.18,ESE,105,0.0,3.0,82,0.01,,-RA,0.02,183.00,VWS V14.01,2013-03-09 17:17:00,
2013-03-09 11:18:00,41.8,34.8,29.15,ESE,110,7.0,9.0,76,0.01,,FEW100,0.03,297.00,VWS V14.01,2013-03-09 17:18:00,
2013-03-09 11:19:00,41.9,34.9,29.15,South,172,4.0,7.0,76,0.01,,FEW100,0.03,283.00,VWS V14.01,2013-03-09 17:19:00,
2013-03-09 11:20:00,38.6,33.6,29.18,East,101,1.0,9.0,82,0.01,,-RA,0.02,197.00,VWS V14.01,2013-03-09 17:20:00,
2013-03-09 11:21:00,41.9,34.9,29.14,ESE,105,4.0,13.0,76,0.01,,FEW100,0.03,234.00,VWS V14.01,2013-03-09 17:21:00,
2013-03-09 11:22:00,38.7,33.7,29.18,SE,126,2.0,7.0,82,0.01,,-RA,0.02,197.00,VWS V14.01,2013-03-09 17:22:00,
2013-03-09 11:23:00,42.0,35.0,29.15,ESE,118,6.0,7.0,76,0.01,,FEW100,0.03,206.00,VWS V14.01,2013-03-09 17:23:00,
2013-03-09 11:24:00,42.0,34.7,29.14,SSE,153,8.0,9.0,75,0.01,,FEW100,0.03,195.00,VWS V14.01,2013-03-09 17:24:00,
2013-03-09 11:25:00,38.9,33.9,29.17,ESE,122,1.0,9.0,82,0.01,,-RA,0.02,200.00,VWS V14.01,2013-03-09 17:25:00,
2013-03-09 11:26:00,39.0,34.0,29.17,ESE,119,7.0,7.0,82,0.01,,-RA,0.02,200.00,VWS V14.01,2013-03-09 17:26:00,
2013-03-09 11:27:00,39.0,33.7,29.17,ESE,117,1.0,11.0,81,0.01,,-RA,0.02,204.00,VWS V14.01,2013-03-09 17:27:00,
2013-03-09 11:28:00,39.1,33.8,29.17,ESE,110,8.0,8.0,81,0.01,,-RA,0.02,213.00,VWS V14.01,2013-03-09 17:28:00,
2013-03-09 11:29:00,42.0,35.0,29.14,ESE,123,1.0,6.0,76,0.01,,FEW100,0.03,169.00,VWS V14.01,2013-03-09 17:29:00,
2013-03-09 11:30:00,39.2,33.9,29.17,ESE,117,4.0,8.0,81,0.01,,-RA,0.02,230.00,VWS V14.01,2013-03-09 17:30:00,
2013-03-09 11:31:00,42.0,35.0,29.14,ESE,123,1.0,4.0,76,0.01,,FEW100,0.03,178.00,VWS V14.01,2013-03-09 17:31:00,
2013-03-09 11:32:00,39.3,34.0,29.17,ESE,120,2.0,9.0,81,0.01,,-RA,0.02,248.00,VWS V14.01,2013-03-09 17:32:00,
2013-03-09 11:33:00,39.3,34.0,29.17,SSE,165,4.0,8.0,81,0.02,,-RA,0.03,251.00,VWS V14.01,2013-03-09 17:33:00,
2013-03-09 11:34:00,42.0,35.0,29.14,East,87,2.0,9.0,76,0.00,,FEW100,0.03,193.00,VWS V14.01,2013-03-09 17:34:00,
2013-03-09 11:35:00,39.5,33.8,29.17,ESE,117,1.0,11.0,80,0.02,,-RA,0.03,255.00,VWS V14.01,2013-03-09 17:35:00,
2013-03-09 11:36:00,39.5,33.8,29.17,ESE,113,5.0,6.0,80,0.02,,-RA,0.03,250.00,VWS V14.01,2013-03-09 17:36:00,
2013-03-09 11:37:00,42.0,35.0,29.13,SE,128,5.0,5.0,76,0.00,,FEW100,0.03,220.00,VWS V14.01,2013-03-09 17:37:00,
2013-03-09 11:38:00,42.0,35.0,29.13,ESE,120,1.0,8.0,76,0.00,,FEW100,0.03,211.00,VWS V14.01,2013-03-09 17:38:00,
2013-03-09 11:39:00,42.0,35.0,29.14,SE,128,2.0,5.0,76,0.00,,FEW100,0.03,209.00,VWS V14.01,2013-03-09 17:39:00,
2013-03-09 11:40:00,42.0,35.0,29.13,ESE,116,2.0,4.0,76,0.00,,FEW100,0.03,209.00,VWS V14.01,2013-03-09 17:40:00,
2013-03-09 11:41:00,39.9,34.2,29.17,ESE,107,1.0,5.0,80,0.02,,-RA,0.03,229.00,VWS V14.01,2013-03-09 17:41:00,
2013-03-09 11:42:00,40.0,34.3,29.17,East,101,2.0,5.0,80,0.02,,-RA,0.03,237.00,VWS V14.01,2013-03-09 17:42:00,
2013-03-09 11:43:00,42.0,35.0,29.13,ESE,110,7.0,7.0,76,0.00,,FEW100,0.03,218.00,VWS V14.01,2013-03-09 17:43:00,
2013-03-09 11:44:00,42.0,35.0,29.13,SE,146,6.0,9.0,76,0.00,,FEW100,0.03,232.00,VWS V14.01,2013-03-09 17:44:00,
2013-03-09 11:45:00,40.2,34.5,29.16,SE,139,1.0,8.0,80,0.02,,-RA,0.03,325.00,VWS V14.01,2013-03-09 17:45:00,
2013-03-09 11:46:00,42.1,35.1,29.13,SE,138,4.0,8.0,76,0.00,,FEW100,0.03,253.00,VWS V14.01,2013-03-09 17:46:00,
2013-03-09 11:47:00,42.1,35.1,29.13,ESE,119,2.0,7.0,76,0.00,,FEW100,0.03,267.00,VWS V14.01,2013-03-09 17:47:00,
2013-03-09 11:48:00,40.5,34.8,29.16,SE,124,4.0,5.0,80,0.02,,-RA,0.03,410.00,VWS V14.01,2013-03-09 17:48:00,
2013-03-09 11:49:00,40.6,34.6,29.16,ESE,121,2.0,5.0,79,0.02,,-RA,0.03,262.00,VWS V14.01,2013-03-09 17:49:00,
2013-03-09 11:50:00,42.2,35.2,29.12,ESE,113,4.0,7.0,76,0.00,,FEW100,0.03,313.00,VWS V14.01,2013-03-09 17:50:00,
2013-03-09 11:51:00,40.7,34.7,29.16,SE,129,5.0,6.0,79,0.01,,-RA,0.03,237.00,VWS V14.01,2013-03-09 17:51:00,
2013-03-09 11:52:00,42.3,35.3,29.12,ESE,109,7.0,7.0,76,0.00,,FEW100,0.03,304.00,VWS V14.01,2013-03-09 17:52:00,
2013-03-09 11:53:00,40.9,34.9,29.16,SW,220,5.0,7.0,79,0.01,,-RA,0.03,237.00,VWS V14.01,2013-03-09 17:53:00,
2013-03-09 11:54:00,40.9,34.6,29.16,ESE,112,2.0,9.0,78,0.01,,-RA,0.03,244.00,VWS V14.01,2013-03-09 17:54:00,
2013-03-09 11:55:00,42.5,35.5,29.12,SE,132,7.0,7.0,76,0.00,,FEW100,0.03,290.00,VWS V14.01,2013-03-09 17:55:00,
2013-03-09 11:56:00,41.0,34.7,29.16,ESE,114,0.0,7.0,78,0.01,,-RA,0.03,274.00,VWS V14.01,2013-03-09 17:56:00,
2013-03-09 11:57:00,42.5,35.5,29.11,South,171,4.0,7.0,76,0.00,,FEW100,0.03,251.00,VWS V14.01,2013-03-09 17:57:00,
2013-03-09 11:58:00,42.6,35.6,29.11,ESE,122,1.0,6.0,76,0.00,,FEW100,0.03,234.00,VWS V14.01,2013-03-09 17:58:00,
2013-03-09 11:59:00,41.1,34.8,29.16,SW,219,1.0,6.0,78,0.01,,-RA,0.03,288.00,VWS V14.01,2013-03-09 17:59:00,
2013-03-09 12:00:00,42.6,35.6,29.11,SE,140,2.0,7.0,76,0.00,,FEW100,0.03,206.00,VWS V14.01,2013-03-09 18:00:00,
2013-03-09 12:01:00,41.2,34.5,29.16,SE,126,5.0,6.0,77,0.01,,-RA,0.03,251.00,VWS V14.01,2013-03-09 18:01:00,
2013-03-09 12:02:00,42.7,35.7,29.11,SSW,193,3.0,4.0,76,0.00,,FEW100,0.03,188.00,VWS V14.01,2013-03-09 18:02:00,
2013-03-09 12:03:00,41.3,35.0,29.16,ESE,115,1.0,2.0,78,0.01,,-RA,0.03,239.00,VWS V14.01,2013-03-09 18:03:00,
2013-03-09 12:04:00,42.7,35.7,29.11,West,261,3.0,5.0,76,0.00,,FEW100,0.03,186.00,VWS V14.01,2013-03-09 18:04:00,
2013-03-09 12:05:00,41.4,34.7,29.15,ESE,119,6.0,9.0,77,0.01,,-RA,0.03,241.00,VWS V14.01,2013-03-09 18:05:00,
2013-03-09 12:06:00,42.8,35.4,29.11,ESE,118,7.0,10.0,75,0.00,,FEW100,0.03,190.00,VWS V14.01,2013-03-09 18:06:00,
2013-03-09 12:07:00,41.4,34.7,29.15,ESE,110,7.0,7.0,77,0.01,,-RA,0.03,253.00,VWS V14.01,2013-03-09 18:07:00,
2013-03-09 12:08:00,42.8,35.4,29.11,SE,128,5.0,5.0,75,0.00,,FEW100,0.03,192.00,VWS V14.01,2013-03-09 18:08:00,
2013-03-09 12:09:00,42.8,35.4,29.10,SE,146,2.0,5.0,75,0.00,,FEW100,0.03,190.00,VWS V14.01,2013-03-09 18:09:00,
2013-03-09 12:10:00,42.8,35.4,29.10,ESE,120,7.0,8.0,75,0.00,,FEW100,0.03,185.00,VWS V14.01,2013-03-09 18:10:00,
2013-03-09 12:11:00,41.5,34.8,29.15,ESE,109,7.0,9.0,77,0.01,,-RA,0.03,301.00,VWS V14.01,2013-03-09 18:11:00,
2013-03-09 12:12:00,41.6,34.9,29.15,SE,132,4.0,7.0,77,0.01,,-RA,0.03,318.00,VWS V14.01,2013-03-09 18:12:00,
2013-03-09 12:13:00,41.6,34.9,29.15,SE,132,8.0,8.0,77,0.01,,-RA,0.03,327.00,VWS V14.01,2013-03-09 18:13:00,
2013-03-09 12:14:00,42.7,35.7,29.10,SE,137,0.0,5.0,76,0.00,,FEW100,0.03,123.00,VWS V14.01,2013-03-09 18:14:00,
2013-03-09 12:15:00,42.7,35.3,29.10,SE,142,6.0,7.0,75,0.00,,FEW100,0.03,116.00,VWS V14.01,2013-03-09 18:15:00,
2013-03-09 12:16:00,41.7,35.0,29.15,SE,134,9.0,9.0,77,0.01,,-RA,0.03,316.00,VWS V14.01,2013-03-09 18:16:00,
2013-03-09 12:17:00,41.8,35.1,29.15,South,169,4.0,9.0,77,0.01,,-RA,0.03,308.00,VWS V14.01,2013-03-09 18:17:00,
2013-03-09 12:18:00,41.8,34.8,29.15,ESE,110,7.0,9.0,76,0.01,,-RA,0.03,297.00,VWS V14.01,2013-03-09 18:18:00,
2013-03-09 12:19:00,42.5,35.2,29.10,East,95,0.0,8.0,75,0.00,,FEW100,0.03,123.00,VWS V14.01,2013-03-09 18:19:00,
2013-03-09 12:20:00,41.9,34.9,29.15,ESE,121,11.0,11.0,76,0.01,,-RA,0.03,267.00,VWS V14.01,2013-03-09 18:20:00,
2013-03-09 12:21:00,42.4,35.0,29.10,NW,313,3.0,9.0,75,0.00,,FEW100,0.03,139.00,VWS V14.01,2013-03-09 18:21:00,
2013-03-09 12:22:00,42.4,35.0,29.10,SE,126,5.0,6.0,75,0.00,,FEW100,0.03,141.00,VWS V14.01,2013-03-09 18:22:00,
2013-03-09 12:23:00,42.0,35.0,29.15,ESE,118,6.0,7.0,76,0.01,,-RA,0.03,206.00,VWS V14.01,2013-03-09 18:23:00,
2013-03-09 12:24:00,42.3,35.3,29.10,ESE,118,1.0,5.0,76,0.00,,FEW100,0.03,135.00,VWS V14.01,2013-03-09 18:24:00,
2013-03-09 12:25:00,42.0,34.7,29.15,ESE,115,1.0,8.0,75,0.01,,-RA,0.03,186.00,VWS V14.01,2013-03-09 18:25:00,
2013-03-09 12:26:00,42.2,35.2,29.10,ESE,114,5.0,9.0,76,0.00,,FEW100,0.03,128.00,VWS V14.01,2013-03-09 18:26:00,
2013-03-09 12:27:00,42.0,35.0,29.14,ESE,113,2.0,8.0,76,0.01,,-RA,0.03,169.00,VWS V14.01,2013-03-09 18:27:00,
2013-03-09 12:28:00,42.0,35.0,29.14,ESE,122,6.0,7.0,76,0.01,,-RA,0.03,167.00,VWS V14.01,2013-03-09 18:28:00,
2013-03-09 12:29:00,42.2,35.5,29.10,ESE,112,4.0,8.0,77,0.00,,FEW100,0.03,142.00,VWS V14.01,2013-03-09 18:29:00,
2013-03-09 12:30:00,42.2,35.5,29.10,SE,145,4.0,5.0,77,0.00,,FEW100,0.03,146.00,VWS V14.01,2013-03-09 18:30:00,
2013-03-09 12:31:00,42.2,35.5,29.10,SE,141,4.0,7.0,77,0.00,,FEW100,0.03,160.00,VWS V14.01,2013-03-09 18:31:00,
2013-03-09 12:32:00,42.1,35.8,29.10,ESE,111,5.0,8.0,78,0.00,,FEW100,0.03,171.00,VWS V14.01,2013-03-09 18:32:00,
2013-03-09 12:33:00,42.0,35.0,29.14,ESE,119,5.0,8.0,76,0.01,,-RA,0.03,188.00,VWS V14.01,2013-03-09 18:33:00,
2013-03-09 12:34:00,42.0,35.0,29.14,East,87,2.0,9.0,76,0.00,,-RA,0.03,193.00,VWS V14.01,2013-03-09 18:34:00,
2013-03-09 12:35:00,42.1,36.1,29.09,ESE,113,4.0,9.0,79,0.00,,FEW100,0.03,199.00,VWS V14.01,2013-03-09 18:35:00,
2013-03-09 12:36:00,42.1,36.1,29.09,ESE,107,5.0,7.0,79,0.00,,FEW100,0.03,202.00,VWS V14.01,2013-03-09 18:36:00,
2013-03-09 12:37:00,42.0,36.0,29.09,ESE,115,0.0,5.0,79,0.00,,FEW100,0.03,202.00,VWS V14.01,2013-03-09 18:37:00,
2013-03-09 12:38:00,42.0,35.0,29.13,ESE,120,1.0,8.0,76,0.00,,-RA,0.03,211.00,VWS V14.01,2013-03-09 18:38:00,
2013-03-09 12:39:00,42.0,36.0,29.09,South,186,3.0,7.0,79,0.00,,FEW100,0.03,195.00,VWS V14.01,2013-03-09 18:39:00,
2013-03-09 12:40:00,42.0,36.0,29.09,ESE,113,2.0,6.0,79,0.00,,FEW100,0.03,188.00,VWS V14.01,2013-03-09 18:40:00,
2013-03-09 12:41:00,42.0,35.0,29.13,ESE,118,2.0,6.0,76,0.00,,-RA,0.03,209.00,VWS V14.01,2013-03-09 18:41:00,
2013-03-09 12:42:00,42.0,36.3,29.09,ESE,113,5.0,5.0,80,0.00,,FEW100,0.03,171.00,VWS V14.01,2013-03-09 18:42:00,
2013-03-09 12:43:00,42.0,35.0,29.13,ESE,110,7.0,7.0,76,0.00,,-RA,0.03,218.00,VWS V14.01,2013-03-09 18:43:00,
2013-03-09 12:44:00,42.1,36.4,29.09,SE,128,0.0,1.0,80,0.00,,FEW100,0.03,169.00,VWS V14.01,2013-03-09 18:44:00,
2013-03-09 12:45:00,42.1,36.4,29.08,SE,128,0.0,2.0,80,0.00,,FEW100,0.03,169.00,VWS V14.01,2013-03-09 18:45:00,
2013-03-09 12:46:00,42.2,36.5,29.08,East,82,0.0,6.0,80,0.00,,FEW100,0.03,167.00,VWS V14.01,2013-03-09 18:46:00,
2013-03-09 12:47:00,42.2,36.5,29.08,ESE,115,6.0,6.0,80,0.00,,FEW100,0.03,172.00,VWS V14.01,2013-03-09 18:47:00,
2013-03-09 12:48:00,42.2,35.2,29.13,SE,134,1.0,4.0,76,0.00,,-RA,0.03,279.00,VWS V14.01,2013-03-09 18:48:00,
2013-03-09 12:49:00,42.3,36.6,29.08,SE,143,4.0,7.0,80,0.00,,FEW100,0.03,190.00,VWS V14.01,2013-03-09 18:49:00,
2013-03-09 12:50:00,42.2,35.2,29.12,ESE,113,4.0,7.0,76,0.00,,-RA,0.03,313.00,VWS V14.01,2013-03-09 18:50:00,
2013-03-09 12:51:00,42.4,36.7,29.08,SSE,153,4.0,8.0,80,0.00,,FEW100,0.03,174.00,VWS V14.01,2013-03-09 18:51:00,
2013-03-09 12:52:00,42.4,36.7,29.08,ESE,123,0.0,4.0,80,0.00,,FEW100,0.03,167.00,VWS V14.01,2013-03-09 18:52:00,
2013-03-09 12:53:00,42.5,36.8,29.08,SE,129,4.0,5.0,80,0.00,,FEW100,0.03,158.00,VWS V14.01,2013-03-09 18:53:00,
2013-03-09 12:54:00,42.5,36.8,29.08,SSE,148,2.0,6.0,80,0.00,,FEW100,0.03,156.00,VWS V14.01,2013-03-09 18:54:00,
2013-03-09 12:55:00,42.5,35.5,29.12,SE,132,7.0,7.0,76,0.00,,-RA,0.03,290.00,VWS V14.01,2013-03-09 18:55:00,
2013-03-09 12:56:00,42.6,36.6,29.08,South,174,2.0,9.0,79,0.00,,FEW100,0.03,146.00,VWS V14.01,2013-03-09 18:56:00,
2013-03-09 12:57:00,42.7,36.7,29.08,SE,130,4.0,7.0,79,0.00,,FEW100,0.03,142.00,VWS V14.01,2013-03-09 18:57:00,
2013-03-09 12:58:00,42.6,35.6,29.11,ESE,122,1.0,6.0,76,0.00,,-RA,0.03,234.00,VWS V14.01,2013-03-09 18:58:00,
2013-03-09 12:59:00,42.8,36.8,29.08,ESE,111,0.0,7.0,79,0.00,,FEW100,0.03,139.00,VWS V14.01,2013-03-09 18:59:00,
2013-03-09 13:00:00,42.6,35.6,29.11,SE,140,2.0,7.0,76,0.00,,-RA,0.03,206.00,VWS V14.01,2013-03-09 19:00:00,
2013-03-09 13:01:00,42.9,36.8,29.08,SSW,196,1.0,6.0,79,0.00,,FEW100,0.03,179.00,VWS V14.01,2013-03-09 19:01:00,
2013-03-09 13:02:00,42.9,36.8,29.08,ESE,113,4.0,7.0,79,0.00,,FEW100,0.03,178.00,VWS V14.01,2013-03-09 19:02:00,
2013-03-09 13:03:00,42.7,35.7,29.11,ESE,114,0.0,3.0,76,0.00,,SCT070,0.03,186.00,VWS V14.01,2013-03-09 19:03:00,
2013-03-09 13:04:00,43.0,36.6,29.08,SE,126,0.0,4.0,78,0.00,,FEW100,0.03,179.00,VWS V14.01,2013-03-09 19:04:00,
2013-03-09 13:05:00,42.8,35.4,29.10,SE,133,4.0,5.0,75,0.00,,SCT070,0.03,188.00,VWS V14.01,2013-03-09 19:05:00,
2013-03-09 13:06:00,43.1,36.7,29.08,South,176,1.0,6.0,78,0.00,,FEW100,0.03,155.00,VWS V14.01,2013-03-09 19:06:00,
2013-03-09 13:07:00,43.2,36.8,29.08,SSE,157,6.0,14.0,78,0.00,,FEW100,0.03,142.00,VWS V14.01,2013-03-09 19:07:00,
2013-03-09 13:08:00,43.2,36.8,29.08,ESE,110,0.0,6.0,78,0.00,,FEW100,0.03,134.00,VWS V14.01,2013-03-09 19:08:00,
2013-03-09 13:09:00,43.2,36.8,29.07,East,93,1.0,4.0,78,0.00,,FEW100,0.03,123.00,VWS V14.01,2013-03-09 19:09:00,
2013-03-09 13:10:00,42.8,35.4,29.10,ESE,120,7.0,8.0,75,0.00,,SCT070,0.03,185.00,VWS V14.01,2013-03-09 19:10:00,
2013-03-09 13:11:00,42.8,35.4,29.11,SE,126,5.0,11.0,75,0.00,,SCT070,0.03,172.00,VWS V14.01,2013-03-09 19:11:00,
2013-03-09 13:12:00,43.3,36.6,29.07,ESE,122,2.0,4.0,77,0.00,,FEW100,0.03,76.00,VWS V14.01,2013-03-09 19:12:00,
2013-03-09 13:13:00,43.3,36.6,29.07,SE,137,4.0,4.0,77,0.00,,FEW100,0.03,74.00,VWS V14.01,2013-03-09 19:13:00,
2013-03-09 13:14:00,43.3,36.6,29.07,SSE,157,1.0,5.0,77,0.00,,FEW100,0.03,74.00,VWS V14.01,2013-03-09 19:14:00,
2013-03-09 13:15:00,42.7,35.3,29.10,SE,142,6.0,7.0,75,0.00,,SCT070,0.03,116.00,VWS V14.01,2013-03-09 19:15:00,
2013-03-09 13:16:00,43.4,36.7,29.07,SSW,198,4.0,4.0,77,0.00,,FEW100,0.03,74.00,VWS V14.01,2013-03-09 19:16:00,
2013-03-09 13:17:00,43.4,36.7,29.07,SW,219,3.0,5.0,77,0.00,,FEW100,0.03,77.00,VWS V14.01,2013-03-09 19:17:00,
2013-03-09 13:18:00,43.4,36.7,29.07,SSE,165,0.0,5.0,77,0.00,,FEW100,0.03,97.00,VWS V14.01,2013-03-09 19:18:00,
2013-03-09 13:19:00,43.4,36.7,29.07,SSE,163,2.0,8.0,77,0.00,,FEW100,0.03,104.00,VWS V14.01,2013-03-09 19:19:00,
2013-03-09 13:20:00,43.4,36.7,29.07,ESE,105,4.0,8.0,77,0.00,,FEW100,0.03,113.00,VWS V14.01,2013-03-09 19:20:00,
2013-03-09 13:21:00,42.4,35.0,29.10,NW,313,3.0,9.0,75,0.00,,SCT070,0.03,139.00,VWS V14.01,2013-03-09 19:21:00,
2013-03-09 13:22:00,42.4,35.0,29.10,SE,126,5.0,6.0,75,0.00,,SCT070,0.03,141.00,VWS V14.01,2013-03-09 19:22:00,
2013-03-09 13:23:00,43.4,36.7,29.07,South,171,4.0,5.0,77,0.00,,FEW100,0.03,137.00,VWS V14.01,2013-03-09 19:23:00,
2013-03-09 13:24:00,43.4,36.7,29.07,ESE,119,5.0,5.0,77,0.00,,FEW100,0.03,130.00,VWS V14.01,2013-03-09 19:24:00,
2013-03-09 13:25:00,42.3,35.3,29.10,ESE,121,5.0,7.0,76,0.00,,SCT070,0.03,128.00,VWS V14.01,2013-03-09 19:25:00,
2013-03-09 13:26:00,43.4,36.7,29.06,South,173,4.0,6.0,77,0.00,,FEW100,0.03,116.00,VWS V14.01,2013-03-09 19:26:00,
2013-03-09 13:27:00,43.5,36.8,29.06,ESE,123,1.0,5.0,77,0.00,,FEW100,0.03,113.00,VWS V14.01,2013-03-09 19:27:00,
2013-03-09 13:28:00,42.2,35.5,29.10,SE,142,6.0,8.0,77,0.00,,SCT070,0.03,139.00,VWS V14.01,2013-03-09 19:28:00,
2013-03-09 13:29:00,43.5,36.8,29.06,SSE,157,1.0,4.0,77,0.00,,FEW100,0.03,100.00,VWS V14.01,2013-03-09 19:29:00,
2013-03-09 13:30:00,43.5,36.8,29.06,ESE,119,4.0,4.0,77,0.00,,FEW100,0.03,104.00,VWS V14.01,2013-03-09 19:30:00,
2013-03-09 13:31:00,43.5,36.8,29.06,SE,127,0.0,4.0,77,0.00,,FEW100,0.03,109.00,VWS V14.01,2013-03-09 19:31:00,
2013-03-09 13:32:00,42.1,35.8,29.10,ESE,111,5.0,8.0,78,0.00,,SCT070,0.03,171.00,VWS V14.01,2013-03-09 19:32:00,
2013-03-09 13:33:00,42.1,35.8,29.09,South,180,2.0,6.0,78,0.00,,SCT070,0.03,183.00,VWS V14.01,2013-03-09 19:33:00,
2013-03-09 13:34:00,42.1,35.8,29.10,SSE,159,4.0,10.0,78,0.00,,SCT070,0.03,193.00,VWS V14.01,2013-03-09 19:34:00,
2013-03-09 13:35:00,43.6,36.9,29.06,ESE,121,2.0,5.0,77,0.00,,FEW100,0.03,149.00,VWS V14.01,2013-03-09 19:35:00,
2013-03-09 13:36:00,42.1,36.1,29.09,ESE,107,5.0,7.0,79,0.00,,SCT070,0.03,202.00,VWS V14.01,2013-03-09 19:36:00,
2013-03-09 13:37:00,43.7,37.0,29.06,ESE,118,2.0,6.0,77,0.00,,FEW100,0.03,141.00,VWS V14.01,2013-03-09 19:37:00,
2013-03-09 13:38:00,42.0,36.0,29.09,South,184,3.0,7.0,79,0.00,,SCT070,0.03,200.00,VWS V14.01,2013-03-09 19:38:00,
2013-03-09 13:39:00,43.7,36.6,29.06,SSE,157,2.0,5.0,76,0.00,,FEW100,0.03,134.00,VWS V14.01,2013-03-09 19:39:00,
2013-03-09 13:40:00,43.7,36.6,29.06,ESE,119,1.0,9.0,76,0.00,,FEW100,0.03,128.00,VWS V14.01,2013-03-09 19:40:00,
2013-03-09 13:41:00,42.0,36.3,29.09,SE,126,5.0,7.0,80,0.00,,SCT070,0.03,179.00,VWS V14.01,2013-03-09 19:41:00,
2013-03-09 13:42:00,43.7,36.6,29.05,ESE,122,5.0,9.0,76,0.00,,FEW100,0.03,100.00,VWS V14.01,2013-03-09 19:42:00,
2013-03-09 13:43:00,43.8,36.7,29.05,SE,126,5.0,12.0,76,0.00,,FEW100,0.03,98.00,VWS V14.01,2013-03-09 19:43:00,
2013-03-09 13:44:00,42.1,36.4,29.09,SE,128,0.0,1.0,80,0.00,,SCT070,0.03,169.00,VWS V14.01,2013-03-09 19:44:00,
2013-03-09 13:45:00,43.8,36.7,29.05,South,184,7.0,7.0,76,0.00,,FEW100,0.03,104.00,VWS V14.01,2013-03-09 19:45:00,
2013-03-09 13:46:00,42.2,36.5,29.08,East,82,0.0,6.0,80,0.00,,SCT070,0.03,167.00,VWS V14.01,2013-03-09 19:46:00,
2013-03-09 13:47:00,43.8,36.7,29.05,SSE,152,5.0,11.0,76,0.00,,FEW100,0.03,130.00,VWS V14.01,2013-03-09 19:47:00,
2013-03-09 13:48:00,43.8,36.7,29.05,SE,133,1.0,7.0,76,0.00,,FEW100,0.03,148.00,VWS V14.01,2013-03-09 19:48:00,
2013-03-09 13:49:00,42.3,36.6,29.08,SE,143,4.0,7.0,80,0.00,,SCT070,0.03,190.00,VWS V14.01,2013-03-09 19:49:00,
2013-03-09 13:50:00,42.3,36.6,29.08,SSE,149,8.0,11.0,80,0.00,,SCT070,0.03,183.00,VWS V14.01,2013-03-09 19:50:00,
2013-03-09 13:51:00,43.8,36.7,29.05,SSE,154,5.0,8.0,76,0.00,,FEW100,0.03,172.00,VWS V14.01,2013-03-09 19:51:00,
2013-03-09 13:52:00,43.8,36.7,29.05,ESE,117,5.0,11.0,76,0.00,,FEW100,0.03,174.00,VWS V14.01,2013-03-09 19:52:00,
2013-03-09 13:53:00,43.8,36.7,29.05,SSW,193,1.0,8.0,76,0.00,,FEW100,0.03,163.00,VWS V14.01,2013-03-09 19:53:00,
2013-03-09 13:54:00,43.8,36.7,29.05,ESE,109,2.0,5.0,76,0.00,,FEW100,0.03,163.00,VWS V14.01,2013-03-09 19:54:00,
2013-03-09 13:55:00,42.6,36.9,29.08,SE,127,1.0,7.0,80,0.00,,SCT070,0.03,153.00,VWS V14.01,2013-03-09 19:55:00,
2013-03-09 13:56:00,42.6,36.5,29.08,South,174,2.0,9.0,79,0.00,,SCT070,0.03,146.00,VWS V14.01,2013-03-09 19:56:00,
2013-03-09 13:57:00,43.9,36.8,29.05,SSE,157,6.0,6.0,76,0.00,,FEW100,0.03,183.00,VWS V14.01,2013-03-09 19:57:00,
2013-03-09 13:58:00,43.9,36.8,29.04,ESE,113,6.0,6.0,76,0.00,,FEW100,0.03,183.00,VWS V14.01,2013-03-09 19:58:00,
2013-03-09 13:59:00,44.0,36.9,29.05,SE,132,6.0,11.0,76,0.00,,FEW100,0.03,186.00,VWS V14.01,2013-03-09 19:59:00,
2013-03-09 14:00:00,44.0,36.9,29.04,ESE,107,4.0,8.0,76,0.00,,FEW100,0.03,190.00,VWS V14.01,2013-03-09 20:00:00,
2013-03-09 14:01:00,42.9,36.8,29.08,SSW,196,1.0,6.0,79,0.00,,FEW095,0.03,179.00,VWS V14.01,2013-03-09 20:01:00,
2013-03-09 14:02:00,42.9,36.8,29.08,ESE,113,4.0,7.0,79,0.00,,FEW095,0.03,178.00,VWS V14.01,2013-03-09 20:02:00,
2013-03-09 14:03:00,43.0,36.9,29.08,ESE,120,0.0,5.0,79,0.00,,FEW095,0.03,179.00,VWS V14.01,2013-03-09 20:03:00,
2013-03-09 14:04:00,44.1,37.0,29.04,ESE,111,7.0,9.0,76,0.00,,FEW100,0.03,178.00,VWS V14.01,2013-03-09 20:04:00,
2013-03-09 14:05:00,44.1,37.0,29.04,ESE,109,8.0,8.0,76,0.00,,FEW100,0.03,178.00,VWS V14.01,2013-03-09 20:05:00,
2013-03-09 14:06:00,43.1,36.7,29.08,South,176,1.0,6.0,78,0.00,,FEW095,0.03,155.00,VWS V14.01,2013-03-09 20:06:00,
2013-03-09 14:07:00,44.2,37.1,29.04,ESE,117,5.0,8.0,76,0.00,,FEW100,0.03,188.00,VWS V14.01,2013-03-09 20:07:00,
2013-03-09 14:08:00,43.2,36.8,29.08,ESE,110,0.0,6.0,78,0.00,,FEW095,0.03,134.00,VWS V14.01,2013-03-09 20:08:00,
2013-03-09 14:09:00,44.3,37.2,29.04,ESE,117,8.0,8.0,76,0.00,,FEW100,0.03,186.00,VWS V14.01,2013-03-09 20:09:00,
2013-03-09 14:10:00,44.3,37.2,29.04,East,98,1.0,12.0,76,0.00,,FEW100,0.03,186.00,VWS V14.01,2013-03-09 20:10:00,
2013-03-09 14:11:00,44.3,37.2,29.04,East,101,4.0,5.0,76,0.00,,FEW100,0.03,188.00,VWS V14.01,2013-03-09 20:11:00,
2013-03-09 14:12:00,44.4,37.3,29.04,East,88,5.0,11.0,76,0.00,,FEW100,0.03,207.00,VWS V14.01,2013-03-09 20:12:00,
2013-03-09 14:13:00,44.4,37.0,29.04,SW,219,3.0,8.0,75,0.00,,FEW100,0.03,193.00,VWS V14.01,2013-03-09 20:13:00,
2013-03-09 14:14:00,43.3,36.6,29.07,SSE,157,1.0,5.0,77,0.00,,FEW095,0.03,74.00,VWS V14.01,2013-03-09 20:14:00,
2013-03-09 14:15:00,44.5,37.4,29.04,SE,128,2.0,6.0,76,0.00,,FEW100,0.03,204.00,VWS V14.01,2013-03-09 20:15:00,
2013-03-09 14:16:00,43.4,36.7,29.07,SSW,198,4.0,4.0,77,0.00,,FEW095,0.03,74.00,VWS V14.01,2013-03-09 20:16:00,
2013-03-09 14:17:00,44.5,37.4,29.04,SE,136,5.0,9.0,76,0.00,,FEW100,0.03,295.00,VWS V14.01,2013-03-09 20:17:00,
2013-03-09 14:18:00,44.6,37.5,29.04,SE,141,4.0,7.0,76,0.00,,FEW100,0.03,309.00,VWS V14.01,2013-03-09 20:18:00,
2013-03-09 14:19:00,43.4,36.7,29.07,SSE,163,2.0,8.0,77,0.00,,FEW095,0.03,104.00,VWS V14.01,2013-03-09 20:19:00,
2013-03-09 14:20:00,44.7,37.6,29.03,ESE,121,1.0,8.0,76,0.00,,FEW100,0.03,309.00,VWS V14.01,2013-03-09 20:20:00,
2013-03-09 14:21:00,43.4,36.7,29.07,SE,126,4.0,6.0,77,0.00,,FEW095,0.03,125.00,VWS V14.01,2013-03-09 20:21:00,
2013-03-09 14:22:00,43.4,36.7,29.07,SSE,160,0.0,6.0,77,0.00,,FEW095,0.03,132.00,VWS V14.01,2013-03-09 20:22:00,
2013-03-09 14:23:00,44.9,37.5,29.03,South,171,7.0,8.0,75,0.00,,FEW100,0.03,297.00,VWS V14.01,2013-03-09 20:23:00,
2013-03-09 14:24:00,43.4,36.7,29.07,ESE,119,5.0,5.0,77,0.00,,FEW095,0.03,130.00,VWS V14.01,2013-03-09 20:24:00,
2013-03-09 14:25:00,43.4,36.7,29.07,SE,131,1.0,5.0,77,0.00,,FEW095,0.03,121.00,VWS V14.01,2013-03-09 20:25:00,
2013-03-09 14:26:00,45.1,37.7,29.03,SE,126,1.0,9.0,75,0.00,,FEW100,0.03,299.00,VWS V14.01,2013-03-09 20:26:00,
2013-03-09 14:27:00,45.1,37.7,29.03,SE,136,4.0,5.0,75,0.00,,FEW100,0.03,297.00,VWS V14.01,2013-03-09 20:27:00,
2013-03-09 14:28:00,45.2,37.8,29.03,South,172,1.0,8.0,75,0.00,,FEW100,0.03,283.00,VWS V14.01,2013-03-09 20:28:00,
2013-03-09 14:29:00,45.3,37.5,29.03,SE,143,1.0,7.0,74,0.00,,FEW100,0.03,281.00,VWS V14.01,2013-03-09 20:29:00,
2013-03-09 14:30:00,43.5,36.8,29.06,ESE,119,4.0,4.0,77,0.00,,FEW095,0.03,104.00,VWS V14.01,2013-03-09 20:30:00,
2013-03-09 14:31:00,43.5,36.8,29.06,SE,127,0.0,4.0,77,0.00,,FEW095,0.03,109.00,VWS V14.01,2013-03-09 20:31:00,
2013-03-09 14:32:00,43.6,36.9,29.06,ESE,122,7.0,7.0,77,0.00,,FEW095,0.03,111.00,VWS V14.01,2013-03-09 20:32:00,
2013-03-09 14:33:00,45.6,37.8,29.02,SSW,204,4.0,8.0,74,0.00,,FEW100,0.03,227.00,VWS V14.01,2013-03-09 20:33:00,
2013-03-09 14:34:00,45.6,37.8,29.02,ESE,103,8.0,11.0,74,0.00,,FEW100,0.03,239.00,VWS V14.01,2013-03-09 20:34:00,
2013-03-09 14:35:00,43.6,36.9,29.06,ESE,121,2.0,5.0,77,0.00,,FEW095,0.03,149.00,VWS V14.01,2013-03-09 20:35:00,
2013-03-09 14:36:00,43.6,36.9,29.06,ESE,123,1.0,6.0,77,0.00,,FEW095,0.03,146.00,VWS V14.01,2013-03-09 20:36:00,
2013-03-09 14:37:00,43.7,37.0,29.06,ESE,118,2.0,6.0,77,0.00,,FEW095,0.03,141.00,VWS V14.01,2013-03-09 20:37:00,
2013-03-09 14:38:00,45.7,38.2,29.02,SE,128,7.0,8.0,75,0.00,,FEW100,0.03,236.00,VWS V14.01,2013-03-09 20:38:00,
2013-03-09 14:39:00,45.7,38.2,29.02,East,90,2.0,7.0,75,0.00,,FEW100,0.03,230.00,VWS V14.01,2013-03-09 20:39:00,
2013-03-09 14:40:00,45.7,38.2,29.02,SE,135,8.0,13.0,75,0.00,,FEW100,0.03,236.00,VWS V14.01,2013-03-09 20:40:00,
2013-03-09 14:41:00,45.7,37.9,29.02,SE,128,1.0,10.0,74,0.00,,FEW100,0.03,236.00,VWS V14.01,2013-03-09 20:41:00,
2013-03-09 14:42:00,43.7,36.6,29.05,ESE,122,5.0,9.0,76,0.00,,FEW095,0.03,100.00,VWS V14.01,2013-03-09 20:42:00,
2013-03-09 14:43:00,43.8,36.7,29.05,SE,126,5.0,12.0,76,0.00,,FEW095,0.03,98.00,VWS V14.01,2013-03-09 20:43:00,
2013-03-09 14:44:00,45.8,38.0,29.02,ESE,109,1.0,7.0,74,0.00,,FEW100,0.03,234.00,VWS V14.01,2013-03-09 20:44:00,
2013-03-09 14:45:00,45.8,38.0,29.01,ESE,123,4.0,8.0,74,0.00,,FEW100,0.03,229.00,VWS V14.01,2013-03-09 20:45:00,
2013-03-09 14:46:00,45.8,38.0,29.01,SE,126,7.0,11.0,74,0.00,,FEW100,0.03,243.00,VWS V14.01,2013-03-09 20:46:00,
2013-03-09 14:47:00,43.8,36.7,29.05,SSE,152,5.0,11.0,76,0.00,,FEW095,0.03,130.00,VWS V14.01,2013-03-09 20:47:00,
2013-03-09 14:48:00,43.8,36.7,29.05,SE,133,1.0,7.0,76,0.00,,FEW095,0.03,148.00,VWS V14.01,2013-03-09 20:48:00,
2013-03-09 14:49:00,45.9,38.1,29.01,SSW,194,3.0,11.0,74,0.00,,FEW100,0.03,236.00,VWS V14.01,2013-03-09 20:49:00,
2013-03-09 14:50:00,45.9,38.1,29.01,ESE,109,5.0,9.0,74,0.00,,FEW100,0.03,225.00,VWS V14.01,2013-03-09 20:50:00,
2013-03-09 14:51:00,43.8,36.7,29.05,SSE,154,5.0,8.0,76,0.00,,FEW095,0.03,172.00,VWS V14.01,2013-03-09 20:51:00,
2013-03-09 14:52:00,43.8,36.7,29.05,ESE,117,5.0,11.0,76,0.00,,FEW095,0.03,174.00,VWS V14.01,2013-03-09 20:52:00,
2013-03-09 14:53:00,46.0,37.8,29.00,South,186,4.0,9.0,73,0.00,,FEW100,0.03,214.00,VWS V14.01,2013-03-09 20:53:00,
2013-03-09 14:54:00,46.1,38.3,29.00,ESE,119,5.0,11.0,74,0.00,,FEW100,0.03,202.00,VWS V14.01,2013-03-09 20:54:00,
2013-03-09 14:55:00,43.9,36.8,29.05,SE,125,4.0,4.0,76,0.00,,FEW095,0.03,169.00,VWS V14.01,2013-03-09 20:55:00,
2013-03-09 14:56:00,43.9,36.8,29.05,ESE,111,2.0,11.0,76,0.00,,FEW095,0.03,178.00,VWS V14.01,2013-03-09 20:56:00,
2013-03-09 14:57:00,43.9,36.8,29.05,SSE,157,6.0,6.0,76,0.00,,FEW095,0.03,183.00,VWS V14.01,2013-03-09 20:57:00,
2013-03-09 14:58:00,46.2,38.0,29.00,ESE,103,0.0,8.0,73,0.00,,FEW100,0.03,186.00,VWS V14.01,2013-03-09 20:58:00,
2013-03-09 14:59:00,46.2,38.0,29.00,SE,130,2.0,12.0,73,0.00,,FEW100,0.03,174.00,VWS V14.01,2013-03-09 20:59:00,
2013-03-09 15:00:00,46.2,38.0,29.00,ESE,109,2.0,7.0,73,0.00,,FEW100,0.03,172.00,VWS V14.01,2013-03-09 21:00:00,
2013-03-09 15:01:00,46.2,38.0,29.00,SSE,152,2.0,9.0,73,0.00,,FEW100,0.03,172.00,VWS V14.01,2013-03-09 21:01:00,
2013-03-09 15:02:00,44.0,36.9,29.04,ESE,105,5.0,6.0,76,0.00,,BKN050,0.03,181.00,VWS V14.01,2013-03-09 21:02:00,
2013-03-09 15:03:00,46.3,38.1,29.00,SE,124,4.0,5.0,73,0.00,,FEW100,0.03,186.00,VWS V14.01,2013-03-09 21:03:00,
2013-03-09 15:04:00,44.1,37.0,29.04,ESE,111,7.0,9.0,76,0.00,,BKN050,0.03,178.00,VWS V14.01,2013-03-09 21:04:00,
2013-03-09 15:05:00,44.1,37.0,29.04,ESE,109,8.0,8.0,76,0.00,,BKN050,0.03,178.00,VWS V14.01,2013-03-09 21:05:00,
2013-03-09 15:06:00,46.3,38.1,29.00,SE,135,8.0,11.0,73,0.00,,FEW100,0.03,163.00,VWS V14.01,2013-03-09 21:06:00,
2013-03-09 15:07:00,44.2,37.1,29.04,ESE,117,5.0,8.0,76,0.00,,BKN050,0.03,188.00,VWS V14.01,2013-03-09 21:07:00,
2013-03-09 15:08:00,46.3,38.1,29.00,ESE,113,2.0,7.0,73,0.00,,FEW100,0.03,167.00,VWS V14.01,2013-03-09 21:08:00,
2013-03-09 15:09:00,46.4,38.2,29.00,SSW,196,2.0,6.0,73,0.00,,FEW100,0.03,179.00,VWS V14.01,2013-03-09 21:09:00,
2013-03-09 15:10:00,44.3,37.2,29.04,East,98,1.0,12.0,76,0.00,,BKN050,0.03,186.00,VWS V14.01,2013-03-09 21:10:00,
2013-03-09 15:11:00,44.3,37.2,29.04,East,101,4.0,5.0,76,0.00,,BKN050,0.03,188.00,VWS V14.01,2013-03-09 21:11:00,
2013-03-09 15:12:00,46.4,38.6,29.00,South,172,4.0,11.0,74,0.00,,FEW100,0.03,171.00,VWS V14.01,2013-03-09 21:12:00,
2013-03-09 15:13:00,44.4,37.0,29.04,SW,219,3.0,8.0,75,0.00,,BKN050,0.03,193.00,VWS V14.01,2013-03-09 21:13:00,
2013-03-09 15:14:00,46.5,38.7,29.00,ESE,123,2.0,6.0,74,0.00,,FEW100,0.03,183.00,VWS V14.01,2013-03-09 21:14:00,
2013-03-09 15:15:00,46.5,38.7,29.00,SE,144,5.0,7.0,74,0.00,,FEW100,0.03,172.00,VWS V14.01,2013-03-09 21:15:00,
2013-03-09 15:16:00,44.5,37.4,29.04,SE,128,9.0,9.0,76,0.00,,BKN050,0.03,281.00,VWS V14.01,2013-03-09 21:16:00,
2013-03-09 15:17:00,44.5,37.4,29.04,SE,136,5.0,9.0,76,0.00,,BKN050,0.03,295.00,VWS V14.01,2013-03-09 21:17:00,
2013-03-09 15:18:00,46.5,38.7,29.00,SE,142,4.0,10.0,74,0.00,,FEW100,0.03,174.00,VWS V14.01,2013-03-09 21:18:00,
2013-03-09 15:19:00,46.6,38.8,29.00,ESE,106,5.0,8.0,74,0.00,,FEW100,0.03,172.00,VWS V14.01,2013-03-09 21:19:00,
2013-03-09 15:20:00,44.7,37.6,29.03,ESE,121,1.0,8.0,76,0.00,,BKN050,0.03,309.00,VWS V14.01,2013-03-09 21:20:00,
2013-03-09 15:21:00,46.6,38.8,29.00,East,96,11.0,13.0,74,0.00,,FEW100,0.03,185.00,VWS V14.01,2013-03-09 21:21:00,
2013-03-09 15:22:00,44.8,37.7,29.03,SE,145,6.0,9.0,76,0.00,,BKN050,0.03,304.00,VWS V14.01,2013-03-09 21:22:00,
2013-03-09 15:23:00,44.9,37.5,29.03,South,171,7.0,8.0,75,0.00,,BKN050,0.03,297.00,VWS V14.01,2013-03-09 21:23:00,
2013-03-09 15:24:00,46.7,38.9,28.99,ENE,78,6.0,9.0,74,0.00,,FEW100,0.03,186.00,VWS V14.01,2013-03-09 21:24:00,
2013-03-09 15:25:00,46.7,38.9,28.99,SE,137,1.0,7.0,74,0.00,,FEW100,0.03,192.00,VWS V14.01,2013-03-09 21:25:00,
2013-03-09 15:26:00,46.7,38.9,28.99,SE,128,2.0,9.0,74,0.00,,FEW100,0.03,206.00,VWS V14.01,2013-03-09 21:26:00,
2013-03-09 15:27:00,46.7,38.9,28.99,SE,132,7.0,11.0,74,0.00,,FEW100,0.03,209.00,VWS V14.01,2013-03-09 21:27:00,
2013-03-09 15:28:00,45.2,37.8,29.03,South,172,1.0,8.0,75,0.00,,BKN050,0.03,283.00,VWS V14.01,2013-03-09 21:28:00,
2013-03-09 15:29:00,45.3,37.5,29.03,SE,143,1.0,7.0,74,0.00,,BKN050,0.03,281.00,VWS V14.01,2013-03-09 21:29:00,
2013-03-09 15:30:00,46.9,39.4,28.99,SE,133,1.0,11.0,75,0.00,,FEW100,0.03,216.00,VWS V14.01,2013-03-09 21:30:00,
2013-03-09 15:31:00,46.9,39.4,28.99,East,101,2.0,7.0,75,0.00,,FEW100,0.03,206.00,VWS V14.01,2013-03-09 21:31:00,
2013-03-09 15:32:00,47.0,39.5,28.99,SE,134,2.0,9.0,75,0.00,,FEW100,0.03,197.00,VWS V14.01,2013-03-09 21:32:00,
2013-03-09 15:33:00,45.6,37.8,29.02,SSW,204,4.0,8.0,74,0.00,,BKN050,0.03,227.00,VWS V14.01,2013-03-09 21:33:00,
2013-03-09 15:34:00,47.0,39.5,28.99,SE,135,4.0,6.0,75,0.00,,FEW100,0.03,195.00,VWS V14.01,2013-03-09 21:34:00,
2013-03-09 15:35:00,45.6,37.8,29.02,South,171,2.0,8.0,74,0.00,,BKN050,0.03,239.00,VWS V14.01,2013-03-09 21:35:00,
2013-03-09 15:36:00,47.2,39.7,28.99,ESE,107,6.0,8.0,75,0.00,,FEW100,0.03,151.00,VWS V14.01,2013-03-09 21:36:00,
2013-03-09 15:37:00,45.6,38.2,29.02,ESE,105,4.0,7.0,75,0.00,,BKN050,0.03,237.00,VWS V14.01,2013-03-09 21:37:00,
2013-03-09 15:38:00,47.3,39.8,28.99,ESE,103,6.0,12.0,75,0.00,,FEW100,0.03,146.00,VWS V14.01,2013-03-09 21:38:00,
2013-03-09 15:39:00,47.3,39.8,28.99,SE,126,4.0,9.0,75,0.00,,FEW100,0.03,149.00,VWS V14.01,2013-03-09 21:39:00,
2013-03-09 15:40:00,45.7,38.2,29.02,SE,135,8.0,13.0,75,0.00,,BKN050,0.03,236.00,VWS V14.01,2013-03-09 21:40:00,
2013-03-09 15:41:00,47.4,39.5,28.99,ESE,120,4.0,7.0,74,0.00,,FEW100,0.03,128.00,VWS V14.01,2013-03-09 21:41:00,
2013-03-09 15:42:00,47.4,39.5,28.99,ESE,116,4.0,4.0,74,0.00,,FEW100,0.03,121.00,VWS V14.01,2013-03-09 21:42:00,
2013-03-09 15:43:00,45.7,37.9,29.02,SE,142,4.0,7.0,74,0.00,,BKN050,0.03,239.00,VWS V14.01,2013-03-09 21:43:00,
2013-03-09 15:44:00,47.4,39.5,28.98,East,94,6.0,12.0,74,0.00,,FEW100,0.03,105.00,VWS V14.01,2013-03-09 21:44:00,
2013-03-09 15:45:00,45.8,38.0,29.01,ESE,123,4.0,8.0,74,0.00,,BKN050,0.03,229.00,VWS V14.01,2013-03-09 21:45:00,
2013-03-09 15:46:00,47.4,39.5,28.99,ESE,119,5.0,8.0,74,0.00,,FEW100,0.03,95.00,VWS V14.01,2013-03-09 21:46:00,
2013-03-09 15:47:00,45.8,38.0,29.01,ESE,122,4.0,9.0,74,0.00,,BKN050,0.03,251.00,VWS V14.01,2013-03-09 21:47:00,
2013-03-09 15:48:00,45.9,38.1,29.01,SE,125,8.0,10.0,74,0.00,,BKN050,0.03,250.00,VWS V14.01,2013-03-09 21:48:00,
2013-03-09 15:49:00,47.5,39.6,28.99,SE,133,4.0,12.0,74,0.00,,FEW100,0.03,81.00,VWS V14.01,2013-03-09 21:49:00,
2013-03-09 15:50:00,47.5,39.6,28.99,East,101,2.0,4.0,74,0.00,,FEW100,0.03,74.00,VWS V14.01,2013-03-09 21:50:00,
2013-03-09 15:51:00,46.0,38.2,29.01,East,90,4.0,5.0,74,0.00,,BKN050,0.03,223.00,VWS V14.01,2013-03-09 21:51:00,
2013-03-09 15:52:00,46.0,38.2,29.00,ESE,103,5.0,8.0,74,0.00,,BKN050,0.03,223.00,VWS V14.01,2013-03-09 21:52:00,
2013-03-09 15:53:00,46.0,37.8,29.00,South,186,4.0,9.0,73,0.00,,BKN050,0.03,214.00,VWS V14.01,2013-03-09 21:53:00,
2013-03-09 15:54:00,47.5,39.6,28.99,ESE,105,7.0,11.0,74,0.00,,FEW100,0.03,65.00,VWS V14.01,2013-03-09 21:54:00,
2013-03-09 15:55:00,46.1,37.9,29.00,SE,137,4.0,8.0,73,0.00,,BKN050,0.03,209.00,VWS V14.01,2013-03-09 21:55:00,
2013-03-09 15:56:00,46.1,37.9,29.01,SSE,165,10.0,10.0,73,0.00,,BKN050,0.03,206.00,VWS V14.01,2013-03-09 21:56:00,
2013-03-09 15:57:00,47.5,39.6,28.99,ESE,111,2.0,15.0,74,0.00,,FEW100,0.03,62.00,VWS V14.01,2013-03-09 21:57:00,
2013-03-09 15:58:00,46.2,38.0,29.00,ESE,103,0.0,8.0,73,0.00,,BKN050,0.03,186.00,VWS V14.01,2013-03-09 21:58:00,
2013-03-09 15:59:00,47.5,39.6,28.99,SE,134,2.0,8.0,74,0.00,,FEW100,0.03,58.00,VWS V14.01,2013-03-09 21:59:00,
2013-03-09 16:00:00,47.4,39.5,28.99,SSW,199,4.0,8.0,74,0.00,,FEW100,0.03,56.00,VWS V14.01,2013-03-09 22:00:00,
2013-03-09 16:01:00,47.4,39.5,28.99,SSE,163,1.0,6.0,74,0.00,,FEW100,0.03,54.00,VWS V14.01,2013-03-09 22:01:00,
2013-03-09 16:02:00,47.4,39.5,28.99,SE,145,1.0,5.0,74,0.00,,FEW100,0.03,51.00,VWS V14.01,2013-03-09 22:02:00,
2013-03-09 16:04:00,46.3,38.1,29.00,SE,141,10.0,11.0,73,0.00,,BKN,0.03,174.00,VWS V14.01,2013-03-09 22:04:00,
2013-03-09 16:05:00,46.3,38.1,29.00,ESE,120,6.0,10.0,73,0.00,,BKN,0.03,178.00,VWS V14.01,2013-03-09 22:05:00,
2013-03-09 16:06:00,47.4,39.5,28.99,ESE,107,6.0,9.0,74,0.00,,FEW100,0.03,44.00,VWS V14.01,2013-03-09 22:06:00,
2013-03-09 16:07:00,47.4,39.5,28.99,ESE,117,5.0,13.0,74,0.00,,FEW100,0.03,42.00,VWS V14.01,2013-03-09 22:07:00,
2013-03-09 16:08:00,47.4,39.5,28.99,SE,125,4.0,5.0,74,0.00,,FEW100,0.03,42.00,VWS V14.01,2013-03-09 22:08:00,
2013-03-09 16:09:00,46.4,38.2,29.00,SSW,196,2.0,6.0,73,0.00,,BKN,0.03,179.00,VWS V14.01,2013-03-09 22:09:00,
2013-03-09 16:10:00,46.4,38.2,29.00,SE,142,5.0,9.0,73,0.00,,BKN,0.03,181.00,VWS V14.01,2013-03-09 22:10:00,
2013-03-09 16:11:00,46.4,38.6,29.00,East,98,4.0,9.0,74,0.00,,BKN,0.03,171.00,VWS V14.01,2013-03-09 22:11:00,
2013-03-09 16:12:00,46.4,38.6,29.00,South,172,4.0,11.0,74,0.00,,BKN,0.03,171.00,VWS V14.01,2013-03-09 22:12:00,
2013-03-09 16:13:00,47.3,39.8,28.99,ESE,121,5.0,5.0,75,0.00,,FEW100,0.03,46.00,VWS V14.01,2013-03-09 22:13:00,
2013-03-09 16:14:00,47.3,39.8,28.99,SSE,161,0.0,5.0,75,0.00,,FEW100,0.03,46.00,VWS V14.01,2013-03-09 22:14:00,
2013-03-09 16:15:00,47.3,39.8,28.99,SE,132,4.0,5.0,75,0.00,,FEW100,0.03,49.00,VWS V14.01,2013-03-09 22:15:00,
2013-03-09 16:16:00,46.5,38.7,29.00,SE,133,5.0,9.0,74,0.00,,BKN,0.03,171.00,VWS V14.01,2013-03-09 22:16:00,
2013-03-09 16:17:00,46.5,38.7,29.00,ESE,110,1.0,5.0,74,0.00,,BKN,0.03,169.00,VWS V14.01,2013-03-09 22:17:00,
2013-03-09 16:18:00,47.3,39.8,28.99,SE,142,6.0,14.0,75,0.00,,FEW100,0.03,44.00,VWS V14.01,2013-03-09 22:18:00,
2013-03-09 16:19:00,47.3,39.8,28.99,South,188,4.0,7.0,75,0.00,,FEW100,0.03,44.00,VWS V14.01,2013-03-09 22:19:00,
2013-03-09 16:20:00,46.6,38.8,29.00,East,99,11.0,14.0,74,0.00,,BKN,0.03,169.00,VWS V14.01,2013-03-09 22:20:00,
2013-03-09 16:21:00,47.4,39.9,28.99,ESE,108,4.0,8.0,75,0.00,,FEW100,0.03,46.00,VWS V14.01,2013-03-09 22:21:00,
2013-03-09 16:22:00,47.4,39.5,28.99,SE,142,5.0,15.0,74,0.00,,FEW100,0.03,47.00,VWS V14.01,2013-03-09 22:22:00,
2013-03-09 16:23:00,46.6,38.8,28.99,SE,133,1.0,6.0,74,0.00,,BKN,0.03,172.00,VWS V14.01,2013-03-09 22:23:00,
2013-03-09 16:24:00,46.7,38.9,28.99,ENE,78,6.0,9.0,74,0.00,,BKN,0.03,186.00,VWS V14.01,2013-03-09 22:24:00,
2013-03-09 16:25:00,47.4,39.5,28.99,East,100,5.0,12.0,74,0.00,,FEW100,0.03,44.00,VWS V14.01,2013-03-09 22:25:00,
2013-03-09 16:26:00,47.4,39.5,28.99,SSE,149,4.0,8.0,74,0.00,,FEW100,0.03,44.00,VWS V14.01,2013-03-09 22:26:00,
2013-03-09 16:27:00,47.5,39.6,28.98,SSW,208,4.0,5.0,74,0.00,,FEW100,0.03,42.00,VWS V14.01,2013-03-09 22:27:00,
2013-03-09 16:28:00,46.8,39.0,28.98,ESE,107,4.0,10.0,74,0.00,,BKN,0.03,216.00,VWS V14.01,2013-03-09 22:28:00,
2013-03-09 16:29:00,46.8,39.0,28.98,ESE,113,0.0,11.0,74,0.00,,BKN,0.03,218.00,VWS V14.01,2013-03-09 22:29:00,
2013-03-09 16:30:00,47.4,39.5,28.98,SE,132,4.0,13.0,74,0.00,,FEW100,0.03,40.00,VWS V14.01,2013-03-09 22:30:00,
2013-03-09 16:31:00,47.4,39.5,28.98,ESE,122,5.0,6.0,74,0.00,,FEW100,0.03,39.00,VWS V14.01,2013-03-09 22:31:00,
2013-03-09 16:32:00,47.0,39.5,28.99,SE,134,2.0,9.0,75,0.00,,BKN,0.03,197.00,VWS V14.01,2013-03-09 22:32:00,
2013-03-09 16:33:00,47.0,39.5,28.99,SSE,164,5.0,7.0,75,0.00,,BKN,0.03,197.00,VWS V14.01,2013-03-09 22:33:00,
2013-03-09 16:34:00,47.4,39.5,28.99,SE,124,2.0,7.0,74,0.00,,FEW100,0.03,33.00,VWS V14.01,2013-03-09 22:34:00,
2013-03-09 16:35:00,47.4,39.5,28.99,SE,144,1.0,5.0,74,0.00,,FEW100,0.03,32.00,VWS V14.01,2013-03-09 22:35:00,
2013-03-09 16:36:00,47.2,39.7,28.99,ESE,107,6.0,8.0,75,0.00,,BKN,0.03,151.00,VWS V14.01,2013-03-09 22:36:00,
2013-03-09 16:37:00,47.2,39.7,28.99,SSE,157,2.0,6.0,75,0.00,,BKN,0.03,141.00,VWS V14.01,2013-03-09 22:37:00,
2013-03-09 16:38:00,47.3,39.8,28.99,ESE,103,6.0,12.0,75,0.00,,BKN,0.03,146.00,VWS V14.01,2013-03-09 22:38:00,
2013-03-09 16:39:00,47.4,39.5,28.99,SSE,167,5.0,8.0,74,0.00,,FEW100,0.03,26.00,VWS V14.01,2013-03-09 22:39:00,
2013-03-09 16:40:00,47.4,39.5,28.99,ESE,115,4.0,9.0,74,0.00,,FEW100,0.03,25.00,VWS V14.01,2013-03-09 22:40:00,
2013-03-09 16:41:00,47.4,39.5,28.99,SE,142,5.0,9.0,74,0.00,,FEW100,0.03,25.00,VWS V14.01,2013-03-09 22:41:00,
2013-03-09 16:42:00,47.4,39.5,28.99,ESE,116,4.0,4.0,74,0.00,,BKN,0.03,121.00,VWS V14.01,2013-03-09 22:42:00,
2013-03-09 16:43:00,47.4,39.5,28.98,ESE,115,4.0,16.0,74,0.00,,BKN,0.03,116.00,VWS V14.01,2013-03-09 22:43:00,
2013-03-09 16:44:00,47.4,39.5,28.98,East,94,6.0,12.0,74,0.00,,BKN,0.03,105.00,VWS V14.01,2013-03-09 22:44:00,
2013-03-09 16:45:00,47.4,39.5,28.99,ESE,109,4.0,5.0,74,0.00,,FEW100,0.03,21.00,VWS V14.01,2013-03-09 22:45:00,
2013-03-09 16:46:00,47.3,39.4,28.99,South,186,0.0,7.0,74,0.00,,FEW100,0.03,21.00,VWS V14.01,2013-03-09 22:46:00,
2013-03-09 16:47:00,47.5,39.6,28.99,SE,134,2.0,11.0,74,0.00,,BKN,0.03,91.00,VWS V14.01,2013-03-09 22:47:00,
2013-03-09 16:48:00,47.5,39.6,28.99,ESE,123,2.0,7.0,74,0.00,,BKN,0.03,86.00,VWS V14.01,2013-03-09 22:48:00,
2013-03-09 16:49:00,47.5,39.6,28.99,SE,133,4.0,12.0,74,0.00,,BKN,0.03,81.00,VWS V14.01,2013-03-09 22:49:00,
2013-03-09 16:50:00,47.3,39.4,28.99,ESE,117,2.0,9.0,74,0.00,,FEW100,0.03,14.00,VWS V14.01,2013-03-09 22:50:00,
2013-03-09 16:51:00,47.5,39.6,28.99,ESE,123,2.0,5.0,74,0.00,,BKN,0.03,70.00,VWS V14.01,2013-03-09 22:51:00,
2013-03-09 16:52:00,47.5,39.6,28.99,ESE,123,1.0,6.0,74,0.00,,BKN,0.03,69.00,VWS V14.01,2013-03-09 22:52:00,
2013-03-09 16:53:00,47.5,39.6,28.99,South,173,4.0,6.0,74,0.00,,BKN,0.03,67.00,VWS V14.01,2013-03-09 22:53:00,
2013-03-09 16:54:00,47.2,39.7,28.99,SSE,151,1.0,5.0,75,0.00,,FEW100,0.03,5.00,VWS V14.01,2013-03-09 22:54:00,
2013-03-09 16:55:00,47.2,39.7,28.99,SE,125,2.0,6.0,75,0.00,,FEW100,0.03,5.00,VWS V14.01,2013-03-09 22:55:00,
2013-03-09 16:56:00,47.5,39.6,28.99,ESE,123,1.0,6.0,74,0.00,,BKN,0.03,62.00,VWS V14.01,2013-03-09 22:56:00,
2013-03-09 16:57:00,47.2,39.7,28.99,ESE,121,1.0,9.0,75,0.00,,FEW100,0.03,0.00,VWS V14.01,2013-03-09 22:57:00,
2013-03-09 16:59:00,47.5,39.6,28.99,SE,134,2.0,8.0,74,0.00,,BKN,0.03,58.00,VWS V14.01,2013-03-09 22:59:00,
2013-03-09 17:00:00,47.1,39.6,28.99,ESE,121,2.0,7.0,75,0.00,,FEW100,0.03,0.00,VWS V14.01,2013-03-09 23:00:00,
2013-03-09 17:01:00,47.4,39.5,28.99,SSE,163,1.0,6.0,74,0.00,,CLR,0.03,54.00,VWS V14.01,2013-03-09 23:01:00,
2013-03-09 17:03:00,47.4,39.5,28.99,South,172,7.0,13.0,74,0.00,,CLR,0.03,49.00,VWS V14.01,2013-03-09 23:03:00,
2013-03-09 17:04:00,47.4,39.5,28.99,SSE,159,8.0,11.0,74,0.00,,CLR,0.03,47.00,VWS V14.01,2013-03-09 23:04:00,
2013-03-09 17:05:00,47.4,39.5,28.99,SSE,165,4.0,11.0,74,0.00,,CLR,0.03,46.00,VWS V14.01,2013-03-09 23:05:00,
2013-03-09 17:06:00,46.8,39.7,28.99,East,86,3.0,8.0,76,0.00,,FEW100,0.03,0.00,VWS V14.01,2013-03-09 23:06:00,
2013-03-09 17:07:00,46.8,39.7,28.99,SSW,201,4.0,8.0,76,0.00,,FEW100,0.03,0.00,VWS V14.01,2013-03-09 23:07:00,
2013-03-09 17:09:00,47.3,39.5,28.99,ESE,113,2.0,7.0,74,0.00,,CLR,0.03,42.00,VWS V14.01,2013-03-09 23:09:00,
2013-03-09 17:10:00,47.3,39.5,28.99,SSE,167,5.0,9.0,74,0.00,,CLR,0.03,42.00,VWS V14.01,2013-03-09 23:10:00,
2013-03-09 17:11:00,47.3,39.5,28.99,ESE,106,6.0,8.0,74,0.00,,CLR,0.03,44.00,VWS V14.01,2013-03-09 23:11:00,
2013-03-09 17:13:00,47.3,39.8,28.99,ESE,121,5.0,5.0,75,0.00,,CLR,0.03,46.00,VWS V14.01,2013-03-09 23:13:00,
2013-03-09 17:14:00,46.5,39.3,28.99,ESE,123,1.0,6.0,76,0.00,,FEW100,0.03,0.00,VWS V14.01,2013-03-09 23:14:00,
2013-03-09 17:15:00,46.4,39.3,28.99,ENE,68,2.0,4.0,76,0.00,,FEW100,0.03,0.00,VWS V14.01,2013-03-09 23:15:00,
2013-03-09 17:16:00,47.3,39.8,28.99,SSE,153,5.0,7.0,75,0.00,,CLR,0.03,47.00,VWS V14.01,2013-03-09 23:16:00,
2013-03-09 17:18:00,47.3,39.8,28.99,SE,142,6.0,14.0,75,0.00,,CLR,0.03,44.00,VWS V14.01,2013-03-09 23:18:00,
2013-03-09 17:19:00,47.3,39.8,28.99,South,188,4.0,7.0,75,0.00,,CLR,0.03,44.00,VWS V14.01,2013-03-09 23:19:00,
2013-03-09 17:20:00,46.2,39.1,28.99,ESE,107,2.0,6.0,76,0.00,,FEW100,0.03,0.00,VWS V14.01,2013-03-09 23:20:00,
2013-03-09 17:22:00,46.2,39.4,28.99,SE,135,7.0,9.0,77,0.00,,FEW100,0.03,0.00,VWS V14.01,2013-03-09 23:22:00,
2013-03-09 17:23:00,47.4,39.5,28.99,SE,132,2.0,5.0,74,0.00,,CLR,0.03,51.00,VWS V14.01,2013-03-09 23:23:00,
2013-03-09 17:24:00,47.4,39.5,28.99,ESE,117,2.0,8.0,74,0.00,,CLR,0.03,49.00,VWS V14.01,2013-03-09 23:24:00,
2013-03-09 17:25:00,46.1,39.3,28.99,ENE,78,2.0,5.0,77,0.00,,FEW100,0.03,0.00,VWS V14.01,2013-03-09 23:25:00,
2013-03-09 17:26:00,47.4,39.5,28.99,SSE,149,4.0,8.0,74,0.00,,CLR,0.03,44.00,VWS V14.01,2013-03-09 23:26:00,
2013-03-09 17:27:00,46.1,39.3,28.99,ESE,110,5.0,6.0,77,0.00,,FEW100,0.03,0.00,VWS V14.01,2013-03-09 23:27:00,
2013-03-09 17:29:00,47.5,39.6,28.98,SE,128,0.0,5.0,74,0.00,,CLR,0.03,42.00,VWS V14.01,2013-03-09 23:29:00,
2013-03-09 17:30:00,47.4,39.5,28.98,SE,132,4.0,13.0,74,0.00,,CLR,0.03,40.00,VWS V14.01,2013-03-09 23:30:00,
2013-03-09 17:31:00,47.4,39.5,28.98,ESE,122,5.0,6.0,74,0.00,,CLR,0.03,39.00,VWS V14.01,2013-03-09 23:31:00,
2013-03-09 17:32:00,47.4,39.5,28.98,ESE,114,5.0,7.0,74,0.00,,CLR,0.03,37.00,VWS V14.01,2013-03-09 23:32:00,
2013-03-09 17:33:00,46.2,39.1,28.98,SSE,161,2.0,6.0,76,0.00,,FEW100,0.03,0.00,VWS V14.01,2013-03-09 23:33:00,
2013-03-09 17:36:00,47.4,39.5,28.99,ESE,120,0.0,5.0,74,0.00,,CLR,0.03,32.00,VWS V14.01,2013-03-09 23:36:00,
2013-03-09 17:37:00,47.4,39.5,28.99,SE,134,2.0,4.0,74,0.00,,CLR,0.03,28.00,VWS V14.01,2013-03-09 23:37:00,
2013-03-09 17:38:00,46.3,39.2,28.98,SE,134,1.0,5.0,76,0.00,,FEW100,0.03,0.00,VWS V14.01,2013-03-09 23:38:00,
2013-03-09 17:39:00,47.4,39.5,28.99,SSE,167,5.0,8.0,74,0.00,,CLR,0.03,26.00,VWS V14.01,2013-03-09 23:39:00,
2013-03-09 17:40:00,47.4,39.5,28.99,ESE,115,4.0,9.0,74,0.00,,CLR,0.03,25.00,VWS V14.01,2013-03-09 23:40:00,
2013-03-09 17:41:00,46.3,39.2,28.98,ESE,113,7.0,7.0,76,0.00,,FEW100,0.03,0.00,VWS V14.01,2013-03-09 23:41:00,
2013-03-09 17:42:00,46.3,38.8,28.99,SSE,148,5.0,11.0,75,0.00,,FEW100,0.03,0.00,VWS V14.01,2013-03-09 23:42:00,
2013-03-09 17:43:00,47.4,39.5,28.99,ESE,107,2.0,7.0,74,0.00,,CLR,0.03,21.00,VWS V14.01,2013-03-09 23:43:00,
2013-03-09 17:44:00,46.4,38.9,28.98,ESE,123,1.0,9.0,75,0.00,,FEW100,0.03,0.00,VWS V14.01,2013-03-09 23:44:00,
2013-03-09 17:45:00,47.4,39.5,28.99,ESE,109,4.0,5.0,74,0.00,,CLR,0.03,21.00,VWS V14.01,2013-03-09 23:45:00,
2013-03-09 17:46:00,46.5,39.0,28.98,SE,128,2.0,16.0,75,0.00,,FEW100,0.03,0.00,VWS V14.01,2013-03-09 23:46:00,
2013-03-09 17:47:00,47.3,39.5,28.99,SW,234,2.0,4.0,74,0.00,,CLR,0.03,21.00,VWS V14.01,2013-03-09 23:47:00,
2013-03-09 17:48:00,46.5,39.0,28.98,East,84,2.0,5.0,75,0.00,,FEW100,0.03,0.00,VWS V14.01,2013-03-09 23:48:00,
2013-03-09 17:49:00,46.5,39.0,28.98,ESE,119,7.0,7.0,75,0.00,,FEW100,0.03,0.00,VWS V14.01,2013-03-09 23:49:00,
2013-03-09 17:50:00,46.5,39.0,28.98,ESE,107,4.0,8.0,75,0.00,,FEW100,0.03,0.00,VWS V14.01,2013-03-09 23:50:00,
2013-03-09 17:51:00,47.2,39.3,28.99,ENE,69,3.0,7.0,74,0.00,,CLR,0.03,11.00,VWS V14.01,2013-03-09 23:51:00,
2013-03-09 17:52:00,47.2,39.7,28.99,ESE,122,2.0,8.0,75,0.00,,CLR,0.03,9.00,VWS V14.01,2013-03-09 23:52:00,
2013-03-09 17:53:00,47.2,39.7,28.99,SE,140,4.0,10.0,75,0.00,,CLR,0.03,7.00,VWS V14.01,2013-03-09 23:53:00,
2013-03-09 17:54:00,46.6,38.8,28.98,SSW,192,8.0,12.0,74,0.00,,FEW100,0.03,0.00,VWS V14.01,2013-03-09 23:54:00,
2013-03-09 17:55:00,47.2,39.7,28.99,SE,125,2.0,6.0,75,0.00,,CLR,0.03,5.00,VWS V14.01,2013-03-09 23:55:00,
2013-03-09 17:56:00,46.6,38.8,28.98,SE,127,1.0,7.0,74,0.00,,FEW100,0.03,0.00,VWS V14.01,2013-03-09 23:56:00,
2013-03-09 17:57:00,47.2,39.7,28.99,ESE,121,1.0,9.0,75,0.00,,CLR,0.03,0.00,VWS V14.01,2013-03-09 23:57:00,
2013-03-09 17:58:00,47.1,39.6,28.99,South,178,2.0,5.0,75,0.00,,CLR,0.03,0.00,VWS V14.01,2013-03-09 23:58:00,
2013-03-09 17:59:00,46.6,38.8,28.97,East,96,2.0,12.0,74,0.00,,FEW100,0.03,0.00,VWS V14.01,2013-03-09 23:59:00,
2013-03-09 18:00:00,47.1,39.6,28.99,ESE,121,2.0,7.0,75,0.00,,CLR,0.03,0.00,VWS V14.01,2013-03-10 00:00:00,
2013-03-09 18:01:00,46.6,38.4,28.97,SSE,159,2.0,6.0,73,0.00,,FEW100,0.03,0.00,VWS V14.01,2013-03-10 00:01:00,
2013-03-09 18:02:00,46.6,38.4,28.97,SE,142,0.0,5.0,73,0.00,,FEW100,0.03,0.00,VWS V14.01,2013-03-10 00:02:00,
2013-03-09 18:03:00,47.0,39.5,28.99,ESE,108,1.0,8.0,75,0.00,,CLR,0.03,0.00,VWS V14.01,2013-03-10 00:03:00,
2013-03-09 18:04:00,46.5,38.3,28.98,ESE,121,2.0,8.0,73,0.00,,FEW100,0.03,0.00,VWS V14.01,2013-03-10 00:04:00,
2013-03-09 18:05:00,46.9,39.7,28.99,SE,126,2.0,7.0,76,0.00,,CLR,0.03,0.00,VWS V14.01,2013-03-10 00:05:00,
2013-03-09 18:06:00,46.5,38.3,28.98,ESE,123,0.0,7.0,73,0.00,,FEW100,0.03,0.00,VWS V14.01,2013-03-10 00:06:00,
2013-03-09 18:07:00,46.5,38.3,28.98,SSW,200,6.0,8.0,73,0.00,,FEW100,0.03,0.00,VWS V14.01,2013-03-10 00:07:00,
2013-03-09 18:08:00,46.8,39.7,28.99,SE,136,2.0,5.0,76,0.00,,CLR,0.03,0.00,VWS V14.01,2013-03-10 00:08:00,
2013-03-09 18:09:00,46.5,38.3,28.98,ESE,113,6.0,6.0,73,0.00,,FEW100,0.03,0.00,VWS V14.01,2013-03-10 00:09:00,
2013-03-09 18:10:00,46.7,39.5,28.99,ESE,119,2.0,4.0,76,0.00,,CLR,0.03,0.00,VWS V14.01,2013-03-10 00:10:00,
2013-03-09 18:11:00,46.6,39.5,28.99,SSW,202,2.0,6.0,76,0.00,,CLR,0.03,0.00,VWS V14.01,2013-03-10 00:11:00,
2013-03-09 18:12:00,46.6,39.5,28.99,SE,137,1.0,7.0,76,0.00,,CLR,0.03,0.00,VWS V14.01,2013-03-10 00:12:00,
2013-03-09 18:13:00,46.5,38.3,28.97,SSE,156,2.0,5.0,73,0.00,,FEW100,0.03,0.00,VWS V14.01,2013-03-10 00:13:00,
2013-03-09 18:14:00,46.5,38.0,28.98,ESE,110,8.0,8.0,72,0.00,,FEW100,0.03,0.00,VWS V14.01,2013-03-10 00:14:00,
2013-03-09 18:15:00,46.4,39.3,28.99,ENE,68,2.0,4.0,76,0.00,,CLR,0.03,0.00,VWS V14.01,2013-03-10 00:15:00,
2013-03-09 18:16:00,46.4,39.3,28.99,ESE,115,4.0,6.0,76,0.00,,CLR,0.03,0.00,VWS V14.01,2013-03-10 00:16:00,
2013-03-09 18:17:00,46.4,37.9,28.98,SE,135,2.0,8.0,72,0.00,,FEW100,0.03,0.00,VWS V14.01,2013-03-10 00:17:00,
2013-03-09 18:18:00,46.3,39.5,28.99,ESE,119,2.0,6.0,77,0.00,,CLR,0.03,0.00,VWS V14.01,2013-03-10 00:18:00,
2013-03-09 18:19:00,46.3,39.2,28.99,ESE,119,5.0,5.0,76,0.00,,CLR,0.03,0.00,VWS V14.01,2013-03-10 00:19:00,
2013-03-09 18:20:00,46.2,39.1,28.99,ESE,107,2.0,6.0,76,0.00,,CLR,0.03,0.00,VWS V14.01,2013-03-10 00:20:00,
2013-03-09 18:21:00,46.4,37.9,28.98,SSE,164,5.0,9.0,72,0.00,,FEW100,0.03,0.00,VWS V14.01,2013-03-10 00:21:00,
2013-03-09 18:22:00,46.5,38.0,28.98,SSE,159,6.0,6.0,72,0.00,,FEW100,0.03,0.00,VWS V14.01,2013-03-10 00:22:00,
2013-03-09 18:23:00,46.4,37.9,28.98,SE,126,4.0,10.0,72,0.00,,FEW100,0.03,0.00,VWS V14.01,2013-03-10 00:23:00,
2013-03-09 18:24:00,46.1,39.3,28.99,ESE,109,2.0,5.0,77,0.00,,CLR,0.03,0.00,VWS V14.01,2013-03-10 00:24:00,
2013-03-09 18:25:00,46.1,39.3,28.99,ENE,78,2.0,5.0,77,0.00,,CLR,0.03,0.00,VWS V14.01,2013-03-10 00:25:00,
2013-03-09 18:26:00,46.1,39.3,28.99,SE,137,1.0,6.0,77,0.00,,CLR,0.03,0.00,VWS V14.01,2013-03-10 00:26:00,
2013-03-09 18:27:00,46.5,37.6,28.98,East,92,2.0,7.0,71,0.00,,FEW100,0.03,0.00,VWS V14.01,2013-03-10 00:27:00,
2013-03-09 18:28:00,46.5,37.6,28.98,ESE,122,7.0,7.0,71,0.00,,FEW100,0.03,0.00,VWS V14.01,2013-03-10 00:28:00,
2013-03-09 18:29:00,46.1,39.3,28.99,WSW,252,5.0,5.0,77,0.00,,CLR,0.03,0.00,VWS V14.01,2013-03-10 00:29:00,
2013-03-09 18:30:00,46.1,39.3,28.99,South,171,2.0,11.0,77,0.00,,CLR,0.03,0.00,VWS V14.01,2013-03-10 00:30:00,
2013-03-09 18:31:00,46.5,37.6,28.98,ESE,110,7.0,11.0,71,0.00,,FEW100,0.03,0.00,VWS V14.01,2013-03-10 00:31:00,
2013-03-09 18:32:00,46.2,39.4,28.98,South,175,5.0,5.0,77,0.00,,CLR,0.03,0.00,VWS V14.01,2013-03-10 00:32:00,
2013-03-09 18:33:00,46.4,37.5,28.98,ESE,117,1.0,8.0,71,0.00,,FEW100,0.03,0.00,VWS V14.01,2013-03-10 00:33:00,
2013-03-09 18:34:00,46.4,37.5,28.97,SE,144,5.0,6.0,71,0.00,,FEW100,0.03,0.00,VWS V14.01,2013-03-10 00:34:00,
2013-03-09 18:35:00,46.3,39.2,28.98,ESE,109,5.0,5.0,76,0.00,,CLR,0.03,0.00,VWS V14.01,2013-03-10 00:35:00,
2013-03-09 18:36:00,46.4,37.5,28.97,SE,142,4.0,8.0,71,0.00,,FEW100,0.03,0.00,VWS V14.01,2013-03-10 00:36:00,
2013-03-09 18:37:00,46.3,39.2,28.98,SSW,197,3.0,11.0,76,0.00,,CLR,0.03,0.00,VWS V14.01,2013-03-10 00:37:00,
2013-03-09 18:38:00,46.3,39.2,28.98,SE,134,1.0,5.0,76,0.00,,CLR,0.03,0.00,VWS V14.01,2013-03-10 00:38:00,
2013-03-09 18:39:00,46.3,39.2,28.98,ESE,102,5.0,7.0,76,0.00,,CLR,0.03,0.00,VWS V14.01,2013-03-10 00:39:00,
2013-03-09 18:40:00,46.3,39.2,28.98,ESE,118,1.0,7.0,76,0.00,,CLR,0.03,0.00,VWS V14.01,2013-03-10 00:40:00,
2013-03-09 18:41:00,46.5,37.6,28.97,East,87,4.0,8.0,71,0.00,,FEW100,0.03,0.00,VWS V14.01,2013-03-10 00:41:00,
2013-03-09 18:42:00,46.3,38.8,28.99,SSE,148,5.0,11.0,75,0.00,,CLR,0.03,0.00,VWS V14.01,2013-03-10 00:42:00,
2013-03-09 18:43:00,46.5,37.3,28.98,ESE,121,4.0,8.0,70,0.00,,FEW100,0.03,0.00,VWS V14.01,2013-03-10 00:43:00,
2013-03-09 18:44:00,46.5,37.3,28.97,ESE,118,6.0,7.0,70,0.00,,FEW100,0.03,0.00,VWS V14.01,2013-03-10 00:44:00,
2013-03-09 18:45:00,46.5,39.0,28.98,SSE,159,7.0,9.0,75,0.00,,CLR,0.03,0.00,VWS V14.01,2013-03-10 00:45:00,
2013-03-09 18:47:00,46.6,37.3,28.97,SSE,150,5.0,6.0,70,0.00,,FEW100,0.03,0.00,VWS V14.01,2013-03-10 00:47:00,
2013-03-09 18:48:00,46.5,39.0,28.98,East,84,2.0,5.0,75,0.00,,CLR,0.03,0.00,VWS V14.01,2013-03-10 00:48:00,
2013-03-09 18:49:00,46.5,39.0,28.98,ESE,119,7.0,7.0,75,0.00,,CLR,0.03,0.00,VWS V14.01,2013-03-10 00:49:00,
2013-03-09 18:50:00,46.5,39.0,28.98,ESE,107,4.0,8.0,75,0.00,,CLR,0.03,0.00,VWS V14.01,2013-03-10 00:50:00,
2013-03-09 18:51:00,46.7,37.5,28.97,SSE,155,7.0,8.0,70,0.00,,FEW100,0.03,0.00,VWS V14.01,2013-03-10 00:51:00,
2013-03-09 18:52:00,46.6,38.8,28.98,SSE,160,2.0,8.0,74,0.00,,CLR,0.03,0.00,VWS V14.01,2013-03-10 00:52:00,
2013-03-09 18:53:00,46.7,37.5,28.97,ESE,115,4.0,13.0,70,0.00,,FEW100,0.03,0.00,VWS V14.01,2013-03-10 00:53:00,
2013-03-09 18:54:00,46.6,38.8,28.98,SSW,192,8.0,12.0,74,0.00,,CLR,0.03,0.00,VWS V14.01,2013-03-10 00:54:00,
2013-03-09 18:55:00,46.6,38.8,28.98,South,178,2.0,8.0,74,0.00,,CLR,0.03,0.00,VWS V14.01,2013-03-10 00:55:00,
2013-03-09 18:56:00,46.7,37.5,28.97,SE,146,4.0,4.0,70,0.00,,FEW100,0.03,0.00,VWS V14.01,2013-03-10 00:56:00,
2013-03-09 18:57:00,46.6,38.8,28.98,SW,229,2.0,4.0,74,0.00,,CLR,0.03,0.00,VWS V14.01,2013-03-10 00:57:00,
2013-03-09 18:58:00,46.6,38.8,28.98,SW,231,1.0,5.0,74,0.00,,CLR,0.03,0.00,VWS V14.01,2013-03-10 00:58:00,
2013-03-09 18:59:00,46.7,37.5,28.97,ESE,115,1.0,13.0,70,0.00,,FEW100,0.03,0.00,VWS V14.01,2013-03-10 00:59:00,
2013-03-09 19:00:00,46.7,37.5,28.97,ESE,114,2.0,9.0,70,0.00,,FEW100,0.03,0.00,VWS V14.01,2013-03-10 01:00:00,
2013-03-09 19:01:00,46.7,37.5,28.97,ESE,107,5.0,9.0,70,0.00,,FEW100,0.03,0.00,VWS V14.01,2013-03-10 01:01:00,
2013-03-09 19:02:00,46.6,38.4,28.97,SE,142,0.0,5.0,73,0.00,,CLR,0.03,0.00,VWS V14.01,2013-03-10 01:02:00,
2013-03-09 19:03:00,46.6,38.4,28.98,SSE,151,4.0,4.0,73,0.00,,CLR,0.03,0.00,VWS V14.01,2013-03-10 01:03:00,
2013-03-09 19:04:00,46.5,38.3,28.98,ESE,121,2.0,8.0,73,0.00,,CLR,0.03,0.00,VWS V14.01,2013-03-10 01:04:00,
2013-03-09 19:05:00,46.5,38.3,28.98,SE,124,7.0,7.0,73,0.00,,CLR,0.03,0.00,VWS V14.01,2013-03-10 01:05:00,
2013-03-09 19:06:00,46.7,37.5,28.97,ESE,110,5.0,11.0,70,0.00,,FEW100,0.03,0.00,VWS V14.01,2013-03-10 01:06:00,
2013-03-09 19:07:00,46.5,38.3,28.98,SSW,200,6.0,8.0,73,0.00,,CLR,0.03,0.00,VWS V14.01,2013-03-10 01:07:00,
2013-03-09 19:08:00,46.7,37.5,28.97,SSE,160,2.0,7.0,70,0.00,,FEW100,0.03,0.00,VWS V14.01,2013-03-10 01:08:00,
2013-03-09 19:09:00,46.5,38.3,28.98,ESE,113,6.0,6.0,73,0.00,,CLR,0.03,0.00,VWS V14.01,2013-03-10 01:09:00,
2013-03-09 19:10:00,46.7,37.5,28.97,SE,126,11.0,11.0,70,0.00,,FEW100,0.03,0.00,VWS V14.01,2013-03-10 01:10:00,
2013-03-09 19:11:00,46.5,38.3,28.98,ESE,121,7.0,7.0,73,0.00,,CLR,0.03,0.00,VWS V14.01,2013-03-10 01:11:00,
2013-03-09 19:12:00,46.5,38.3,28.97,SE,134,5.0,7.0,73,0.00,,CLR,0.03,0.00,VWS V14.01,2013-03-10 01:12:00,
2013-03-09 19:13:00,46.6,37.3,28.97,ESE,105,2.0,9.0,70,0.00,,FEW100,0.03,0.00,VWS V14.01,2013-03-10 01:13:00,
2013-03-09 19:14:00,46.5,38.0,28.98,ESE,110,8.0,8.0,72,0.00,,CLR,0.03,0.00,VWS V14.01,2013-03-10 01:14:00,
2013-03-09 19:15:00,46.6,37.7,28.97,East,90,8.0,9.0,71,0.00,,FEW100,0.03,0.00,VWS V14.01,2013-03-10 01:15:00,
2013-03-09 19:16:00,46.5,37.6,28.97,SSE,149,8.0,9.0,71,0.00,,FEW100,0.03,0.00,VWS V14.01,2013-03-10 01:16:00,
2013-03-09 19:17:00,46.4,37.9,28.98,SE,135,2.0,8.0,72,0.00,,CLR,0.03,0.00,VWS V14.01,2013-03-10 01:17:00,
2013-03-09 19:18:00,46.4,37.9,28.98,ESE,123,5.0,5.0,72,0.00,,CLR,0.03,0.00,VWS V14.01,2013-03-10 01:18:00,
2013-03-09 19:19:00,46.5,37.6,28.97,SE,144,6.0,6.0,71,0.00,,FEW100,0.03,0.00,VWS V14.01,2013-03-10 01:19:00,
2013-03-09 19:20:00,46.4,37.9,28.98,SE,137,2.0,6.0,72,0.00,,CLR,0.03,0.00,VWS V14.01,2013-03-10 01:20:00,
2013-03-09 19:21:00,46.4,37.9,28.98,SSE,164,5.0,9.0,72,0.00,,CLR,0.03,0.00,VWS V14.01,2013-03-10 01:21:00,
2013-03-09 19:22:00,46.5,38.0,28.98,SSE,159,6.0,6.0,72,0.00,,CLR,0.03,0.00,VWS V14.01,2013-03-10 01:22:00,
2013-03-09 19:23:00,46.3,37.4,28.97,ESE,114,6.0,7.0,71,0.00,,FEW100,0.03,0.00,VWS V14.01,2013-03-10 01:23:00,
2013-03-09 19:24:00,46.3,37.4,28.97,ESE,121,5.0,7.0,71,0.00,,FEW100,0.03,0.00,VWS V14.01,2013-03-10 01:24:00,
2013-03-09 19:25:00,46.5,37.6,28.98,SE,126,5.0,7.0,71,0.00,,CLR,0.03,0.00,VWS V14.01,2013-03-10 01:25:00,
2013-03-09 19:26:00,46.2,37.7,28.96,SE,136,5.0,8.0,72,0.00,,FEW100,0.03,0.00,VWS V14.01,2013-03-10 01:26:00,
2013-03-09 19:27:00,46.5,37.6,28.98,East,92,2.0,7.0,71,0.00,,CLR,0.03,0.00,VWS V14.01,2013-03-10 01:27:00,
2013-03-09 19:28:00,46.1,37.6,28.96,ESE,117,1.0,5.0,72,0.00,,FEW100,0.03,0.00,VWS V14.01,2013-03-10 01:28:00,
2013-03-09 19:29:00,46.5,37.6,28.98,SE,134,6.0,8.0,71,0.00,,CLR,0.03,0.00,VWS V14.01,2013-03-10 01:29:00,
2013-03-09 19:30:00,46.5,37.6,28.98,SE,128,2.0,6.0,71,0.00,,CLR,0.03,0.00,VWS V14.01,2013-03-10 01:30:00,
2013-03-09 19:31:00,46.1,37.6,28.96,ESE,122,2.0,13.0,72,0.00,,FEW100,0.03,0.00,VWS V14.01,2013-03-10 01:31:00,
2013-03-09 19:32:00,46.1,37.6,28.96,ESE,117,2.0,5.0,72,0.00,,FEW100,0.03,0.00,VWS V14.01,2013-03-10 01:32:00,
2013-03-09 19:33:00,46.1,37.6,28.96,SE,134,2.0,4.0,72,0.00,,FEW100,0.03,0.00,VWS V14.01,2013-03-10 01:33:00,
2013-03-09 19:34:00,46.4,37.5,28.97,SE,144,5.0,6.0,71,0.00,,CLR,0.03,0.00,VWS V14.01,2013-03-10 01:34:00,
2013-03-09 19:35:00,46.4,37.5,28.98,SSE,152,4.0,5.0,71,0.00,,CLR,0.03,0.00,VWS V14.01,2013-03-10 01:35:00,
2013-03-09 19:36:00,46.1,37.6,28.96,ESE,122,6.0,7.0,72,0.00,,FEW100,0.03,0.00,VWS V14.01,2013-03-10 01:36:00,
2013-03-09 19:37:00,46.4,37.5,28.97,ESE,107,7.0,7.0,71,0.00,,CLR,0.03,0.00,VWS V14.01,2013-03-10 01:37:00,
2013-03-09 19:38:00,46.1,37.6,28.96,ESE,109,5.0,5.0,72,0.00,,FEW100,0.03,0.00,VWS V14.01,2013-03-10 01:38:00,
2013-03-09 19:39:00,46.1,37.6,28.96,ESE,112,1.0,7.0,72,0.00,,FEW100,0.03,0.00,VWS V14.01,2013-03-10 01:39:00,
2013-03-09 19:40:00,46.1,37.6,28.96,South,180,5.0,6.0,72,0.00,,FEW100,0.03,0.00,VWS V14.01,2013-03-10 01:40:00,
2013-03-09 19:41:00,46.5,37.6,28.97,East,87,4.0,8.0,71,0.00,,CLR,0.03,0.00,VWS V14.01,2013-03-10 01:41:00,
2013-03-09 19:42:00,46.5,37.6,28.97,East,98,6.0,9.0,71,0.00,,CLR,0.03,0.00,VWS V14.01,2013-03-10 01:42:00,
2013-03-09 19:43:00,46.5,37.3,28.98,ESE,121,4.0,8.0,70,0.00,,CLR,0.03,0.00,VWS V14.01,2013-03-10 01:43:00,
2013-03-09 19:44:00,46.1,37.9,28.96,SE,124,2.0,6.0,73,0.00,,FEW100,0.03,0.00,VWS V14.01,2013-03-10 01:44:00,
2013-03-09 19:45:00,46.0,37.8,28.95,ESE,108,1.0,4.0,73,0.00,,FEW100,0.03,0.00,VWS V14.01,2013-03-10 01:45:00,
2013-03-09 19:46:00,46.6,37.3,28.98,SE,136,5.0,6.0,70,0.00,,CLR,0.03,0.00,VWS V14.01,2013-03-10 01:46:00,
2013-03-09 19:47:00,46.0,37.8,28.96,East,97,1.0,6.0,73,0.00,,FEW100,0.03,0.00,VWS V14.01,2013-03-10 01:47:00,
2013-03-09 19:48:00,46.6,37.3,28.97,ESE,113,4.0,9.0,70,0.00,,CLR,0.03,0.00,VWS V14.01,2013-03-10 01:48:00,
2013-03-09 19:49:00,46.0,37.8,28.96,SE,139,5.0,5.0,73,0.00,,FEW100,0.03,0.00,VWS V14.01,2013-03-10 01:49:00,
2013-03-09 19:50:00,46.6,37.3,28.97,SE,129,6.0,11.0,70,0.00,,CLR,0.03,0.00,VWS V14.01,2013-03-10 01:50:00,
2013-03-09 19:51:00,46.7,37.5,28.97,SSE,155,7.0,8.0,70,0.00,,CLR,0.03,0.00,VWS V14.01,2013-03-10 01:51:00,
2013-03-09 19:52:00,45.9,37.8,28.96,ESE,122,4.0,9.0,73,0.00,,FEW100,0.03,0.00,VWS V14.01,2013-03-10 01:52:00,
2013-03-09 19:53:00,45.9,37.8,28.96,SE,127,5.0,8.0,73,0.00,,FEW100,0.03,0.00,VWS V14.01,2013-03-10 01:53:00,
2013-03-09 19:54:00,46.7,37.5,28.97,SE,138,5.0,10.0,70,0.00,,CLR,0.03,0.00,VWS V14.01,2013-03-10 01:54:00,
2013-03-09 19:55:00,46.7,37.5,28.97,ESE,109,2.0,9.0,70,0.00,,CLR,0.03,0.00,VWS V14.01,2013-03-10 01:55:00,
2013-03-09 19:56:00,46.7,37.5,28.97,SE,146,4.0,4.0,70,0.00,,CLR,0.03,0.00,VWS V14.01,2013-03-10 01:56:00,
2013-03-09 19:57:00,45.9,37.8,28.96,SE,129,5.0,8.0,73,0.00,,FEW100,0.03,0.00,VWS V14.01,2013-03-10 01:57:00,
2013-03-09 19:58:00,46.7,37.5,28.97,ESE,119,4.0,7.0,70,0.00,,CLR,0.03,0.00,VWS V14.01,2013-03-10 01:58:00,
2013-03-09 19:59:00,45.9,37.8,28.95,ESE,111,4.0,5.0,73,0.00,,FEW100,0.03,0.00,VWS V14.01,2013-03-10 01:59:00,
2013-03-09 20:00:00,45.9,37.8,28.95,ESE,117,0.0,4.0,73,0.00,,FEW100,0.03,0.00,VWS V14.01,2013-03-10 02:00:00,
2013-03-09 20:01:00,46.7,37.5,28.97,ESE,107,5.0,9.0,70,0.00,,CLR,0.03,0.00,VWS V14.01,2013-03-10 02:01:00,
2013-03-09 20:02:00,46.7,37.5,28.97,ESE,118,5.0,12.0,70,0.00,,CLR,0.03,0.00,VWS V14.01,2013-03-10 02:02:00,
2013-03-09 20:03:00,46.7,37.5,28.97,ESE,120,5.0,7.0,70,0.00,,CLR,0.03,0.00,VWS V14.01,2013-03-10 02:03:00,
2013-03-09 20:04:00,45.9,37.8,28.95,ESE,113,2.0,8.0,73,0.00,,FEW100,0.03,0.00,VWS V14.01,2013-03-10 02:04:00,
2013-03-09 20:05:00,45.9,37.8,28.95,SSE,148,1.0,5.0,73,0.00,,FEW100,0.03,0.00,VWS V14.01,2013-03-10 02:05:00,
2013-03-09 20:06:00,46.7,37.5,28.97,ESE,110,5.0,11.0,70,0.00,,CLR,0.03,0.00,VWS V14.01,2013-03-10 02:06:00,
2013-03-09 20:07:00,46.7,37.5,28.97,SE,142,7.0,13.0,70,0.00,,CLR,0.03,0.00,VWS V14.01,2013-03-10 02:07:00,
2013-03-09 20:08:00,46.7,37.5,28.97,SSE,160,2.0,7.0,70,0.00,,CLR,0.03,0.00,VWS V14.01,2013-03-10 02:08:00,
2013-03-09 20:09:00,46.0,37.8,28.95,South,171,4.0,11.0,73,0.00,,FEW100,0.03,0.00,VWS V14.01,2013-03-10 02:09:00,
2013-03-09 20:10:00,46.0,37.8,28.95,ESE,118,6.0,6.0,73,0.00,,FEW100,0.03,0.00,VWS V14.01,2013-03-10 02:10:00,
2013-03-09 20:11:00,46.7,37.5,28.97,SW,228,3.0,11.0,70,0.00,,CLR,0.03,0.00,VWS V14.01,2013-03-10 02:11:00,
2013-03-09 20:12:00,46.0,37.8,28.95,ESE,117,2.0,7.0,73,0.00,,FEW100,0.03,0.00,VWS V14.01,2013-03-10 02:12:00,
2013-03-09 20:13:00,46.6,37.3,28.97,ESE,105,2.0,9.0,70,0.00,,CLR,0.03,0.00,VWS V14.01,2013-03-10 02:13:00,
2013-03-09 20:14:00,46.1,37.6,28.95,SE,124,1.0,5.0,72,0.00,,FEW100,0.03,0.00,VWS V14.01,2013-03-10 02:14:00,
2013-03-09 20:15:00,46.1,37.6,28.95,ESE,119,5.0,8.0,72,0.00,,FEW100,0.03,0.00,VWS V14.01,2013-03-10 02:15:00,
2013-03-09 20:16:00,46.1,37.6,28.95,SE,127,5.0,8.0,72,0.00,,FEW100,0.03,0.00,VWS V14.01,2013-03-10 02:16:00,
2013-03-09 20:17:00,46.5,37.6,28.97,ESE,122,6.0,8.0,71,0.00,,CLR,0.03,0.00,VWS V14.01,2013-03-10 02:17:00,
2013-03-09 20:18:00,46.5,37.6,28.97,SE,137,6.0,9.0,71,0.00,,CLR,0.03,0.00,VWS V14.01,2013-03-10 02:18:00,
2013-03-09 20:19:00,46.2,37.7,28.95,East,91,5.0,7.0,72,0.00,,FEW100,0.03,0.00,VWS V14.01,2013-03-10 02:19:00,
2013-03-09 20:20:00,46.2,37.7,28.95,ESE,115,9.0,9.0,72,0.00,,FEW100,0.03,0.00,VWS V14.01,2013-03-10 02:20:00,
2013-03-09 20:21:00,46.2,37.7,28.95,SSE,161,2.0,15.0,72,0.00,,FEW100,0.03,0.00,VWS V14.01,2013-03-10 02:21:00,
2013-03-09 20:22:00,46.3,37.8,28.95,SSE,157,7.0,9.0,72,0.00,,FEW100,0.03,0.00,VWS V14.01,2013-03-10 02:22:00,
2013-03-09 20:23:00,46.3,37.8,28.95,SSE,149,6.0,7.0,72,0.00,,FEW100,0.03,0.00,VWS V14.01,2013-03-10 02:23:00,
2013-03-09 20:24:00,46.3,37.4,28.97,ESE,121,5.0,7.0,71,0.00,,CLR,0.03,0.00,VWS V14.01,2013-03-10 02:24:00,
2013-03-09 20:25:00,46.3,37.8,28.97,SE,126,1.0,5.0,72,0.00,,CLR,0.03,0.00,VWS V14.01,2013-03-10 02:25:00,
2013-03-09 20:26:00,46.4,37.5,28.95,East,96,6.0,7.0,71,0.00,,FEW100,0.03,0.00,VWS V14.01,2013-03-10 02:26:00,
2013-03-09 20:27:00,46.4,37.5,28.95,SE,131,2.0,9.0,71,0.00,,FEW100,0.03,0.00,VWS V14.01,2013-03-10 02:27:00,
2013-03-09 20:28:00,46.4,37.5,28.95,ESE,121,4.0,11.0,71,0.00,,FEW100,0.03,0.00,VWS V14.01,2013-03-10 02:28:00,
2013-03-09 20:29:00,46.4,37.5,28.95,ESE,107,6.0,9.0,71,0.00,,FEW100,0.03,0.00,VWS V14.01,2013-03-10 02:29:00,
2013-03-09 20:30:00,46.1,37.6,28.96,ESE,118,6.0,6.0,72,0.00,,CLR,0.03,0.00,VWS V14.01,2013-03-10 02:30:00,
2013-03-09 20:31:00,46.5,37.6,28.95,ESE,117,2.0,9.0,71,0.00,,FEW100,0.03,0.00,VWS V14.01,2013-03-10 02:31:00,
2013-03-09 20:32:00,46.5,37.6,28.95,ESE,105,4.0,7.0,71,0.00,,FEW100,0.03,0.00,VWS V14.01,2013-03-10 02:32:00,
2013-03-09 20:33:00,46.1,37.6,28.96,SE,134,2.0,4.0,72,0.00,,CLR,0.03,0.00,VWS V14.01,2013-03-10 02:33:00,
2013-03-09 20:34:00,46.6,37.7,28.95,SW,221,2.0,5.0,71,0.00,,FEW100,0.03,0.00,VWS V14.01,2013-03-10 02:34:00,
2013-03-09 20:35:00,46.6,37.3,28.95,SE,131,4.0,8.0,70,0.00,,FEW100,0.03,0.00,VWS V14.01,2013-03-10 02:35:00,
2013-03-09 20:36:00,46.1,37.6,28.96,ESE,122,6.0,7.0,72,0.00,,CLR,0.03,0.00,VWS V14.01,2013-03-10 02:36:00,
2013-03-09 20:37:00,46.7,37.5,28.95,SE,125,2.0,7.0,70,0.00,,FEW100,0.03,0.00,VWS V14.01,2013-03-10 02:37:00,
2013-03-09 20:38:00,46.1,37.6,28.96,ESE,109,5.0,5.0,72,0.00,,CLR,0.03,0.00,VWS V14.01,2013-03-10 02:38:00,
2013-03-09 20:39:00,46.8,37.5,28.95,ESE,106,6.0,9.0,70,0.00,,FEW100,0.03,0.00,VWS V14.01,2013-03-10 02:39:00,
2013-03-09 20:40:00,46.8,37.5,28.95,SE,129,5.0,7.0,70,0.00,,FEW100,0.03,0.00,VWS V14.01,2013-03-10 02:40:00,
2013-03-09 20:41:00,46.8,37.5,28.95,SSW,199,2.0,6.0,70,0.00,,FEW100,0.03,0.00,VWS V14.01,2013-03-10 02:41:00,
2013-03-09 20:42:00,46.9,37.3,28.95,SSE,158,2.0,9.0,69,0.00,,FEW100,0.03,0.00,VWS V14.01,2013-03-10 02:42:00,
2013-03-09 20:43:00,46.1,37.9,28.96,ESE,106,1.0,11.0,73,0.00,,CLR,0.03,0.00,VWS V14.01,2013-03-10 02:43:00,
2013-03-09 20:44:00,46.1,37.9,28.96,SE,124,2.0,6.0,73,0.00,,CLR,0.03,0.00,VWS V14.01,2013-03-10 02:44:00,
2013-03-09 20:45:00,47.0,37.4,28.95,SSE,152,6.0,11.0,69,0.00,,FEW100,0.03,0.00,VWS V14.01,2013-03-10 02:45:00,
2013-03-09 20:46:00,47.0,37.4,28.95,ESE,117,1.0,6.0,69,0.00,,FEW100,0.03,0.00,VWS V14.01,2013-03-10 02:46:00,
2013-03-09 20:47:00,47.0,37.4,28.95,ESE,117,2.0,8.0,69,0.00,,FEW100,0.03,0.00,VWS V14.01,2013-03-10 02:47:00,
2013-03-09 20:48:00,46.0,37.8,28.96,SE,137,2.0,7.0,73,0.00,,CLR,0.03,0.00,VWS V14.01,2013-03-10 02:48:00,
2013-03-09 20:49:00,46.0,37.8,28.96,SE,139,5.0,5.0,73,0.00,,CLR,0.03,0.00,VWS V14.01,2013-03-10 02:49:00,
2013-03-09 20:50:00,47.1,37.5,28.95,ESE,118,5.0,11.0,69,0.00,,FEW100,0.03,0.00,VWS V14.01,2013-03-10 02:50:00,
2013-03-09 20:51:00,47.2,37.2,28.95,SSE,161,6.0,7.0,68,0.00,,FEW100,0.03,0.00,VWS V14.01,2013-03-10 02:51:00,
2013-03-09 20:52:00,47.2,37.2,28.95,South,186,2.0,7.0,68,0.00,,FEW100,0.03,0.00,VWS V14.01,2013-03-10 02:52:00,
2013-03-09 20:53:00,47.2,37.2,28.95,SSE,163,1.0,5.0,68,0.00,,FEW100,0.03,0.00,VWS V14.01,2013-03-10 02:53:00,
2013-03-09 20:54:00,45.9,37.8,28.96,East,92,2.0,6.0,73,0.00,,CLR,0.03,0.00,VWS V14.01,2013-03-10 02:54:00,
2013-03-09 20:55:00,47.3,37.3,28.95,East,94,4.0,8.0,68,0.00,,FEW100,0.03,0.00,VWS V14.01,2013-03-10 02:55:00,
2013-03-09 20:56:00,47.3,37.3,28.95,SSW,200,2.0,6.0,68,0.00,,FEW100,0.03,0.00,VWS V14.01,2013-03-10 02:56:00,
2013-03-09 20:57:00,47.3,37.3,28.95,SE,142,6.0,7.0,68,0.00,,FEW100,0.03,0.00,VWS V14.01,2013-03-10 02:57:00,
2013-03-09 20:58:00,45.9,37.8,28.96,ESE,115,1.0,6.0,73,0.00,,CLR,0.03,0.00,VWS V14.01,2013-03-10 02:58:00,
2013-03-09 20:59:00,47.4,37.0,28.95,South,173,6.0,11.0,67,0.00,,FEW100,0.03,0.00,VWS V14.01,2013-03-10 02:59:00,
2013-03-09 21:00:00,45.9,37.8,28.95,ESE,117,0.0,4.0,73,0.00,,CLR,0.03,0.00,VWS V14.01,2013-03-10 03:00:00,
2013-03-09 21:01:00,47.5,37.5,28.95,ESE,109,2.0,6.0,68,0.00,,FEW100,0.03,0.00,VWS V14.01,2013-03-10 03:01:00,
2013-03-09 21:02:00,47.5,37.5,28.95,ESE,117,4.0,8.0,68,0.00,,FEW100,0.03,0.00,VWS V14.01,2013-03-10 03:02:00,
2013-03-09 21:03:00,47.5,37.1,28.95,SE,142,0.0,6.0,67,0.00,,FEW100,0.03,0.00,VWS V14.01,2013-03-10 03:03:00,
2013-03-09 21:04:00,45.9,37.8,28.95,ESE,113,2.0,8.0,73,0.00,,CLR,0.03,0.00,VWS V14.01,2013-03-10 03:04:00,
2013-03-09 21:05:00,47.6,37.2,28.94,South,180,6.0,9.0,67,0.00,,FEW100,0.03,0.00,VWS V14.01,2013-03-10 03:05:00,
2013-03-09 21:06:00,45.9,37.8,28.95,SSE,147,2.0,5.0,73,0.00,,CLR,0.03,0.00,VWS V14.01,2013-03-10 03:06:00,
2013-03-09 21:07:00,47.6,37.2,28.94,SE,144,4.0,8.0,67,0.00,,FEW100,0.03,0.00,VWS V14.01,2013-03-10 03:07:00,
2013-03-09 21:08:00,47.6,37.2,28.94,SE,134,2.0,8.0,67,0.00,,FEW100,0.03,0.00,VWS V14.01,2013-03-10 03:08:00,
2013-03-09 21:09:00,46.0,37.8,28.95,South,171,4.0,11.0,73,0.00,,CLR,0.03,0.00,VWS V14.01,2013-03-10 03:09:00,
2013-03-09 21:10:00,47.6,37.2,28.94,SE,126,4.0,9.0,67,0.00,,FEW100,0.03,0.00,VWS V14.01,2013-03-10 03:10:00,
2013-03-09 21:11:00,47.7,37.3,28.94,SE,144,0.0,7.0,67,0.00,,FEW100,0.03,0.00,VWS V14.01,2013-03-10 03:11:00,
2013-03-09 21:12:00,46.0,37.8,28.95,ESE,117,2.0,7.0,73,0.00,,CLR,0.03,0.00,VWS V14.01,2013-03-10 03:12:00,
2013-03-09 21:13:00,47.7,37.3,28.94,SE,146,2.0,5.0,67,0.00,,FEW100,0.03,0.00,VWS V14.01,2013-03-10 03:13:00,
2013-03-09 21:14:00,47.7,37.3,28.94,East,82,1.0,10.0,67,0.00,,FEW100,0.03,0.00,VWS V14.01,2013-03-10 03:14:00,
2013-03-09 21:15:00,47.7,37.3,28.94,ESE,115,2.0,4.0,67,0.00,,FEW100,0.03,0.00,VWS V14.01,2013-03-10 03:15:00,
2013-03-09 21:16:00,46.1,37.6,28.95,SE,127,5.0,8.0,72,0.00,,CLR,0.03,0.00,VWS V14.01,2013-03-10 03:16:00,
2013-03-09 21:17:00,47.7,37.3,28.94,ESE,117,2.0,5.0,67,0.00,,FEW100,0.03,0.00,VWS V14.01,2013-03-10 03:17:00,
2013-03-09 21:18:00,47.7,37.3,28.94,SW,217,2.0,5.0,67,0.00,,FEW100,0.03,0.00,VWS V14.01,2013-03-10 03:18:00,
2013-03-09 21:19:00,47.6,37.2,28.94,SE,126,2.0,5.0,67,0.00,,FEW100,0.03,0.00,VWS V14.01,2013-03-10 03:19:00,
2013-03-09 21:20:00,46.2,37.7,28.95,ESE,115,9.0,9.0,72,0.00,,CLR,0.03,0.00,VWS V14.01,2013-03-10 03:20:00,
2013-03-09 21:21:00,47.6,37.2,28.94,ESE,122,2.0,7.0,67,0.00,,FEW100,0.03,0.00,VWS V14.01,2013-03-10 03:21:00,
2013-03-09 21:22:00,46.3,37.8,28.95,SSE,157,7.0,9.0,72,0.00,,CLR,0.03,0.00,VWS V14.01,2013-03-10 03:22:00,
2013-03-09 21:23:00,47.6,37.6,28.94,SE,127,4.0,4.0,68,0.00,,FEW100,0.03,0.00,VWS V14.01,2013-03-10 03:23:00,
2013-03-09 21:24:00,47.6,37.6,28.94,SE,128,1.0,9.0,68,0.00,,FEW100,0.03,0.00,VWS V14.01,2013-03-10 03:24:00,
2013-03-09 21:25:00,47.6,37.6,28.95,SE,133,2.0,4.0,68,0.00,,FEW100,0.03,0.00,VWS V14.01,2013-03-10 03:25:00,
2013-03-09 21:26:00,47.6,37.6,28.95,SW,225,5.0,7.0,68,0.00,,FEW100,0.03,0.00,VWS V14.01,2013-03-10 03:26:00,
2013-03-09 21:27:00,46.4,37.5,28.95,SE,131,2.0,9.0,71,0.00,,CLR,0.03,0.00,VWS V14.01,2013-03-10 03:27:00,
2013-03-09 21:28:00,47.6,37.6,28.94,ESE,122,2.0,11.0,68,0.00,,FEW100,0.03,0.00,VWS V14.01,2013-03-10 03:28:00,
2013-03-09 21:29:00,46.4,37.5,28.95,ESE,107,6.0,9.0,71,0.00,,CLR,0.03,0.00,VWS V14.01,2013-03-10 03:29:00,
2013-03-09 21:30:00,47.6,37.6,28.95,SE,126,2.0,4.0,68,0.00,,FEW100,0.03,0.00,VWS V14.01,2013-03-10 03:30:00,
2013-03-09 21:31:00,47.6,37.6,28.94,ESE,119,5.0,9.0,68,0.00,,FEW100,0.03,0.00,VWS V14.01,2013-03-10 03:31:00,
2013-03-09 21:32:00,46.5,37.6,28.95,ESE,105,4.0,7.0,71,0.00,,CLR,0.03,0.00,VWS V14.01,2013-03-10 03:32:00,
2013-03-09 21:34:00,46.6,37.7,28.95,SW,221,2.0,5.0,71,0.00,,CLR,0.03,0.00,VWS V14.01,2013-03-10 03:34:00,
2013-03-09 21:35:00,47.7,37.7,28.94,South,173,1.0,6.0,68,0.00,,FEW100,0.03,0.00,VWS V14.01,2013-03-10 03:35:00,
2013-03-09 21:36:00,47.7,37.7,28.94,ESE,117,1.0,4.0,68,0.00,,FEW100,0.03,0.00,VWS V14.01,2013-03-10 03:36:00,
2013-03-09 21:37:00,46.7,37.5,28.95,SE,125,2.0,7.0,70,0.00,,CLR,0.03,0.00,VWS V14.01,2013-03-10 03:37:00,
2013-03-09 21:38:00,47.7,37.7,28.94,SE,131,4.0,6.0,68,0.00,,FEW100,0.03,0.00,VWS V14.01,2013-03-10 03:38:00,
2013-03-09 21:39:00,46.8,37.5,28.95,ESE,106,6.0,9.0,70,0.00,,CLR,0.03,0.00,VWS V14.01,2013-03-10 03:39:00,
2013-03-09 21:40:00,47.7,37.7,28.94,SSE,153,1.0,4.0,68,0.00,,FEW100,0.03,0.00,VWS V14.01,2013-03-10 03:40:00,
2013-03-09 21:41:00,47.7,37.7,28.95,SW,215,2.0,2.0,68,0.00,,FEW100,0.03,0.00,VWS V14.01,2013-03-10 03:41:00,
2013-03-09 21:42:00,47.7,37.7,28.94,South,176,2.0,5.0,68,0.00,,FEW100,0.03,0.00,VWS V14.01,2013-03-10 03:42:00,
2013-03-09 21:43:00,46.9,37.3,28.95,SE,136,5.0,10.0,69,0.00,,CLR,0.03,0.00,VWS V14.01,2013-03-10 03:43:00,
2013-03-09 21:44:00,47.0,37.4,28.95,ESE,107,1.0,6.0,69,0.00,,CLR,0.03,0.00,VWS V14.01,2013-03-10 03:44:00,
2013-03-09 21:46:00,47.7,37.7,28.95,SSE,157,0.0,5.0,68,0.00,,FEW100,0.03,0.00,VWS V14.01,2013-03-10 03:46:00,
2013-03-09 21:47:00,47.7,37.7,28.95,SSE,161,1.0,5.0,68,0.00,,FEW100,0.03,0.00,VWS V14.01,2013-03-10 03:47:00,
2013-03-09 21:48:00,47.7,37.7,28.95,SSW,211,1.0,5.0,68,0.00,,FEW100,0.03,0.00,VWS V14.01,2013-03-10 03:48:00,
2013-03-09 21:49:00,47.1,37.5,28.95,SE,132,2.0,7.0,69,0.00,,CLR,0.03,0.00,VWS V14.01,2013-03-10 03:49:00,
2013-03-09 21:50:00,47.1,37.5,28.95,ESE,118,5.0,11.0,69,0.00,,CLR,0.03,0.00,VWS V14.01,2013-03-10 03:50:00,
2013-03-09 21:51:00,47.7,37.7,28.94,South,190,0.0,2.0,68,0.00,,FEW100,0.03,0.00,VWS V14.01,2013-03-10 03:51:00,
2013-03-09 21:52:00,47.7,37.7,28.94,ESE,105,2.0,2.0,68,0.00,,FEW100,0.03,0.00,VWS V14.01,2013-03-10 03:52:00,
2013-03-09 21:53:00,47.7,37.7,28.94,SE,129,2.0,4.0,68,0.00,,FEW100,0.03,0.00,VWS V14.01,2013-03-10 03:53:00,
2013-03-09 21:54:00,47.7,38.0,28.94,ESE,111,1.0,5.0,69,0.00,,FEW100,0.03,0.00,VWS V14.01,2013-03-10 03:54:00,
2013-03-09 21:55:00,47.3,37.3,28.95,East,94,4.0,8.0,68,0.00,,CLR,0.03,0.00,VWS V14.01,2013-03-10 03:55:00,
2013-03-09 21:56:00,47.7,38.0,28.94,SE,144,0.0,5.0,69,0.00,,FEW100,0.03,0.00,VWS V14.01,2013-03-10 03:56:00,
2013-03-09 21:57:00,47.6,38.0,28.94,SSE,150,4.0,5.0,69,0.00,,FEW100,0.03,0.00,VWS V14.01,2013-03-10 03:57:00,
2013-03-09 21:58:00,47.6,38.0,28.94,ESE,120,1.0,4.0,69,0.00,,FEW100,0.03,0.00,VWS V14.01,2013-03-10 03:58:00,
2013-03-09 21:59:00,47.4,37.0,28.95,South,173,6.0,11.0,67,0.00,,CLR,0.03,0.00,VWS V14.01,2013-03-10 03:59:00,
2013-03-09 22:00:00,47.6,38.3,28.94,ESE,119,1.0,4.0,70,0.00,,FEW100,0.03,0.00,VWS V14.01,2013-03-10 04:00:00,
2013-03-09 22:01:00,47.5,37.5,28.95,ESE,109,2.0,6.0,68,0.00,,BKN085,0.03,0.00,VWS V14.01,2013-03-10 04:01:00,
2013-03-09 22:02:00,47.5,38.6,28.94,East,101,4.0,9.0,71,0.00,,FEW100,0.03,0.00,VWS V14.01,2013-03-10 04:02:00,
2013-03-09 22:03:00,47.5,38.6,28.94,SSE,152,2.0,6.0,71,0.00,,FEW100,0.03,0.00,VWS V14.01,2013-03-10 04:03:00,
2013-03-09 22:04:00,47.5,37.1,28.95,ESE,121,6.0,8.0,67,0.00,,BKN085,0.03,0.00,VWS V14.01,2013-03-10 04:04:00,
2013-03-09 22:05:00,47.6,37.2,28.94,South,180,6.0,9.0,67,0.00,,BKN085,0.03,0.00,VWS V14.01,2013-03-10 04:05:00,
2013-03-09 22:06:00,47.3,38.7,28.94,SE,128,0.0,1.0,72,0.00,,FEW100,0.03,0.00,VWS V14.01,2013-03-10 04:06:00,
2013-03-09 22:09:00,47.6,37.2,28.94,SE,136,5.0,7.0,67,0.00,,BKN085,0.03,0.00,VWS V14.01,2013-03-10 04:09:00,
2013-03-09 22:10:00,47.6,37.2,28.94,SE,126,4.0,9.0,67,0.00,,BKN085,0.03,0.00,VWS V14.01,2013-03-10 04:10:00,
2013-03-09 22:11:00,47.0,38.5,28.94,SE,146,1.0,2.0,72,0.00,,FEW100,0.03,0.00,VWS V14.01,2013-03-10 04:11:00,
2013-03-09 22:12:00,47.0,38.5,28.94,ESE,115,2.0,8.0,72,0.00,,FEW100,0.03,0.00,VWS V14.01,2013-03-10 04:12:00,
2013-03-09 22:13:00,47.0,38.5,28.94,SSE,159,1.0,5.0,72,0.00,,FEW100,0.03,0.00,VWS V14.01,2013-03-10 04:13:00,
2013-03-09 22:14:00,47.7,37.3,28.94,East,82,1.0,10.0,67,0.00,,BKN085,0.03,0.00,VWS V14.01,2013-03-10 04:14:00,
2013-03-09 22:15:00,47.7,37.3,28.94,ESE,115,2.0,4.0,67,0.00,,BKN085,0.03,0.00,VWS V14.01,2013-03-10 04:15:00,
2013-03-09 22:16:00,46.9,38.7,28.94,SE,124,4.0,4.0,73,0.01,,FEW100,0.04,0.00,VWS V14.01,2013-03-10 04:16:00,
2013-03-09 22:17:00,46.9,38.7,28.94,ESE,122,2.0,6.0,73,0.01,,FEW100,0.04,0.00,VWS V14.01,2013-03-10 04:17:00,
2013-03-09 22:18:00,47.7,37.3,28.94,SW,217,2.0,5.0,67,0.00,,BKN085,0.03,0.00,VWS V14.01,2013-03-10 04:18:00,
2013-03-09 22:19:00,46.8,39.0,28.94,SSE,163,0.0,4.0,74,0.01,,FEW100,0.04,0.00,VWS V14.01,2013-03-10 04:19:00,
2013-03-09 22:20:00,47.7,37.3,28.94,SSW,198,4.0,6.0,67,0.00,,BKN085,0.03,0.00,VWS V14.01,2013-03-10 04:20:00,
2013-03-09 22:21:00,46.7,38.9,28.93,ESE,122,1.0,4.0,74,0.01,,FEW100,0.04,0.00,VWS V14.01,2013-03-10 04:21:00,
2013-03-09 22:22:00,46.7,39.2,28.93,ESE,123,0.0,1.0,75,0.01,,FEW100,0.04,0.00,VWS V14.01,2013-03-10 04:22:00,
2013-03-09 22:23:00,46.6,39.1,28.93,ESE,123,2.0,4.0,75,0.01,,FEW100,0.04,0.00,VWS V14.01,2013-03-10 04:23:00,
2013-03-09 22:24:00,47.6,37.6,28.94,SE,128,1.0,9.0,68,0.00,,BKN085,0.03,0.00,VWS V14.01,2013-03-10 04:24:00,
2013-03-09 22:25:00,47.6,37.6,28.95,SE,133,2.0,4.0,68,0.00,,BKN085,0.03,0.00,VWS V14.01,2013-03-10 04:25:00,
2013-03-09 22:26:00,46.4,38.9,28.93,ESE,123,2.0,4.0,75,0.02,,FEW100,0.05,0.00,VWS V14.01,2013-03-10 04:26:00,
2013-03-09 22:27:00,46.4,38.9,28.93,SE,133,1.0,5.0,75,0.02,,FEW100,0.05,0.00,VWS V14.01,2013-03-10 04:27:00,
2013-03-09 22:28:00,46.3,39.2,28.93,ESE,121,2.0,6.0,76,0.02,,FEW100,0.05,0.00,VWS V14.01,2013-03-10 04:28:00,
2013-03-09 22:29:00,46.3,39.2,28.93,SSE,148,1.0,5.0,76,0.02,,FEW100,0.05,0.00,VWS V14.01,2013-03-10 04:29:00,
2013-03-09 22:30:00,47.6,37.6,28.95,SE,126,2.0,4.0,68,0.00,,BKN085,0.03,0.00,VWS V14.01,2013-03-10 04:30:00,
2013-03-09 22:31:00,46.1,39.0,28.92,SSE,156,2.0,7.0,76,0.03,,FEW100,0.06,0.00,VWS V14.01,2013-03-10 04:31:00,
2013-03-09 22:32:00,47.7,37.7,28.94,SSW,195,1.0,6.0,68,0.00,,BKN085,0.03,0.00,VWS V14.01,2013-03-10 04:32:00,
2013-03-09 22:33:00,46.0,39.2,28.92,ESE,106,1.0,2.0,77,0.03,,FEW100,0.06,0.00,VWS V14.01,2013-03-10 04:33:00,
2013-03-09 22:34:00,45.9,39.1,28.92,ESE,121,1.0,6.0,77,0.03,,FEW100,0.06,0.00,VWS V14.01,2013-03-10 04:34:00,
2013-03-09 22:35:00,47.7,37.7,28.94,South,173,1.0,6.0,68,0.00,,BKN085,0.03,0.00,VWS V14.01,2013-03-10 04:35:00,
2013-03-09 22:36:00,45.8,39.0,28.92,SE,136,0.0,2.0,77,0.03,,FEW100,0.06,0.00,VWS V14.01,2013-03-10 04:36:00,
2013-03-09 22:37:00,45.8,39.3,28.92,SSE,155,2.0,4.0,78,0.03,,FEW100,0.06,0.00,VWS V14.01,2013-03-10 04:37:00,
2013-03-09 22:38:00,47.7,37.7,28.94,SE,131,4.0,6.0,68,0.00,,BKN085,0.03,0.00,VWS V14.01,2013-03-10 04:38:00,
2013-03-09 22:39:00,45.7,39.2,28.92,ESE,119,5.0,5.0,78,0.03,,FEW100,0.06,0.00,VWS V14.01,2013-03-10 04:39:00,
2013-03-09 22:40:00,47.7,37.7,28.94,SSE,153,1.0,4.0,68,0.00,,BKN085,0.03,0.00,VWS V14.01,2013-03-10 04:40:00,
2013-03-09 22:41:00,47.7,37.7,28.95,SW,215,2.0,2.0,68,0.00,,BKN085,0.03,0.00,VWS V14.01,2013-03-10 04:41:00,
2013-03-09 22:42:00,45.6,39.2,28.92,ESE,123,2.0,4.0,78,0.03,,FEW100,0.06,0.00,VWS V14.01,2013-03-10 04:42:00,
2013-03-09 22:43:00,47.8,37.8,28.94,ESE,117,1.0,7.0,68,0.00,,BKN085,0.03,0.00,VWS V14.01,2013-03-10 04:43:00,
2013-03-09 22:44:00,45.6,39.2,28.92,SE,134,4.0,5.0,78,0.03,,FEW100,0.06,0.00,VWS V14.01,2013-03-10 04:44:00,
2013-03-09 22:45:00,45.6,38.8,28.92,SSE,162,1.0,5.0,77,0.03,,FEW100,0.06,0.00,VWS V14.01,2013-03-10 04:45:00,
2013-03-09 22:46:00,47.7,37.7,28.95,SSE,157,0.0,5.0,68,0.00,,BKN085,0.03,0.00,VWS V14.01,2013-03-10 04:46:00,
2013-03-09 22:47:00,47.7,37.7,28.95,SSE,161,1.0,5.0,68,0.00,,BKN085,0.03,0.00,VWS V14.01,2013-03-10 04:47:00,
2013-03-09 22:48:00,47.7,37.7,28.95,SSW,211,1.0,5.0,68,0.00,,BKN085,0.03,0.00,VWS V14.01,2013-03-10 04:48:00,
2013-03-09 22:49:00,45.7,38.9,28.92,SE,137,4.0,6.0,77,0.03,,FEW100,0.06,0.00,VWS V14.01,2013-03-10 04:49:00,
2013-03-09 22:50:00,45.6,38.8,28.92,ESE,123,2.0,4.0,77,0.03,,FEW100,0.06,0.00,VWS V14.01,2013-03-10 04:50:00,
2013-03-09 22:51:00,47.7,37.7,28.94,South,190,0.0,2.0,68,0.00,,BKN085,0.03,0.00,VWS V14.01,2013-03-10 04:51:00,
2013-03-09 22:52:00,47.7,37.7,28.94,ESE,105,2.0,2.0,68,0.00,,BKN085,0.03,0.00,VWS V14.01,2013-03-10 04:52:00,
2013-03-09 22:53:00,45.8,39.0,28.92,East,89,2.0,3.0,77,0.03,,FEW100,0.06,0.00,VWS V14.01,2013-03-10 04:53:00,
2013-03-09 22:54:00,45.8,39.0,28.92,SSW,195,5.0,8.0,77,0.03,,FEW100,0.06,0.00,VWS V14.01,2013-03-10 04:54:00,
2013-03-09 22:55:00,45.8,38.7,28.91,ESE,119,4.0,8.0,76,0.03,,FEW100,0.06,0.00,VWS V14.01,2013-03-10 04:55:00,
2013-03-09 22:56:00,45.9,38.8,28.92,ESE,113,2.0,8.0,76,0.03,,FEW100,0.06,0.00,VWS V14.01,2013-03-10 04:56:00,
2013-03-09 22:57:00,47.6,38.0,28.94,SSE,150,4.0,5.0,69,0.00,,BKN085,0.03,0.00,VWS V14.01,2013-03-10 04:57:00,
2013-03-09 22:58:00,47.6,38.0,28.94,ESE,120,1.0,4.0,69,0.00,,BKN085,0.03,0.00,VWS V14.01,2013-03-10 04:58:00,
2013-03-09 22:59:00,46.0,38.5,28.92,SSE,163,0.0,2.0,75,0.03,,FEW100,0.06,0.00,VWS V14.01,2013-03-10 04:59:00,
2013-03-09 23:00:00,47.6,38.3,28.94,ESE,119,1.0,4.0,70,0.00,,BKN,0.03,0.00,VWS V14.01,2013-03-10 05:00:00,
2013-03-09 23:01:00,47.6,38.3,28.94,SE,129,0.0,6.0,70,0.00,,BKN,0.03,0.00,VWS V14.01,2013-03-10 05:01:00,
2013-03-09 23:02:00,47.5,38.6,28.94,East,101,4.0,9.0,71,0.00,,BKN,0.03,0.00,VWS V14.01,2013-03-10 05:02:00,
2013-03-09 23:03:00,46.2,38.7,28.91,SE,126,2.0,5.0,75,0.03,,FEW100,0.00,0.00,VWS V14.01,2013-03-10 05:03:00,
2013-03-09 23:06:00,46.3,38.5,28.92,ESE,122,2.0,7.0,74,0.03,,FEW100,0.00,0.00,VWS V14.01,2013-03-10 05:06:00,
2013-03-09 23:07:00,47.2,38.7,28.94,East,87,2.0,4.0,72,0.00,,BKN,0.03,0.00,VWS V14.01,2013-03-10 05:07:00,
2013-03-09 23:08:00,47.2,38.7,28.94,ESE,109,2.0,6.0,72,0.00,,BKN,0.03,0.00,VWS V14.01,2013-03-10 05:08:00,
2013-03-09 23:09:00,46.4,38.6,28.91,SE,135,4.0,4.0,74,0.03,,FEW100,0.00,0.00,VWS V14.01,2013-03-10 05:09:00,
2013-03-09 23:10:00,47.1,38.5,28.94,SE,132,0.0,4.0,72,0.00,,BKN,0.03,0.00,VWS V14.01,2013-03-10 05:10:00,
2013-03-09 23:11:00,46.5,38.3,28.92,ESE,121,4.0,4.0,73,0.03,,FEW100,0.00,0.00,VWS V14.01,2013-03-10 05:11:00,
2013-03-09 23:12:00,47.0,38.5,28.94,ESE,115,2.0,8.0,72,0.00,,BKN,0.03,0.00,VWS V14.01,2013-03-10 05:12:00,
2013-03-09 23:13:00,47.0,38.5,28.94,SSE,159,1.0,5.0,72,0.00,,BKN,0.03,0.00,VWS V14.01,2013-03-10 05:13:00,
2013-03-09 23:14:00,46.6,38.4,28.92,South,169,0.0,6.0,73,0.03,,FEW100,0.00,0.00,VWS V14.01,2013-03-10 05:14:00,
2013-03-09 23:15:00,46.9,38.4,28.94,SE,125,2.0,4.0,72,0.00,,BKN,0.03,0.00,VWS V14.01,2013-03-10 05:15:00,
2013-03-09 23:16:00,46.6,38.4,28.91,SE,139,2.0,4.0,73,0.03,,FEW100,0.00,0.00,VWS V14.01,2013-03-10 05:16:00,
2013-03-09 23:17:00,46.6,38.4,28.91,ESE,119,2.0,2.0,73,0.02,,FEW100,0.00,0.00,VWS V14.01,2013-03-10 05:17:00,
2013-03-09 23:18:00,46.8,39.0,28.94,SE,130,1.0,2.0,74,0.01,,BKN,0.04,0.00,VWS V14.01,2013-03-10 05:18:00,
2013-03-09 23:19:00,46.8,39.0,28.94,SSE,163,0.0,4.0,74,0.01,,BKN,0.04,0.00,VWS V14.01,2013-03-10 05:19:00,
2013-03-09 23:20:00,46.7,38.5,28.91,ESE,119,0.0,2.0,73,0.02,,FEW100,0.00,0.00,VWS V14.01,2013-03-10 05:20:00,
2013-03-09 23:21:00,46.7,38.5,28.91,ESE,110,2.0,2.0,73,0.02,,FEW100,0.00,0.00,VWS V14.01,2013-03-10 05:21:00,
2013-03-09 23:22:00,46.7,38.5,28.91,SSE,152,1.0,4.0,73,0.02,,FEW100,0.00,0.00,VWS V14.01,2013-03-10 05:22:00,
2013-03-09 23:23:00,46.6,39.1,28.93,ESE,123,2.0,4.0,75,0.01,,BKN,0.04,0.00,VWS V14.01,2013-03-10 05:23:00,
2013-03-09 23:24:00,46.7,38.5,28.91,South,174,0.0,2.0,73,0.02,,FEW100,0.00,0.00,VWS V14.01,2013-03-10 05:24:00,
2013-03-09 23:25:00,46.5,39.0,28.93,SE,140,2.0,6.0,75,0.01,,BKN,0.04,0.00,VWS V14.01,2013-03-10 05:25:00,
2013-03-09 23:26:00,46.4,38.9,28.93,ESE,123,2.0,4.0,75,0.02,,BKN,0.05,0.00,VWS V14.01,2013-03-10 05:26:00,
2013-03-09 23:27:00,46.7,38.9,28.91,SSE,168,4.0,5.0,74,0.01,,FEW100,0.00,0.00,VWS V14.01,2013-03-10 05:27:00,
2013-03-09 23:28:00,46.7,38.9,28.92,SSE,157,1.0,4.0,74,0.01,,FEW100,0.00,0.00,VWS V14.01,2013-03-10 05:28:00,
2013-03-09 23:29:00,46.3,39.2,28.93,SSE,148,1.0,5.0,76,0.02,,BKN,0.05,0.00,VWS V14.01,2013-03-10 05:29:00,
2013-03-09 23:30:00,46.2,39.1,28.93,SE,132,0.0,7.0,76,0.03,,BKN,0.06,0.00,VWS V14.01,2013-03-10 05:30:00,
2013-03-09 23:31:00,46.6,38.8,28.91,ESE,123,0.0,4.0,74,0.00,,FEW100,0.00,0.00,VWS V14.01,2013-03-10 05:31:00,
2013-03-09 23:32:00,46.0,39.2,28.92,ESE,107,2.0,4.0,77,0.03,,BKN,0.06,0.00,VWS V14.01,2013-03-10 05:32:00,
2013-03-09 23:34:00,46.6,38.8,28.91,South,171,1.0,1.0,74,0.00,,FEW100,0.00,0.00,VWS V14.01,2013-03-10 05:34:00,
2013-03-09 23:36:00,45.8,39.0,28.92,SE,136,0.0,2.0,77,0.03,,BKN,0.06,0.00,VWS V14.01,2013-03-10 05:36:00,
2013-03-09 23:37:00,45.8,39.3,28.92,SSE,155,2.0,4.0,78,0.03,,BKN,0.06,0.00,VWS V14.01,2013-03-10 05:37:00,
2013-03-09 23:38:00,45.7,39.2,28.92,SSW,200,1.0,5.0,78,0.03,,BKN,0.06,0.00,VWS V14.01,2013-03-10 05:38:00,
2013-03-09 23:39:00,46.6,38.8,28.91,ESE,121,5.0,5.0,74,0.00,,FEW100,0.00,0.00,VWS V14.01,2013-03-10 05:39:00,
2013-03-09 23:40:00,46.6,38.8,28.91,SE,142,2.0,5.0,74,0.01,,FEW100,0.01,0.00,VWS V14.01,2013-03-10 05:40:00,
2013-03-09 23:41:00,45.6,39.2,28.92,ESE,121,0.0,4.0,78,0.03,,BKN,0.06,0.00,VWS V14.01,2013-03-10 05:41:00,
2013-03-09 23:42:00,46.6,39.1,28.91,ESE,122,2.0,4.0,75,0.01,,FEW100,0.01,0.00,VWS V14.01,2013-03-10 05:42:00,
2013-03-09 23:43:00,45.6,39.2,28.92,ESE,123,0.0,6.0,78,0.03,,BKN,0.06,0.00,VWS V14.01,2013-03-10 05:43:00,
2013-03-09 23:44:00,46.6,39.1,28.91,SE,131,0.0,4.0,75,0.01,,FEW100,0.01,0.00,VWS V14.01,2013-03-10 05:44:00,
2013-03-09 23:45:00,46.6,39.1,28.91,SSE,147,1.0,5.0,75,0.01,,FEW100,0.01,0.00,VWS V14.01,2013-03-10 05:45:00,
2013-03-09 23:46:00,46.6,39.1,28.91,SE,132,0.0,4.0,75,0.01,,FEW100,0.01,0.00,VWS V14.01,2013-03-10 05:46:00,
2013-03-09 23:47:00,45.6,38.8,28.92,SE,126,2.0,4.0,77,0.03,,BKN,0.06,0.00,VWS V14.01,2013-03-10 05:47:00,
2013-03-09 23:48:00,45.6,38.8,28.92,ESE,123,0.0,2.0,77,0.03,,BKN,0.06,0.00,VWS V14.01,2013-03-10 05:48:00,
2013-03-09 23:49:00,45.7,38.9,28.92,SE,137,4.0,6.0,77,0.03,,BKN,0.06,0.00,VWS V14.01,2013-03-10 05:49:00,
2013-03-09 23:51:00,46.5,39.0,28.92,ESE,121,0.0,5.0,75,0.01,,FEW100,0.01,0.00,VWS V14.01,2013-03-10 05:51:00,
2013-03-09 23:52:00,46.5,39.0,28.92,East,87,1.0,6.0,75,0.01,,FEW100,0.01,0.00,VWS V14.01,2013-03-10 05:52:00,
2013-03-09 23:53:00,45.8,39.0,28.92,East,89,2.0,3.0,77,0.03,,BKN,0.06,0.00,VWS V14.01,2013-03-10 05:53:00,
2013-03-09 23:54:00,45.8,39.0,28.92,SSW,195,5.0,8.0,77,0.03,,BKN,0.06,0.00,VWS V14.01,2013-03-10 05:54:00,
2013-03-09 23:55:00,46.6,39.5,28.92,ESE,109,1.0,1.0,76,0.03,,FEW100,0.03,0.00,VWS V14.01,2013-03-10 05:55:00,
2013-03-09 23:56:00,46.6,39.8,28.92,South,190,1.0,6.0,77,0.03,,FEW100,0.03,0.00,VWS V14.01,2013-03-10 05:56:00,
2013-03-09 23:57:00,46.6,39.8,28.92,ESE,119,5.0,5.0,77,0.04,,FEW100,0.04,0.00,VWS V14.01,2013-03-10 05:57:00,
2013-03-09 23:58:00,46.6,39.8,28.92,SE,142,1.0,5.0,77,0.06,,FEW100,0.06,0.00,VWS V14.01,2013-03-10 05:58:00,
2013-03-09 23:59:00,46.0,38.5,28.92,SSE,163,0.0,2.0,75,0.03,,BKN,0.06,0.00,VWS V14.01,2013-03-10 05:59:00,